GFSMA_850_rhum_009.txt.gz
RH
95 96 96 93 84 80 82 85 81 83 79 71 64 60 66 71 71 68 67 66 68 70 73 77 77 78 81 83 82 78 75 70 76 84 98 99 93 80 76 72 74 79 83
94 99 96 88 86 86 87 84 80 61 40 39 39 41 44 61 62 64 50 58 64 60 67 69 74 89 97 94 83 77 66 69 70 73 78 87 89 90 90 82 75 70 73
98 97 93 91 86 80 73 54 37 36 36 36 33 32 36 38 38 38 43 52 60 63 63 54 55 60 63 78 92 92 89 99 91 80 84 88 93 96 98 94 91 88 80
100 94 92 65 44 36 36 37 35 32 28 26 25 24 23 24 30 46 51 55 58 53 50 41 44 46 50 56 66 79 88 88 90 87 80 78 87 94 97 97 99 97 94
88 66 32 36 37 35 32 29 26 23 22 22 21 22 21 23 46 27 28 38 41 30 25 28 38 43 47 43 45 48 42 44 52 60 58 55 58 56 62 86 96 98 99
32 36 36 34 31 29 28 27 25 24 21 20 22 21 20 22 18 25 17 17 13 17 24 32 39 36 41 38 29 32 32 35 50 59 63 58 62 70 76 87 82 70 59
37 35 32 29 27 26 27 25 24 23 22 20 21 21 18 15 24 9 7 4 7 12 16 26 19 7 5 4 7 17 16 14 25 69 84 93 93 92 91 94 91 85 86
35 34 37 38 36 31 28 24 20 18 18 15 19 21 25 15 23 14 14 9 17 18 5 4 5 10 13 28 30 30 23 46 47 82 89 90 89 85 84 99 100 98 99
39 43 43 43 39 33 27 20 17 14 14 16 14 27 36 34 28 28 10 28 11 18 11 15 15 21 43 41 26 13 36 52 60 76 80 83 85 88 87 97 93 89 98
45 47 47 44 38 32 26 20 15 13 12 13 11 14 26 32 38 45 28 13 26 19 20 25 26 48 44 34 29 40 35 46 66 73 73 78 81 87 89 98 98 100 99
49 49 47 44 38 32 26 20 16 13 11 12 15 19 22 23 23 43 50 41 40 40 26 40 43 35 42 36 54 46 29 68 73 70 73 76 74 70 74 85 94 100 99
50 49 46 41 34 27 21 16 13 11 10 13 19 21 27 30 29 38 40 46 55 50 49 54 49 51 52 55 46 41 72 75 68 68 74 73 70 66 70 75 77 81 80
50 48 44 38 30 23 17 15 12 9 12 18 20 20 23 25 29 36 39 52 48 51 53 49 55 57 56 53 58 66 60 58 73 76 73 71 71 71 69 71 72 68 70
50 47 42 35 26 18 14 10 9 12 18 20 20 21 25 28 33 29 37 46 54 53 54 59 56 58 59 67 63 62 65 79 71 70 72 72 71 78 75 70 70 66 64
50 46 38 29 21 14 8 10 14 18 21 21 21 23 26 28 26 26 39 47 52 68 64 57 61 64 68 66 62 71 71 64 71 77 76 76 76 80 73 82 71 69 70
50 42 32 23 13 8 11 16 20 22 22 22 24 27 29 29 27 26 46 60 60 63 72 67 68 70 62 58 68 74 69 77 76 82 80 79 86 73 80 71 81 70 69
46 34 22 11 8 12 17 22 23 22 22 23 26 34 36 36 32 46 58 65 68 70 72 65 68 64 62 66 64 74 85 81 90 90 88 78 75 75 73 70 74 80 76
36 21 11 10 12 19 22 22 21 22 26 37 44 45 42 43 42 62 73 73 72 70 74 79 78 75 83 74 92 86 93 87 85 86 77 72 72 72 75 76 77 87 95
24 12 11 13 22 24 22 18 22 34 46 49 54 58 57 56 72 77 79 80 75 78 88 96 93 87 93 96 95 85 92 91 80 81 78 71 73 82 88 88 79 78 84
14 12 15 25 26 22 20 22 32 42 52 58 61 64 60 66 83 89 83 78 89 89 88 90 93 97 98 94 86 76 75 85 90 88 86 89 96 97 80 87 89 89 91
13 16 27 29 24 21 22 26 43 60 62 63 64 67 65 78 91 82 86 87 82 85 97 98 98 97 91 80 80 84 97 94 93 100 96 93 85 88 84 88 92 96 97
16 28 32 28 24 23 22 37 62 62 62 65 70 72 73 75 80 84 84 87 90 97 97 98 97 98 88 87 88 93 98 97 95 92 94 96 100 89 92 92 100 98 88
28 34 33 27 26 22 23 48 60 63 66 70 77 77 80 86 92 88 83 93 96 95 99 96 96 96 94 91 97 97 96 99 99 100 100 100 98 94 86 83 92 95 98
36 38 31 28 25 24 28 57 64 70 73 77 79 89 94 91 92 91 96 96 92 95 95 96 91 95 97 96 91 96 98 99 98 95 100 99 96 98 82 87 92 94 99
40 35 30 28 29 33 40 65 76 80 81 80 94 99 95 96 91 89 90 97 96 89 74 91 100 100 90 89 96 97 95 100 96 97 74 100 90 92 96 87 73 75 94
39 33 30 31 35 43 47 84 93 89 90 86 84 85 81 94 84 90 97 98 91 74 96 97 86 65 69 83 100 97 96 98 100 98 69 98 100 98 97 87 78 81 81

GFSMA_850_rhum_012.txt.gz
RH
92 95 98 96 88 85 78 82 86 86 74 52 43 39 40 44 54 61 62 59 45 56 56 64 70 72 77 93 99 95 91 84 86 78 86 84 81 83 90 90 89 80 69
96 98 95 90 86 82 84 86 72 45 35 36 36 35 34 37 46 49 47 43 48 52 60 60 54 59 67 83 78 84 89 99 98 91 92 96 95 92 91 94 98 96 94
96 94 92 89 86 85 69 48 37 37 35 30 26 22 21 22 24 28 36 53 57 55 50 48 46 46 50 57 60 63 67 82 85 82 79 80 81 76 70 77 92 94 96
97 94 91 89 53 34 36 35 31 27 24 23 21 21 21 21 27 42 35 36 38 40 38 35 34 35 40 42 42 40 44 48 50 47 46 50 53 55 57 66 65 60 67
98 95 54 34 35 32 29 26 26 25 24 23 22 22 21 22 31 20 26 12 14 10 22 29 31 31 30 26 26 29 27 28 40 60 69 78 78 59 71 92 92 90 86
41 35 35 31 29 28 26 25 25 24 22 22 22 19 16 25 12 25 5 6 3 10 11 6 4 4 6 5 5 8 7 6 13 71 76 85 92 88 89 91 96 94 93
36 34 33 36 38 37 33 28 26 24 22 20 19 18 11 8 11 19 6 6 6 6 4 5 4 4 4 3 4 5 3 3 6 49 76 82 92 88 86 87 87 85 83
35 38 42 46 45 41 33 28 25 21 18 16 16 16 14 11 17 8 13 6 12 6 5 4 5 5 7 9 7 6 5 5 35 51 73 80 83 82 80 78 92 99 91
41 44 48 49 46 38 32 26 21 18 16 14 13 16 24 32 23 20 10 13 12 10 8 7 8 10 15 18 15 13 13 26 34 55 75 84 84 80 79 76 83 82 92
46 49 50 48 43 35 27 21 16 14 14 13 11 16 20 27 33 33 19 10 16 13 11 12 13 19 21 24 29 35 34 47 54 78 83 80 77 76 74 73 73 73 72
49 50 50 47 40 31 24 17 15 14 12 11 14 17 18 20 23 38 44 38 20 13 12 16 19 22 24 41 46 48 49 70 82 81 79 76 78 75 73 71 69 72 76
50 50 49 45 36 27 22 17 14 11 11 14 18 21 22 24 26 32 40 42 42 38 41 32 26 27 45 52 51 43 64 74 72 74 81 82 80 77 75 74 80 72 78
51 50 48 41 32 24 19 15 10 10 13 16 19 20 20 21 26 30 33 32 39 44 51 52 51 60 57 59 58 60 65 70 70 78 76 78 78 76 76 74 71 86 83
51 50 46 36 28 22 15 9 10 13 17 19 19 18 19 21 26 30 34 39 49 50 53 59 61 61 65 68 66 66 59 69 74 76 77 76 76 77 74 72 71 75 84
53 51 44 34 25 14 9 11 14 19 20 18 16 18 22 26 32 33 33 34 60 77 71 61 70 74 72 68 59 67 72 74 84 85 81 80 79 80 82 84 94 89 88
54 50 39 28 15 10 12 17 21 20 18 17 20 26 31 37 40 34 30 42 62 74 85 74 74 76 72 74 72 77 83 88 84 86 83 78 76 76 85 86 72 78 89
54 44 29 17 11 12 19 22 20 18 20 22 26 36 43 50 48 42 50 69 78 82 88 76 73 67 75 73 71 83 97 96 90 82 79 78 79 82 83 82 80 76 74
48 32 18 12 14 22 24 20 20 20 22 26 37 49 57 60 56 50 63 81 85 81 88 96 79 79 84 66 94 98 86 76 79 75 77 79 81 73 75 77 81 82 83
34 19 13 16 25 27 23 21 21 22 26 35 51 60 63 65 61 60 83 84 92 98 96 91 86 76 74 95 97 87 80 72 59 66 82 85 86 86 87 95 96 95 85
22 14 18 27 30 26 24 22 21 24 33 51 60 61 66 70 73 89 88 91 95 82 85 91 95 96 94 95 83 82 74 75 73 92 97 95 88 91 91 89 89 91 93
15 18 28 33 30 27 24 21 30 48 58 57 60 67 75 77 83 90 91 94 94 96 97 98 94 95 97 83 85 84 91 86 97 88 78 86 93 94 89 90 87 94 98
16 27 36 34 30 27 23 22 57 62 60 68 72 78 77 80 86 91 91 90 91 96 93 99 97 98 93 94 92 96 98 96 90 88 90 97 100 94 89 84 95 100 97
24 37 38 33 30 25 23 30 54 67 73 77 80 78 82 83 91 84 89 94 93 93 97 93 89 94 99 94 98 99 99 100 100 97 100 100 80 100 84 85 89 100 100
38 41 36 32 28 26 27 26 38 71 74 73 75 77 89 87 84 90 93 95 96 83 69 80 89 97 98 94 94 99 97 99 98 88 98 98 79 89 79 77 72 73 86
41 39 34 31 28 28 30 33 89 85 83 78 75 90 96 89 89 92 97 97 99 84 66 95 100 94 92 95 98 96 94 100 98 96 73 100 83 93 95 77 70 73 83
42 37 32 28 30 30 33 48 92 91 91 81 93 90 86 93 94 98 95 96 90 74 98 98 78 67 68 77 100 99 96 98 100 99 74 98 96 98 97 87 83 86 84

GFSMA_850_rhum_015.txt.gz
RH
94 91 94 95 92 85 81 80 81 87 84 58 42 38 39 38 38 43 53 56 53 49 49 54 67 67 70 80 88 91 92 92 94 97 95 86 83 89 88 85 85 89 93
96 96 94 90 87 83 81 84 83 57 40 37 36 32 28 25 27 30 33 38 44 48 50 50 51 51 52 60 69 72 70 74 79 76 75 74 75 79 86 86 82 80 86
94 94 89 88 86 87 85 51 39 38 33 28 25 22 21 21 22 26 34 44 50 51 50 48 43 42 41 44 46 47 51 51 54 57 60 63 67 67 61 62 62 61 60
93 90 92 89 86 42 37 34 29 25 22 21 21 21 21 21 22 36 38 29 23 23 23 29 32 31 30 31 32 33 34 35 35 37 41 42 46 49 50 48 51 62 76
92 93 87 48 35 30 28 27 25 24 24 23 22 21 19 19 22 26 17 6 8 5 10 21 9 5 4 4 6 6 8 9 14 15 18 47 62 65 73 65 66 70 59
94 60 36 32 33 34 36 33 29 27 25 24 22 19 15 15 21 12 22 7 7 6 9 4 4 4 4 4 4 4 4 4 4 6 34 68 61 77 90 91 91 88 90
37 35 34 38 43 45 40 32 29 26 23 22 21 19 13 11 8 14 22 7 6 6 8 4 5 4 4 4 4 6 5 4 8 40 48 71 80 89 92 90 90 86 83
36 37 41 46 47 44 35 31 27 23 19 17 17 17 13 12 10 14 8 9 8 7 6 5 5 5 5 5 5 5 5 5 12 50 75 78 78 89 89 89 86 84 82
38 43 47 49 48 42 33 29 24 19 17 15 14 19 17 21 16 15 11 10 10 8 7 6 6 6 6 6 7 7 7 10 33 54 82 90 92 90 89 87 83 82 80
43 48 50 49 48 41 32 27 22 18 15 13 12 16 19 23 26 26 18 12 12 11 9 8 8 8 7 9 14 22 23 35 47 77 88 90 90 89 86 86 83 82 78
48 50 50 50 47 40 32 25 20 17 13 12 15 19 19 19 21 33 38 21 14 12 12 12 11 9 11 16 27 38 45 64 74 81 83 86 87 88 85 84 82 81 80
50 51 50 50 47 37 28 24 19 12 11 14 18 21 22 25 28 33 40 38 36 24 20 12 14 15 19 28 32 38 50 70 75 81 81 83 85 83 82 80 80 78 78
51 51 51 49 42 33 26 18 12 11 14 18 20 20 19 21 26 30 36 36 46 36 35 44 40 42 44 33 37 43 53 77 74 76 80 85 84 83 82 80 79 78 78
51 52 52 47 38 28 17 12 12 14 19 20 18 18 21 26 32 38 46 48 47 49 46 56 50 53 67 71 70 75 65 56 72 78 84 84 82 82 80 78 76 75 79
53 53 50 42 30 18 13 12 15 20 20 17 18 20 24 31 39 42 40 40 57 87 77 72 76 72 74 75 77 80 76 72 81 84 85 82 85 79 77 75 78 79 79
55 53 47 34 22 14 13 17 22 21 18 18 19 21 27 39 43 44 47 45 51 75 98 65 70 75 80 89 80 80 81 89 89 95 93 88 82 76 77 77 81 85 87
56 52 41 26 18 14 18 24 23 20 20 19 20 30 38 48 51 55 56 54 68 78 91 70 72 70 62 61 77 86 97 96 96 93 91 80 75 76 76 80 92 93 85
55 45 30 20 15 20 26 26 23 22 20 22 28 38 46 53 60 67 65 72 78 81 95 94 83 74 63 79 79 90 100 90 92 83 77 76 78 80 83 94 88 91 91
48 33 21 16 20 28 29 26 24 22 25 33 43 49 57 68 74 75 82 86 89 99 100 100 92 79 90 78 95 100 86 72 72 75 79 86 90 90 88 84 82 92 94
38 23 17 22 32 33 30 27 25 30 34 42 49 60 67 74 75 88 92 93 98 95 92 95 98 100 95 94 93 83 72 78 85 89 98 91 90 86 89 92 91 90 89
28 18 21 33 36 33 29 26 28 37 41 43 60 60 61 64 78 90 90 91 88 94 96 99 100 98 93 76 84 84 93 95 95 92 95 86 89 95 98 95 93 93 98
18 21 34 38 36 32 27 24 30 40 45 52 52 51 56 64 74 89 89 92 92 97 96 98 97 88 79 92 94 100 99 100 97 92 96 85 96 95 78 75 80 100 100
19 30 38 38 34 29 25 24 32 70 56 55 58 61 70 78 76 80 82 97 97 97 98 93 83 91 99 95 99 95 100 100 100 99 100 94 78 83 74 72 81 97 100
26 36 38 37 32 26 25 26 55 58 60 65 67 74 90 84 88 93 96 97 82 79 73 86 96 95 98 97 98 99 99 100 99 95 100 97 84 80 76 74 67 65 87
34 38 40 34 28 24 24 27 62 64 74 78 78 96 99 96 93 98 97 97 96 78 71 92 100 98 94 96 100 96 93 99 100 98 87 100 87 99 91 79 72 79 94
39 42 36 28 24 25 27 31 82 89 86 82 96 89 98 95 94 98 95 97 95 76 98 98 78 69 70 76 94 98 96 98 100 99 89 98 97 100 96 90 82 80 87

GFSMA_850_rhum_018.txt.gz
RH
95 97 88 92 90 84 80 82 84 86 83 60 39 37 36 33 30 30 33 38 43 45 46 47 53 55 62 84 89 93 90 86 85 87 86 87 87 81 76 81 84 81 80
89 92 93 90 85 82 82 86 82 48 38 36 32 28 25 22 21 22 26 33 40 46 47 47 47 49 48 51 55 64 67 68 68 67 67 68 68 68 68 68 72 76 79
88 92 92 90 85 88 87 47 36 32 28 24 21 21 22 22 21 24 30 35 36 35 37 40 40 40 39 41 41 41 43 45 47 47 47 47 47 48 52 55 54 54 54
91 89 88 88 88 55 35 30 28 26 24 22 22 21 21 20 20 25 32 21 16 14 11 14 20 21 17 16 16 17 22 26 28 28 28 28 30 32 33 36 46 50 51
85 88 89 82 38 32 32 33 32 28 25 23 22 21 18 17 18 25 28 16 7 6 5 9 9 4 4 4 4 3 4 4 4 4 5 17 16 18 24 44 57 53 60
84 86 70 34 34 40 41 34 27 27 26 24 22 20 18 14 13 24 18 15 13 8 6 7 8 5 4 4 4 4 4 4 4 5 17 30 44 54 59 94 93 92 94
88 43 35 37 43 42 40 31 26 26 25 24 22 19 15 11 11 10 10 24 10 9 8 7 7 6 5 5 4 4 4 4 4 10 30 58 37 52 86 87 94 92 93
38 36 38 44 46 46 41 34 28 26 25 23 20 17 14 13 10 10 10 10 10 10 10 9 8 7 6 6 5 5 5 5 6 30 82 86 91 94 93 91 92 92 91
37 38 45 48 48 47 44 38 30 27 25 20 14 16 16 18 17 15 12 12 13 12 10 9 8 8 8 7 6 6 6 7 13 63 81 88 92 92 92 91 89 87 86
38 45 48 49 49 48 46 39 30 26 21 15 13 15 19 22 25 24 19 14 13 12 11 11 10 10 9 9 9 9 10 10 47 77 84 90 90 91 89 88 86 93 84
43 48 50 50 50 50 46 38 29 22 15 13 15 17 18 20 20 30 31 18 13 13 14 14 14 13 12 12 13 15 20 66 75 81 84 87 88 87 87 86 83 82 85
47 50 50 51 51 50 44 36 25 16 13 14 18 21 22 23 22 30 36 35 39 28 18 15 15 15 16 18 19 23 25 73 80 85 86 85 85 85 85 83 84 82 86
48 50 51 52 51 48 41 29 18 14 14 18 20 18 18 22 27 32 39 38 44 29 32 38 32 28 25 24 29 33 40 82 83 82 82 84 85 84 83 83 81 81 82
50 51 52 53 51 44 33 21 16 15 19 21 19 19 20 23 27 37 46 50 46 47 46 52 48 48 53 52 67 81 65 66 79 86 84 83 83 81 86 86 85 80 80
51 52 54 53 48 37 25 18 16 20 22 20 20 20 20 26 34 37 43 48 61 74 63 65 67 58 59 72 67 84 79 72 92 86 81 80 90 90 97 92 83 82 74
53 55 55 52 42 28 19 18 22 24 23 22 21 21 23 28 34 41 49 59 67 68 90 61 64 73 80 71 63 75 73 90 88 90 90 94 94 84 89 82 73 73 75
55 56 54 48 33 21 19 24 27 26 25 23 22 24 26 34 39 51 65 72 74 81 88 67 74 70 63 74 71 82 93 99 93 95 97 97 89 78 75 80 82 89 92
56 57 52 39 25 20 24 29 30 28 26 24 25 27 30 41 51 60 70 75 87 86 98 94 79 76 72 72 75 90 99 95 70 65 82 80 78 80 80 85 94 94 94
58 56 44 28 20 22 29 33 31 28 26 25 28 33 40 46 50 57 76 90 92 98 98 99 91 77 79 99 97 80 73 73 81 82 84 88 89 90 90 92 88 92 95
57 47 31 22 22 29 35 33 30 26 25 26 34 34 36 45 53 87 95 97 97 85 82 92 92 97 97 84 81 75 83 88 94 98 97 95 97 92 90 90 92 91 91
49 36 24 22 29 35 34 32 27 26 30 37 35 38 54 60 74 96 95 92 93 91 96 97 95 94 91 84 87 82 100 100 99 100 93 83 87 91 86 86 87 93 99
37 26 21 25 33 36 34 28 23 37 42 42 45 60 66 76 77 92 93 97 97 98 92 97 97 98 93 89 91 100 100 100 97 94 98 88 90 92 80 78 79 100 100
28 21 23 32 36 37 29 23 21 34 48 55 66 70 81 81 77 80 80 96 98 85 86 94 88 90 98 96 100 96 99 100 100 99 100 92 85 86 78 75 86 100 100
21 20 30 38 39 31 23 20 22 36 58 73 74 82 89 84 91 95 95 98 83 80 74 81 95 94 98 98 99 100 98 98 98 95 100 96 87 84 81 78 68 76 98
20 30 39 41 32 24 21 19 21 60 83 80 84 94 91 96 93 96 96 99 92 75 70 90 100 100 89 85 98 97 93 100 98 91 84 100 89 100 88 76 73 80 100
29 39 43 33 25 21 19 21 64 95 93 87 98 87 87 98 96 100 95 96 94 75 96 99 80 73 70 72 81 95 100 97 100 97 72 98 94 98 95 88 82 80 80

GFSMA_850_rhum_021.txt.gz
RH
91 94 89 90 86 84 80 78 83 85 66 42 36 34 30 27 25 23 23 25 31 36 40 43 43 47 60 63 74 81 84 89 90 86 82 82 82 83 84 81 76 76 80
87 86 87 87 84 81 81 82 83 41 35 30 25 23 20 20 20 21 23 28 33 39 42 45 48 49 47 47 48 51 53 54 57 61 63 63 61 61 62 64 64 65 65
84 89 85 84 85 81 85 53 34 29 27 25 23 22 21 20 20 22 26 31 33 30 24 19 20 24 27 28 27 27 32 36 40 44 45 46 45 46 47 47 47 48 50
88 90 84 85 86 83 36 32 31 31 28 24 22 21 20 19 18 22 27 25 12 8 7 6 8 10 7 5 4 4 4 4 4 4 6 8 10 13 16 20 25 29 32
94 88 82 85 77 34 33 36 33 26 21 21 21 20 19 18 17 21 28 29 23 14 11 8 7 8 8 6 5 4 4 4 4 5 5 7 23 22 25 24 23 44 68
90 87 84 78 35 35 38 37 29 24 22 21 21 20 18 16 14 18 34 14 14 22 13 10 9 8 8 7 6 6 5 5 4 5 6 23 59 87 88 79 90 92 93
87 87 73 35 36 42 42 38 33 28 24 22 20 17 15 13 13 13 12 12 10 13 11 10 10 9 8 8 7 6 6 6 5 6 9 39 91 90 87 93 93 92 92
85 67 36 36 44 45 44 43 39 33 27 24 20 16 14 13 13 12 12 12 12 12 12 10 10 10 10 10 10 9 9 8 8 8 32 84 90 93 90 90 90 90 90
69 36 36 45 48 48 48 47 44 36 28 22 17 16 18 24 16 14 14 13 13 12 12 12 12 13 13 12 11 11 10 10 9 18 80 87 91 91 91 90 89 88 85
38 37 43 48 49 50 50 49 45 38 28 20 16 15 16 18 29 31 19 19 15 15 14 15 15 14 14 13 13 13 12 12 17 80 84 90 91 91 91 89 88 87 85
38 40 48 49 50 51 51 50 44 33 24 18 16 16 17 18 17 24 34 22 20 19 19 17 16 16 15 14 15 16 15 46 76 85 87 89 89 88 87 85 85 84 85
39 46 49 50 51 52 52 49 40 29 21 17 17 19 18 20 22 30 44 41 45 36 25 20 18 16 16 17 20 16 21 38 87 90 89 88 86 83 83 82 84 89 91
40 48 50 51 52 53 52 46 35 24 18 18 20 19 19 20 21 23 31 43 53 48 54 51 41 40 36 35 43 28 32 62 74 87 89 88 87 84 81 80 78 82 85
45 49 51 52 53 54 51 41 28 21 20 21 22 21 21 22 24 28 35 50 53 51 51 51 58 54 63 72 72 78 85 86 85 88 87 85 84 82 81 78 79 96 96
47 50 52 54 55 53 45 34 24 20 22 24 24 23 23 24 26 29 36 44 64 66 59 56 66 71 82 90 87 86 86 89 90 89 86 84 84 84 92 92 93 85 93
49 51 54 55 54 48 38 27 22 23 27 27 26 26 26 27 27 31 39 48 59 79 86 61 65 84 90 89 87 94 91 95 92 94 93 90 89 94 86 88 92 86 82
51 53 55 55 51 41 29 23 24 30 30 29 28 26 25 27 27 28 34 43 57 74 88 54 84 79 91 93 90 96 100 100 96 92 90 90 90 87 84 82 84 86 85
53 55 56 53 44 32 24 24 30 32 31 29 26 24 23 23 22 27 36 44 61 78 94 89 90 90 87 94 98 100 97 89 84 81 86 91 92 91 90 90 91 90 94
54 56 54 47 35 26 24 31 33 32 30 27 24 22 23 28 37 43 52 73 86 97 100 100 90 81 97 100 95 86 81 78 84 90 91 96 96 98 99 96 94 90 93
55 54 48 39 29 24 29 33 34 31 26 22 20 27 34 47 52 62 90 98 99 97 91 94 98 97 95 85 81 83 87 86 95 98 89 99 98 97 97 97 99 99 98
53 49 41 31 24 27 32 36 32 25 21 19 24 32 45 56 66 93 96 97 95 95 88 98 99 98 91 86 86 91 98 98 96 97 90 96 92 89 90 96 99 100 100
49 42 33 24 26 32 37 34 24 20 19 30 38 42 56 67 74 99 98 100 98 95 98 95 100 93 88 89 94 100 100 100 98 96 98 99 96 91 90 84 97 100 100
43 34 24 23 32 39 35 24 18 18 26 35 42 58 74 83 83 90 87 100 100 99 99 95 92 91 98 96 99 98 98 99 100 97 100 98 82 95 81 80 83 100 100
36 24 23 33 40 36 25 18 17 19 26 43 61 72 85 89 95 99 97 99 95 84 97 95 98 95 97 99 100 100 98 96 94 86 100 100 92 95 83 76 64 78 99
24 22 34 42 37 25 18 16 18 26 47 68 70 85 93 100 100 96 96 95 98 96 73 91 100 100 89 82 85 100 96 100 99 92 75 100 98 100 85 66 62 74 99
21 36 43 36 25 18 17 16 22 63 83 86 100 100 100 100 99 100 96 96 99 82 96 100 90 75 73 71 77 96 97 98 100 99 76 99 97 100 96 79 75 70 81

GFSMA_850_rhum_024.txt.gz
RH
92 89 90 84 83 84 79 78 79 81 70 35 32 28 24 22 20 20 24 23 28 32 35 39 39 44 48 50 54 62 62 65 70 80 84 80 80 80 78 79 79 80 78
84 84 83 82 82 83 79 79 83 50 32 28 25 23 21 20 20 20 24 25 30 32 35 36 36 36 39 42 42 41 42 44 46 49 51 52 53 56 57 58 60 62 62
84 83 81 84 84 80 79 82 34 30 30 28 24 21 20 20 19 20 24 28 29 26 19 12 10 10 12 14 14 12 9 8 7 7 9 13 19 27 33 40 44 46 47
80 82 85 82 83 80 74 33 34 32 25 20 19 20 20 19 19 20 23 25 20 13 10 9 9 7 7 7 7 6 5 4 4 4 4 4 5 7 12 9 9 10 11
82 87 86 82 82 72 34 35 34 27 22 19 19 20 19 19 21 21 28 29 29 24 18 18 14 9 8 9 9 8 7 7 6 6 6 6 6 13 35 53 38 19 14
88 90 85 82 82 35 36 38 34 32 28 22 19 18 16 16 17 23 28 34 14 11 14 16 12 10 10 9 9 8 8 8 7 7 7 11 20 79 93 91 92 91 91
97 86 82 82 36 37 42 40 40 38 34 27 20 24 19 14 14 22 16 19 14 13 12 12 12 11 11 11 11 11 11 11 11 11 12 21 56 90 91 94 94 93 90
95 83 80 39 37 44 44 45 45 43 38 30 21 25 26 25 25 18 20 14 18 14 13 13 13 13 14 13 13 12 12 11 11 11 14 52 91 93 92 92 92 91 89
89 71 44 37 43 46 47 48 48 46 38 31 22 20 23 25 27 23 21 19 16 22 19 16 15 15 14 14 13 12 11 10 10 11 41 90 93 91 91 91 90 89 88
64 49 38 40 46 48 49 50 50 47 40 28 23 18 17 19 27 26 28 32 31 29 32 26 18 16 15 15 13 11 10 10 8 14 84 91 92 91 90 88 86 84 82
47 39 40 45 48 49 50 51 51 46 38 27 21 19 22 28 35 37 34 30 33 35 40 44 44 36 41 42 46 50 40 58 84 90 90 91 91 89 86 84 82 80 84
45 40 42 47 49 50 51 52 50 45 35 24 20 19 20 30 30 34 33 34 37 38 40 44 43 44 42 47 45 48 27 26 85 90 91 91 90 88 86 83 82 86 93
49 41 45 48 50 51 52 52 48 41 29 22 20 21 22 25 30 38 42 43 42 43 42 44 42 45 49 53 56 51 23 38 64 85 90 90 90 88 86 83 84 88 84
44 42 47 50 51 52 53 50 45 34 24 21 22 24 25 26 30 44 50 53 48 42 39 37 40 46 54 57 68 79 76 78 84 87 87 87 87 86 85 82 86 94 96
41 45 49 50 52 53 51 48 38 28 23 24 27 28 28 30 32 40 50 58 58 53 46 42 42 48 55 64 68 76 77 80 84 88 90 90 92 93 88 84 95 93 98
43 47 50 52 53 52 49 42 32 24 26 29 30 30 30 34 31 40 55 62 62 61 60 49 51 57 64 70 74 78 76 84 86 90 89 88 89 89 90 88 88 89 88
45 48 51 53 52 50 45 34 26 25 29 30 31 30 28 27 31 47 59 63 63 64 64 58 64 69 75 76 74 76 80 88 83 76 79 84 89 93 94 93 94 94 95
47 50 52 53 51 47 38 28 26 28 30 31 31 28 27 36 32 52 62 66 69 76 78 78 78 80 77 77 84 87 82 70 67 70 80 90 94 95 97 98 95 97 96
50 52 53 52 48 40 30 26 27 30 33 32 28 25 28 36 52 66 71 77 82 81 84 91 88 78 82 93 90 78 75 69 73 77 81 88 93 96 100 99 96 96 95
51 52 52 49 43 32 26 27 32 35 33 28 27 29 41 52 69 78 85 85 79 85 83 85 89 85 100 85 78 69 70 76 82 85 86 93 91 94 95 93 95 97 96
51 51 50 45 35 25 26 34 36 33 34 40 41 54 60 60 47 84 96 91 89 88 90 86 96 98 86 76 68 74 85 88 84 91 85 85 83 87 89 92 94 96 96
51 49 45 36 25 25 35 37 29 22 36 55 56 58 71 81 86 95 96 94 94 96 95 99 99 91 78 72 81 89 93 98 97 88 88 88 93 91 86 87 91 96 100
48 46 36 25 25 37 38 29 20 15 39 48 63 75 78 80 91 91 95 97 94 99 100 91 93 79 81 85 88 94 99 97 99 92 99 91 89 92 86 80 88 98 96
46 35 24 26 39 39 30 20 15 18 48 74 79 82 85 88 89 93 95 94 100 94 85 86 86 90 94 95 98 97 97 96 95 94 100 98 88 94 89 72 57 60 78
34 24 29 40 39 30 20 15 15 32 72 76 81 82 88 88 94 94 97 93 90 81 81 88 98 100 100 100 100 100 95 100 100 96 80 100 96 99 87 61 61 69 83
23 32 42 40 31 19 16 15 16 52 74 77 78 81 82 91 92 96 96 91 88 82 91 94 95 90 94 97 100 100 96 97 100 100 86 97 98 100 98 85 71 63 66

GFSMA_850_rhum_027.txt.gz
RH
80 81 87 87 80 82 81 78 77 77 75 34 29 25 23 28 26 32 42 26 23 27 30 30 32 37 40 42 45 47 48 48 49 51 54 58 60 63 66 69 71 73 75
84 91 85 80 81 80 78 76 78 75 32 28 26 24 21 25 22 24 37 28 24 26 29 30 29 22 17 16 16 17 17 17 16 16 16 18 24 31 39 46 50 53 55
88 79 80 77 78 80 80 78 70 32 29 24 20 19 19 20 20 27 30 40 27 24 21 13 8 6 6 6 6 6 6 5 5 4 4 4 4 4 4 4 6 11 21
79 77 77 79 76 80 78 74 33 31 26 22 19 22 23 22 23 26 25 27 26 25 22 19 16 14 13 9 8 8 8 8 8 8 7 6 6 6 5 7 9 8 7
76 74 80 81 78 78 78 33 33 31 29 25 20 18 20 19 32 28 32 28 26 27 19 14 12 13 13 10 10 10 9 9 9 9 8 9 8 9 9 18 73 76 39
75 76 84 83 80 81 36 36 36 37 35 31 26 20 18 17 24 27 38 34 32 18 14 12 13 14 13 12 12 12 12 11 11 11 11 12 14 22 68 90 93 94 94
77 86 91 83 80 45 35 40 42 42 41 36 28 25 30 24 20 38 42 32 29 23 23 26 22 17 15 15 14 13 12 11 11 11 11 12 23 66 92 94 94 92 93
83 93 91 81 65 35 42 44 45 46 44 40 30 28 30 28 30 23 29 26 25 25 30 25 19 18 17 16 14 13 11 10 9 8 10 16 76 93 94 94 92 91 90
88 97 86 78 37 38 45 46 47 48 45 42 33 24 25 28 25 25 24 31 25 31 28 25 26 24 23 19 19 19 14 11 10 10 15 52 89 93 92 93 91 89 88
96 92 75 47 39 44 47 48 49 50 47 42 34 27 21 21 30 29 27 29 31 29 32 34 30 24 22 21 26 21 21 16 12 13 48 90 94 93 93 92 89 87 84
98 90 56 42 43 46 48 49 50 50 49 40 32 23 27 31 34 35 37 32 31 32 34 38 40 41 35 37 35 40 55 63 78 87 91 92 92 91 89 88 86 84 94
94 85 43 43 45 48 49 50 51 51 49 40 28 22 22 27 29 34 35 35 37 35 38 38 39 34 42 42 46 51 62 71 84 90 93 94 94 92 91 92 89 91 88
88 63 43 44 46 48 50 51 52 51 48 36 25 22 23 27 32 36 42 43 45 38 40 39 37 38 38 41 47 58 61 77 80 82 90 93 92 89 88 91 90 89 88
78 60 43 45 47 50 51 52 52 51 43 31 24 23 26 28 33 39 47 51 54 52 46 41 38 37 40 41 49 61 67 72 76 83 87 88 88 89 88 88 91 92 87
58 47 43 45 49 50 52 52 52 48 37 27 25 27 29 32 36 39 40 49 60 61 56 47 43 41 45 50 56 66 70 71 79 81 83 85 88 88 87 88 90 94 94
58 47 44 47 50 52 52 52 50 43 30 26 28 29 32 34 34 33 42 54 56 60 63 55 54 55 58 63 68 72 72 77 79 79 84 87 84 84 86 91 94 97 94
51 44 45 49 51 52 52 51 45 34 27 28 30 35 35 32 33 39 40 48 56 60 64 65 71 72 74 76 76 75 79 73 77 75 76 79 84 89 91 93 95 95 98
44 45 47 50 52 52 52 47 37 28 26 30 35 37 34 40 43 43 54 60 63 66 73 76 78 80 82 78 81 87 80 89 72 69 73 81 87 90 92 95 95 98 96
44 47 49 51 52 53 50 41 28 26 29 36 38 36 40 46 53 57 65 71 76 81 80 78 82 82 82 84 89 94 75 73 68 72 78 82 88 92 95 92 93 94 94
46 49 51 52 53 51 44 31 25 29 36 38 41 49 51 57 63 68 72 82 88 85 87 89 85 79 92 97 91 76 71 73 81 81 81 77 88 89 91 89 93 96 98
49 50 51 52 52 49 35 25 32 36 32 37 41 49 60 64 65 83 93 92 92 89 88 82 94 99 100 89 80 76 80 91 76 86 98 59 89 74 72 85 90 95 96
50 51 52 52 50 34 25 32 36 29 21 26 49 49 59 67 71 79 89 89 91 91 96 96 100 99 91 89 81 88 83 100 98 81 95 81 74 72 81 77 91 95 98
50 51 52 52 38 25 33 37 29 18 16 34 48 64 71 73 79 84 87 89 90 93 98 95 95 92 88 87 80 89 96 100 96 84 94 92 70 77 76 69 76 97 97
52 52 70 32 26 37 37 28 18 15 22 44 65 71 77 78 82 85 88 95 85 82 83 87 86 89 85 90 97 98 97 93 83 77 100 98 82 79 83 81 61 58 59
78 56 28 28 39 37 30 17 16 16 29 59 67 72 74 81 80 88 89 90 89 90 82 83 91 97 100 97 95 94 89 91 96 83 96 100 93 98 81 66 63 73 69
37 26 32 40 38 28 18 16 17 18 57 72 73 76 77 79 85 89 92 98 91 90 88 89 90 88 93 89 98 94 96 98 96 96 86 98 95 100 96 85 76 66 59

GFSMA_850_rhum_030.txt.gz
RH
59 78 89 88 90 79 80 78 76 76 71 37 28 25 24 24 26 27 25 24 26 24 27 28 28 30 32 27 23 20 19 17 16 16 16 18 22 30 39 48 53 56 60
77 82 84 84 78 79 80 77 76 78 40 27 24 18 16 18 20 25 22 24 23 23 24 26 25 17 8 6 6 6 5 5 5 5 4 4 4 3 3 4 5 11 23
82 83 82 72 77 79 80 79 78 46 28 24 19 17 17 17 18 22 22 24 22 20 20 17 13 11 13 12 10 9 8 8 8 8 8 8 7 6 5 5 5 6 7
84 84 74 77 77 76 79 79 68 30 27 26 22 19 17 17 19 23 23 23 21 21 20 22 18 12 12 12 13 11 10 10 10 10 9 9 9 8 8 9 9 13 30
83 75 75 76 80 77 78 79 32 32 32 31 27 22 19 18 18 25 24 22 22 22 26 19 12 11 11 11 12 12 12 12 11 11 11 11 11 11 12 14 22 49 83
79 75 77 81 79 78 80 38 34 37 38 36 31 24 21 19 17 19 23 28 28 22 23 17 17 15 14 14 14 13 13 12 11 11 11 13 16 23 48 81 88 94 94
76 76 79 82 72 78 60 33 39 42 43 41 35 26 24 26 24 20 22 25 23 26 21 19 18 18 18 18 16 15 13 12 12 10 12 15 27 39 81 91 93 95 92
79 80 83 86 81 78 36 38 42 44 45 44 40 28 26 27 30 27 24 25 27 24 23 23 23 21 20 20 18 17 16 14 12 10 10 15 21 63 86 94 94 92 92
85 88 90 90 82 66 35 42 45 47 47 47 43 33 24 27 24 22 24 23 26 26 28 28 25 26 26 24 22 20 20 18 20 20 61 77 92 94 95 94 93 91 90
92 93 94 92 80 46 39 45 47 49 49 49 46 37 26 22 20 20 23 25 24 30 29 27 28 26 26 24 24 25 26 27 43 71 88 93 95 96 94 92 91 92 89
100 98 96 85 73 38 44 47 48 49 50 50 47 37 27 23 23 28 29 25 26 25 25 26 26 30 33 33 31 33 29 30 37 68 86 92 92 92 92 94 97 96 96
100 98 94 79 59 41 46 48 49 50 51 51 47 37 27 23 23 28 31 27 28 25 27 24 22 25 35 38 41 40 43 55 74 82 86 87 89 90 92 90 93 92 96
98 91 86 76 57 43 48 49 50 51 52 51 46 34 25 23 26 29 33 33 36 28 25 20 23 28 34 37 38 42 45 65 71 79 82 87 89 89 88 89 90 89 89
96 88 88 60 46 46 48 50 50 52 52 50 43 32 25 25 27 30 35 42 42 38 29 28 23 24 38 41 42 45 46 50 71 79 86 88 86 86 88 85 89 91 88
93 90 73 56 45 47 49 51 52 52 52 48 38 29 25 25 28 32 36 39 49 63 57 38 43 41 36 33 36 48 57 58 77 84 86 85 85 88 87 87 86 90 93
92 77 68 50 46 49 50 51 52 52 50 42 32 26 26 29 33 34 34 34 40 51 60 45 46 50 56 68 70 67 63 77 75 83 86 86 86 86 87 86 90 96 99
77 72 57 46 47 50 51 52 53 52 47 36 27 26 29 35 35 33 33 31 33 48 63 59 62 75 80 81 74 82 67 70 80 72 88 85 82 85 86 89 91 93 97
64 57 47 46 49 51 52 52 52 49 39 28 26 31 35 36 34 33 32 38 55 63 71 81 86 85 85 84 74 70 72 80 70 71 82 79 85 89 90 92 96 94 94
56 48 46 48 50 52 52 52 50 38 28 27 33 35 34 34 31 34 45 56 60 64 74 90 86 86 76 73 78 85 81 76 76 75 78 86 85 94 97 94 94 92 93
53 46 48 50 51 52 53 55 42 29 27 33 33 30 31 37 46 59 65 69 81 85 93 93 90 93 98 79 97 90 84 82 80 69 70 75 79 86 71 90 85 86 98
47 49 53 53 51 54 62 45 31 28 34 32 25 20 29 48 59 72 82 83 90 95 92 97 100 100 98 98 89 92 92 82 73 71 89 97 69 61 59 59 62 63 97
54 51 51 56 62 61 61 30 29 34 31 23 16 20 35 44 52 75 83 87 88 92 94 88 98 100 89 95 94 95 86 80 100 92 98 82 64 59 64 66 69 94 99
55 62 63 57 76 70 28 30 35 30 20 16 18 31 50 59 66 72 81 88 90 94 94 93 94 90 94 94 94 91 91 98 99 87 89 96 62 69 70 74 68 66 98
64 54 64 87 50 28 33 36 29 18 16 17 25 48 65 70 74 83 85 91 91 82 82 93 96 94 94 94 97 98 98 99 87 73 75 100 78 90 72 75 67 61 62
55 87 76 35 29 38 37 30 18 17 18 19 32 53 64 74 81 85 90 85 84 88 88 81 93 99 100 100 100 99 94 100 95 92 84 100 89 94 80 71 64 69 71
81 44 29 35 39 37 27 20 20 22 22 20 24 45 62 88 90 91 88 94 98 90 84 93 88 77 72 75 82 91 99 99 97 100 85 100 95 99 97 88 78 70 63

GFSMA_850_rhum_033.txt.gz
RH
76 66 69 86 79 84 77 77 74 73 73 45 29 23 20 20 18 19 21 22 24 24 25 25 26 27 24 15 9 8 7 6 6 5 5 5 4 5 6 9 19 33 44
60 63 78 86 85 85 79 77 75 76 70 30 24 18 15 16 16 16 19 21 24 23 22 23 22 14 9 9 11 10 9 8 8 8 8 8 8 7 6 5 5 6 8
68 75 82 86 87 77 80 80 79 77 36 26 21 19 17 16 18 18 20 21 22 20 18 18 19 19 16 12 12 12 12 11 10 10 10 10 9 9 9 10 11 11 14
77 78 83 86 78 77 78 80 80 71 29 27 25 22 19 17 18 19 21 22 21 20 20 19 19 13 10 10 11 12 12 12 12 11 11 11 11 11 11 11 13 20 35
80 81 80 82 75 76 76 78 79 36 31 32 31 26 22 20 16 20 23 21 22 21 20 18 15 13 13 13 14 14 14 13 12 12 12 12 12 13 14 19 27 45 74
79 84 84 76 76 77 77 78 59 33 37 38 35 29 22 21 20 21 21 20 20 19 19 19 16 15 17 17 17 16 15 14 13 13 13 16 25 46 62 75 85 94 94
80 82 79 77 78 81 77 75 32 38 41 42 38 32 25 24 23 22 17 22 22 24 22 19 19 23 21 20 20 19 17 15 16 15 14 29 74 83 93 94 93 95 94
83 84 80 79 81 81 76 62 34 40 43 44 42 35 28 30 27 25 24 23 24 25 24 25 27 26 22 21 22 21 19 18 17 22 31 62 86 95 95 95 95 94 92
85 83 83 80 84 83 77 45 37 43 45 45 45 42 31 25 24 22 23 26 23 25 25 26 28 26 25 25 23 22 20 23 24 56 85 93 94 93 94 94 92 92 90
81 87 88 84 89 86 77 38 41 45 46 47 47 46 42 33 25 20 22 22 24 25 23 25 25 24 24 24 27 25 27 30 37 74 85 90 92 93 93 92 90 93 98
87 88 91 90 93 88 68 38 44 46 48 48 49 48 44 34 27 22 22 21 20 21 22 22 23 22 20 24 27 31 36 38 59 71 79 87 91 90 90 88 94 96 99
83 90 95 96 94 84 64 39 46 48 49 50 50 50 44 35 26 24 25 23 23 21 23 23 20 17 20 24 31 38 42 46 69 76 80 82 86 86 86 90 90 90 93
94 94 98 97 94 73 48 44 48 49 50 51 51 50 44 32 26 25 26 27 31 28 26 20 19 19 22 25 34 40 44 45 48 74 78 84 87 88 87 89 86 86 89
83 96 96 91 88 56 47 47 49 50 51 51 51 49 41 30 26 26 29 34 37 34 26 20 21 22 28 33 32 29 29 31 35 66 85 89 89 90 88 86 87 92 91
96 93 92 88 71 57 48 49 50 51 52 52 52 47 37 28 25 27 32 37 41 50 44 30 33 29 27 30 33 45 65 57 67 87 88 91 92 91 89 89 88 91 94
97 92 91 79 72 52 50 49 51 52 52 52 50 43 31 26 28 34 35 34 35 42 55 35 33 35 38 37 47 63 65 57 56 57 93 95 91 92 90 87 88 90 94
94 95 88 73 72 60 49 50 51 52 51 50 44 34 26 29 34 35 34 32 33 37 47 45 43 45 54 53 50 55 58 61 59 60 89 94 93 91 90 90 92 95 92
94 88 88 73 50 54 51 51 52 52 52 48 36 27 30 36 37 36 35 33 34 41 52 57 62 64 69 65 67 69 72 67 64 58 80 92 89 93 94 97 97 99 97
89 89 71 61 72 49 50 51 51 50 46 36 29 32 35 36 34 33 36 39 44 55 64 74 83 83 83 73 76 82 90 69 66 64 82 78 74 73 91 99 97 96 95
78 70 76 51 48 50 52 52 55 45 53 36 32 32 30 30 31 40 47 56 68 78 85 92 93 91 84 82 91 92 82 73 73 68 68 69 62 63 75 65 60 62 65
72 66 57 70 52 58 58 70 82 54 31 33 31 24 20 24 39 47 61 75 84 87 90 95 94 89 99 98 88 82 92 86 76 71 71 82 75 71 53 54 58 60 60
60 59 60 68 63 65 87 91 47 32 34 29 21 17 20 26 36 42 60 82 88 89 92 92 96 99 94 88 87 94 92 86 100 80 96 85 72 66 54 61 64 80 94
91 90 85 74 94 95 57 31 36 35 28 19 17 18 19 28 49 66 67 82 87 91 94 95 92 87 95 92 94 92 94 99 99 86 84 87 72 76 66 70 71 65 63
82 89 91 74 70 36 32 36 35 27 18 18 18 17 21 38 55 65 82 90 97 94 82 86 98 99 99 95 98 98 98 98 94 82 80 99 84 86 80 73 66 61 60
87 55 71 54 33 36 39 35 26 19 20 19 16 16 31 42 54 91 91 91 89 90 94 88 79 97 100 100 98 100 94 97 91 88 79 100 84 86 91 72 66 68 72
62 62 34 33 40 39 32 24 22 20 19 18 25 28 33 63 94 93 94 98 98 92 86 88 88 82 75 74 76 86 93 100 98 100 82 100 93 93 100 89 83 74 69

GFSMA_850_rhum_036.txt.gz
RH
55 67 70 57 53 69 73 69 70 71 73 69 34 27 23 17 17 18 19 21 24 26 29 27 26 26 20 11 8 8 8 8 8 7 7 7 7 6 6 5 6 11 24
51 62 78 69 78 80 80 74 74 74 75 61 28 23 18 16 16 17 19 19 22 24 24 23 22 14 12 15 14 12 11 11 11 11 10 10 9 10 9 10 10 10 9
47 62 66 72 82 86 80 77 77 77 77 38 26 22 19 18 17 18 18 19 20 20 20 20 20 21 16 12 11 12 12 12 12 12 12 12 11 11 12 13 14 16 21
62 58 64 74 84 87 82 79 80 81 76 30 27 25 22 19 19 18 19 20 20 20 20 20 18 16 14 13 13 14 16 15 14 13 12 12 12 13 14 26 53 64 72
72 67 73 76 86 88 78 77 78 80 62 31 32 30 24 22 17 17 20 21 20 21 20 19 18 16 16 16 17 17 16 16 15 14 13 14 13 15 18 26 50 74 94
83 73 78 82 89 86 77 76 78 78 33 35 36 32 27 21 20 20 21 20 22 23 21 20 20 18 20 20 20 19 18 18 16 16 16 18 29 55 68 80 88 95 94
85 84 81 84 88 86 76 78 78 63 34 39 40 36 27 26 24 24 20 22 24 24 24 23 22 21 22 23 21 20 19 18 17 17 32 28 68 95 95 95 94 95 94
81 85 82 83 88 83 79 82 78 38 37 41 41 40 31 32 28 26 25 24 25 24 23 23 22 24 25 22 22 21 20 19 18 24 56 74 93 96 95 94 94 93 91
82 72 80 82 85 79 78 81 75 35 39 42 43 41 37 32 31 29 24 24 26 25 25 25 24 26 25 24 21 19 18 19 19 42 80 89 94 93 94 94 93 92 91
67 65 84 86 85 79 81 83 74 37 42 44 45 45 45 43 35 27 27 25 24 26 26 24 24 24 24 22 19 18 19 19 32 69 81 86 91 92 92 91 92 91 90
69 70 78 85 85 83 83 85 74 39 43 46 47 47 48 46 42 35 28 26 25 24 23 21 23 23 21 18 17 17 18 24 42 68 82 90 90 90 91 92 90 88 89
68 71 77 85 88 83 86 89 72 41 44 47 49 49 49 47 44 36 30 27 24 22 20 22 23 21 18 17 17 20 24 27 29 40 81 90 90 90 89 89 88 90 92
67 67 71 88 96 81 90 85 70 45 46 49 50 50 50 48 42 35 28 26 26 24 25 23 22 19 19 20 21 24 26 26 26 29 75 90 92 91 91 90 90 88 90
53 58 73 94 96 90 91 82 58 48 49 50 50 51 50 47 41 33 27 26 29 30 29 24 23 20 25 26 24 22 19 20 20 29 75 92 94 93 93 90 92 86 90
58 68 86 98 98 95 78 77 52 51 56 53 51 51 50 44 36 28 26 29 35 44 41 30 25 25 27 26 24 25 27 28 30 45 61 86 95 95 94 93 88 89 91
69 84 100 98 90 90 84 64 59 68 51 52 51 51 47 38 30 28 31 34 35 40 50 38 28 29 30 28 32 38 39 40 38 41 54 96 96 94 94 91 95 96 91
84 97 100 93 80 85 78 66 74 73 59 51 50 49 44 34 29 33 36 34 35 36 41 38 37 36 40 37 32 34 37 42 42 48 46 97 98 97 94 94 92 93 96
100 100 97 82 78 78 72 84 89 53 51 49 47 40 32 31 33 33 34 33 32 35 42 45 55 55 55 48 52 50 46 42 46 44 50 94 97 97 97 98 100 100 99
99 99 85 77 82 76 95 61 57 72 50 45 37 38 50 46 39 30 28 29 35 40 50 69 76 76 80 67 65 58 59 46 50 53 56 58 64 70 94 99 100 100 98
93 89 76 78 85 87 84 78 53 46 49 48 74 89 86 38 27 23 30 37 47 66 75 79 80 90 88 73 72 77 72 57 67 61 61 64 67 70 61 70 70 59 57
86 85 85 92 88 79 62 50 49 72 94 98 90 53 28 22 21 30 43 54 74 80 79 87 95 94 87 86 82 75 79 77 79 77 63 72 68 67 60 60 60 60 58
82 83 85 88 89 90 94 97 100 99 89 74 38 23 19 21 25 32 44 81 84 88 92 92 94 95 90 84 80 81 94 93 100 78 76 85 71 70 68 65 62 60 64
78 88 90 94 99 99 99 100 67 39 36 30 22 18 19 20 25 36 47 53 65 87 92 94 95 92 86 80 89 93 96 100 99 77 78 86 75 70 65 67 63 61 60
90 94 100 98 100 99 57 51 38 36 28 21 21 21 20 23 27 34 57 88 89 88 91 93 87 85 90 92 97 99 98 94 87 76 76 98 76 72 73 68 62 57 59
100 99 100 99 99 62 40 38 35 26 24 24 22 25 32 30 25 61 91 95 99 93 87 80 84 97 100 100 99 98 84 94 88 82 73 98 80 89 80 67 61 62 64
99 95 77 38 39 42 38 33 28 24 25 29 26 28 24 22 48 94 96 100 98 88 83 90 89 82 79 73 77 84 91 100 97 100 82 98 90 90 99 86 77 74 68

GFSMA_850_rhum_039.txt.gz
RH
55 63 67 62 50 62 68 72 71 69 68 71 62 32 25 20 17 17 19 21 24 26 26 25 24 23 19 12 10 12 12 11 10 9 9 9 8 8 8 8 7 6 7
56 64 69 69 55 63 75 75 73 72 71 73 58 28 22 17 16 17 17 19 20 23 23 22 20 16 16 17 15 11 11 11 11 11 11 11 10 11 11 11 11 11 11
46 61 72 75 66 79 84 80 75 75 74 76 43 26 22 19 17 17 18 19 21 22 21 20 20 19 17 13 13 15 14 13 13 13 13 12 12 12 13 13 15 16 17
38 54 66 75 74 87 88 82 79 79 79 77 35 27 25 22 19 19 18 20 21 21 21 20 18 17 15 15 15 16 16 16 15 14 14 13 13 13 14 16 26 37 52
63 53 66 69 74 90 90 85 80 80 81 74 31 31 28 24 22 18 20 21 20 20 20 19 19 18 16 17 18 18 18 18 17 15 14 13 13 15 18 28 48 68 83
75 78 72 67 79 87 91 87 82 79 79 66 33 35 31 27 20 19 22 21 21 23 23 22 20 19 20 21 20 19 19 18 17 16 19 20 17 35 62 82 92 95 95
80 78 74 69 79 82 86 87 82 78 78 49 36 38 33 27 25 23 24 21 24 26 24 23 22 21 20 21 21 20 20 18 17 21 26 58 66 77 95 95 96 95 94
67 72 76 78 75 81 90 89 82 78 78 39 39 40 35 33 30 27 26 25 27 27 25 24 24 22 22 22 21 20 20 18 16 20 50 77 94 95 95 94 93 93 92
70 65 61 79 80 79 85 87 82 78 77 40 40 41 38 36 33 30 31 28 26 28 27 25 26 24 23 22 22 21 19 17 17 26 75 87 93 93 93 94 93 92 94
69 66 65 64 81 80 85 87 82 80 77 40 40 43 43 41 35 36 33 28 27 27 27 28 27 24 22 22 21 19 17 18 18 60 85 90 93 94 93 93 92 93 92
63 66 63 60 75 79 87 93 83 82 79 46 40 44 45 45 45 43 35 34 29 27 27 26 24 22 23 22 19 16 15 15 17 20 59 91 92 93 93 94 93 93 91
59 63 70 66 68 84 88 96 87 84 79 58 42 46 47 47 47 46 43 37 32 29 26 24 23 24 23 20 17 16 17 18 16 16 23 79 91 93 95 93 95 92 91
60 59 60 64 64 67 81 98 91 87 83 50 45 48 49 49 49 48 44 37 32 30 26 24 25 24 22 19 18 21 19 17 16 13 14 68 93 96 95 96 94 92 89
63 62 57 59 66 67 86 99 88 88 81 57 48 50 51 50 49 48 44 38 30 27 26 26 25 24 22 22 23 24 21 18 15 12 12 16 64 85 94 95 95 92 91
57 58 60 62 63 76 100 97 81 78 62 62 53 52 63 55 47 42 41 32 29 33 33 28 26 23 23 23 23 24 23 22 24 22 18 20 40 87 96 96 95 94 90
51 55 59 61 70 100 100 93 72 64 58 55 65 74 53 51 45 39 33 30 31 36 42 36 30 25 26 24 26 29 28 32 29 28 27 32 74 92 97 96 95 94 100
64 66 71 80 98 99 97 86 64 63 73 74 77 87 62 48 43 35 32 34 34 36 40 36 33 31 30 32 28 27 29 32 29 28 26 29 78 99 100 100 99 98 95
91 99 96 100 100 98 91 61 68 80 76 88 87 84 54 46 37 38 44 45 42 34 39 39 39 40 46 46 45 48 43 39 35 28 31 40 94 99 99 100 100 100 99
100 100 100 100 99 84 64 74 82 84 97 88 74 48 45 47 68 81 83 40 30 32 39 47 53 61 65 67 67 60 56 44 38 35 42 50 58 61 95 100 100 100 100
100 100 100 96 83 76 83 81 88 91 86 87 80 63 92 99 99 72 32 28 33 40 48 62 69 74 86 80 78 72 69 62 52 57 48 56 63 64 68 61 64 61 64
100 100 99 84 78 78 86 92 90 89 91 96 99 100 99 77 27 23 30 37 50 66 78 77 85 92 90 89 86 82 80 64 77 73 53 62 74 66 58 56 59 58 56
96 89 80 76 82 91 95 96 99 100 100 100 99 64 27 23 22 24 28 37 59 84 88 93 94 96 97 94 91 82 84 90 99 82 73 70 74 66 61 63 58 56 56
88 87 92 94 94 96 100 100 99 99 97 63 30 24 20 21 22 25 25 28 39 56 85 97 98 94 92 86 91 93 95 99 100 88 79 76 76 66 62 63 58 57 56
94 94 96 100 100 100 100 100 99 74 37 29 25 24 23 25 26 23 32 68 76 88 92 92 88 84 91 95 97 99 99 97 89 78 76 94 76 69 74 62 56 55 56
100 100 100 100 100 100 87 43 40 34 31 33 27 28 33 34 27 22 60 93 99 89 83 78 74 84 86 99 100 90 81 88 88 84 73 89 74 86 80 65 60 59 63
100 99 99 97 63 43 41 38 33 34 30 27 29 32 36 26 26 83 99 100 100 85 78 87 73 63 65 69 76 83 88 98 99 100 83 94 88 92 98 83 80 78 71

GFSMA_850_rhum_045.txt.gz
RH
52 66 69 63 56 49 58 62 66 67 67 66 66 67 44 28 23 19 20 22 23 26 26 25 22 20 17 13 15 14 11 10 10 10 10 10 10 10 10 10 10 10 10
48 59 69 70 69 50 56 64 69 70 69 67 68 70 50 27 20 18 18 19 21 24 26 25 21 17 17 18 14 13 12 12 12 12 12 12 12 12 12 11 12 12 13
42 47 60 67 70 67 56 62 70 73 71 70 70 72 56 27 22 20 19 19 20 22 24 22 18 19 17 15 15 14 14 14 14 13 13 13 12 12 11 11 11 11 11
45 42 50 59 68 72 65 60 72 78 74 74 74 75 64 29 25 22 20 20 20 21 21 20 20 17 16 15 15 15 16 16 15 14 14 13 12 12 12 12 12 12 12
61 50 46 53 65 74 78 69 76 82 79 76 77 78 68 31 28 25 23 21 21 21 20 20 18 18 16 16 16 17 17 17 17 16 15 14 13 12 12 18 32 46 55
77 69 59 53 63 70 79 82 80 88 85 79 78 78 67 34 31 28 25 20 21 20 20 20 21 20 19 18 18 18 19 18 18 18 17 16 16 22 22 33 90 95 95
70 77 72 64 55 62 66 77 80 90 90 84 79 77 63 36 34 31 27 22 22 22 21 22 22 21 21 20 20 20 20 19 19 19 18 21 28 38 75 93 95 94 94
59 66 71 70 63 56 64 78 78 82 92 87 79 75 51 43 35 35 31 26 24 24 23 25 26 24 24 24 24 22 21 20 20 18 17 26 51 92 94 94 94 93 93
59 58 60 61 69 71 67 71 72 75 88 90 83 74 52 40 36 36 35 30 28 28 28 28 28 28 27 26 26 25 22 21 20 18 17 39 83 94 94 94 93 95 93
51 56 57 62 64 66 77 75 72 75 85 94 88 82 77 59 38 36 36 35 32 30 32 31 30 30 30 28 28 26 23 22 20 17 16 19 51 91 94 94 94 93 92
45 52 59 62 60 62 65 70 79 79 82 94 94 85 76 70 67 39 38 38 37 33 35 33 33 32 32 30 29 26 25 23 20 18 16 15 19 50 91 94 95 94 96
43 49 51 63 63 61 61 62 68 85 85 91 97 93 87 83 71 43 42 41 41 39 37 35 35 34 32 32 28 27 26 23 20 18 16 15 21 52 90 95 96 96 96
44 43 45 54 65 64 65 64 64 73 88 91 98 96 92 87 62 46 43 43 43 49 42 38 36 34 32 30 29 28 26 23 20 18 16 14 13 9 10 25 75 93 96
49 50 49 50 52 60 69 69 68 66 88 96 98 98 93 66 59 48 49 48 71 78 42 37 38 35 32 31 30 28 28 24 21 19 16 12 8 7 8 11 51 92 96
34 42 56 62 57 58 64 69 69 69 74 100 100 98 93 73 58 57 56 71 80 50 54 46 39 36 36 43 44 35 26 23 23 21 14 10 10 12 14 34 63 94 97
33 38 54 70 71 72 69 73 83 91 100 100 100 98 92 77 66 65 76 79 74 61 44 42 47 54 59 85 81 36 26 27 27 22 21 18 16 20 56 86 95 96 96
42 46 55 77 92 94 95 100 100 100 100 100 100 96 81 66 72 82 88 73 74 69 69 86 96 100 98 85 38 26 29 29 28 25 23 19 20 21 76 96 96 96 95
54 60 70 84 99 100 100 100 100 100 100 100 94 82 68 71 83 82 91 92 94 97 100 97 98 98 73 29 25 28 24 29 33 32 27 18 16 28 41 58 97 100 100
86 97 84 99 99 99 100 100 100 100 100 92 76 72 78 87 93 98 100 100 99 99 99 99 92 41 33 34 36 34 37 36 35 27 17 22 32 44 48 52 97 99 98
99 100 98 95 98 100 100 100 100 96 80 78 83 89 97 100 99 100 100 99 100 99 82 43 45 52 54 47 46 46 46 51 52 33 29 45 54 53 52 53 56 56 58
99 100 100 100 100 100 100 96 78 73 80 88 96 99 99 100 100 99 100 97 70 31 30 56 64 58 54 49 61 84 92 82 83 51 55 49 50 52 50 53 54 54 54
100 100 100 100 98 84 85 88 91 90 95 100 99 100 99 99 100 84 41 28 32 32 37 57 63 54 67 68 92 96 97 100 97 77 68 78 81 62 57 58 57 56 55
100 99 96 93 93 95 98 100 100 100 99 99 100 100 97 66 27 28 32 28 26 26 42 71 66 78 96 91 74 75 88 100 100 86 79 82 64 61 60 57 55 54 52
99 98 99 99 100 100 100 100 99 99 99 99 77 34 30 31 33 30 23 19 23 29 51 76 87 75 59 70 98 99 94 96 89 72 79 98 62 71 71 61 55 54 56
99 99 99 99 99 99 100 100 100 86 40 34 32 31 32 25 17 17 29 58 71 78 72 62 44 46 58 59 70 80 79 89 88 75 78 87 76 92 75 62 61 62 62
99 99 99 100 100 98 70 39 34 35 33 31 27 24 17 15 20 49 98 95 89 66 44 36 35 40 61 69 74 82 87 90 92 94 89 94 84 96 100 80 72 69 63

GFSMA_850_rhum_048.txt.gz
RH
93 96 97 96 92 93 94 93 66 64 64 64 65 65 64 39 31 62 82 31 30 26 26 24 22 20 18 13 14 14 11 10 10 11 11 12 12 12 12 11 11 11 11
65 74 93 98 96 94 92 79 63 66 67 66 66 66 66 49 29 36 70 60 26 25 26 28 23 20 16 17 14 13 12 12 12 13 13 12 12 12 12 12 12 12 12
56 55 68 94 94 95 78 63 61 64 67 68 68 68 69 60 29 26 24 72 42 26 25 25 21 17 18 15 14 14 14 14 14 13 13 13 12 12 12 12 12 12 12
56 54 69 93 96 97 79 60 57 63 69 70 70 71 72 68 34 26 24 22 31 51 23 23 20 19 17 16 15 15 16 16 15 14 14 14 13 12 12 11 11 13 16
76 68 64 85 95 94 80 71 62 62 72 76 73 73 74 72 43 28 26 23 22 22 30 19 20 18 17 16 16 16 17 17 17 17 15 14 13 12 12 12 27 40 51
64 78 73 80 88 86 84 74 74 69 76 82 78 75 75 74 57 31 29 26 24 20 21 19 19 19 19 18 18 18 19 20 19 18 17 16 15 14 16 22 42 94 95
64 67 70 75 68 65 85 68 75 82 78 86 83 77 75 74 65 36 32 29 27 22 22 20 21 22 21 21 20 21 22 22 21 19 18 17 16 17 34 60 94 96 95
55 61 61 65 71 71 77 77 72 81 87 88 86 67 61 65 71 53 34 32 30 24 23 22 23 25 25 24 24 24 25 24 22 20 19 17 19 44 75 95 94 94 94
50 54 54 58 63 72 69 64 59 65 89 83 90 75 68 65 54 53 41 35 33 29 26 26 25 27 29 28 27 27 27 27 24 22 20 17 20 28 75 93 94 94 93
35 47 57 52 56 58 62 66 64 61 83 83 87 88 79 58 46 46 40 36 35 32 30 28 29 30 32 33 30 29 30 29 25 24 21 17 17 22 51 90 94 94 93
34 36 38 55 54 58 59 59 68 68 68 85 74 83 87 82 65 52 47 45 40 35 34 32 32 33 34 35 33 32 31 29 26 25 21 18 17 19 64 94 95 95 95
46 42 45 47 56 57 58 59 63 72 77 82 84 84 85 88 82 74 55 57 41 39 38 36 34 36 35 36 34 33 32 29 28 25 22 20 19 29 44 57 65 88 94
51 42 48 56 57 56 54 56 60 63 73 89 92 86 87 90 93 88 73 69 46 43 42 41 38 38 42 50 38 34 31 30 29 26 26 20 17 15 13 10 24 47 78
97 52 50 53 60 65 67 73 68 62 68 76 96 95 93 93 98 94 88 73 49 45 48 44 58 77 80 42 36 34 34 32 35 40 25 19 16 13 9 7 7 7 25
50 46 52 53 70 72 74 74 75 70 69 77 91 96 97 96 99 96 86 67 54 49 58 78 86 57 45 44 37 39 41 66 77 53 26 18 13 10 9 7 7 7 21
40 41 36 42 46 62 86 99 96 97 98 99 100 100 100 100 98 85 75 57 51 63 78 77 70 76 56 55 58 84 98 98 89 45 21 14 12 11 10 10 11 38 87
35 34 43 58 64 68 91 97 100 100 100 100 100 100 100 100 90 97 84 68 70 79 86 92 86 92 96 99 100 99 99 81 36 26 18 12 12 12 14 14 36 89 97
38 47 43 56 96 99 99 97 99 100 100 100 100 100 100 100 96 80 80 83 88 94 96 99 100 100 99 99 100 94 50 31 24 19 16 18 16 13 16 21 48 96 96
92 67 86 58 96 98 99 100 100 100 100 100 100 100 99 90 87 91 95 97 98 99 99 100 100 99 98 80 38 36 30 31 26 29 23 14 16 23 32 37 47 74 92
99 90 97 85 92 97 98 98 100 100 100 100 99 95 90 88 93 98 100 99 99 100 98 98 98 83 48 37 38 46 77 83 82 73 36 28 40 41 41 43 45 46 48
100 85 85 100 96 100 100 100 100 100 100 94 87 90 96 100 100 100 100 100 98 98 87 46 53 78 95 90 83 84 90 88 80 62 69 83 88 85 84 62 47 46 47
100 99 100 100 99 100 100 94 87 82 85 89 93 100 100 100 100 99 99 87 53 32 34 58 88 91 88 85 87 90 93 93 91 78 95 96 88 82 66 53 50 51 52
99 100 100 96 93 97 96 97 100 100 100 100 100 100 100 100 96 75 37 28 25 25 26 67 94 87 88 92 94 69 99 98 100 94 98 93 74 90 70 70 58 54 54
100 99 100 100 100 100 100 100 100 100 100 100 99 96 67 39 31 30 26 20 20 30 46 75 91 93 96 95 97 97 98 100 99 95 98 96 86 92 82 68 54 52 52
99 99 100 100 99 99 100 99 99 98 76 39 31 31 30 24 18 16 30 52 66 94 77 63 46 40 40 39 49 77 78 100 100 96 93 90 79 99 78 61 56 57 58
99 99 99 99 99 98 74 36 34 31 30 26 24 18 15 19 23 58 99 100 98 89 75 46 72 42 46 64 68 72 78 87 95 87 92 82 76 100 100 77 79 78 68

GFSMA_850_rhum_051.txt.gz
RH
86 89 88 87 85 86 88 92 92 82 71 62 60 60 59 57 55 67 78 64 28 27 21 20 20 20 17 14 13 14 11 11 11 11 12 12 12 12 12 12 12 12 12
86 88 87 88 88 84 85 86 88 84 70 62 59 60 58 56 53 61 71 59 30 23 21 21 21 20 17 14 14 13 12 12 12 13 13 12 12 12 12 12 11 11 11
76 87 88 87 89 90 88 87 86 82 69 60 57 61 63 62 57 53 60 75 45 22 22 23 22 20 17 16 14 13 13 14 14 14 13 13 12 12 12 11 11 11 11
73 79 82 86 87 91 95 90 90 84 69 61 62 60 63 67 65 51 52 58 65 38 26 21 22 20 17 16 15 14 15 16 15 16 15 14 13 12 11 11 10 10 11
96 91 86 85 87 89 92 94 92 84 70 64 62 60 64 68 70 60 44 39 44 54 41 23 20 19 18 16 17 15 17 18 18 19 19 17 15 13 12 11 10 13 22
87 93 92 92 90 89 91 98 94 89 71 66 64 61 66 70 71 69 49 39 36 29 36 29 21 18 18 18 18 17 18 20 20 21 21 20 18 14 13 13 17 27 66
91 98 90 92 94 91 89 91 96 93 78 73 68 65 65 72 73 72 64 41 37 32 27 24 21 19 19 20 20 20 20 21 23 23 22 20 18 16 18 32 55 90 95
78 77 86 80 81 83 90 96 96 91 85 77 69 68 68 68 75 73 69 53 37 35 31 25 22 22 22 23 22 23 23 24 25 26 24 22 20 21 41 77 95 95 94
87 100 81 82 85 94 89 84 94 92 81 77 76 72 72 68 61 61 67 63 42 40 38 30 26 24 23 25 26 26 26 27 28 29 27 25 23 19 20 45 91 93 95
52 59 72 94 97 100 99 90 85 92 93 80 76 80 71 64 65 57 58 56 50 42 41 37 30 29 27 28 29 30 30 29 29 30 29 26 24 20 25 38 66 94 94
81 56 56 84 93 95 94 100 100 93 82 90 71 72 81 77 64 56 55 52 45 41 40 42 35 35 31 31 32 34 33 32 31 32 30 29 25 24 26 46 67 89 94
92 96 91 84 94 98 100 100 100 98 86 89 90 79 73 78 78 77 69 62 58 52 46 43 39 38 35 34 35 37 36 34 33 33 30 30 28 29 32 26 19 17 18
85 83 77 76 86 93 100 100 100 100 98 97 94 88 82 82 86 80 80 73 65 66 57 50 42 41 40 38 39 39 41 46 35 33 31 29 37 59 38 22 17 13 12
86 90 95 84 68 64 95 100 100 99 100 100 99 100 92 88 91 92 88 85 77 72 83 54 49 53 45 44 42 45 76 54 36 32 32 42 84 84 55 22 13 9 8
80 88 91 100 87 65 83 99 100 99 100 100 100 100 99 100 99 100 97 92 97 86 71 55 54 51 54 46 64 88 72 47 52 46 57 89 92 71 31 18 9 7 6
77 83 90 93 99 86 87 96 99 100 100 100 100 100 100 99 99 100 100 99 84 72 74 87 86 75 79 86 78 74 74 76 83 94 99 98 77 26 11 8 7 7 10
44 46 52 72 86 79 75 84 99 100 100 99 100 100 100 100 100 100 100 92 78 82 98 92 86 87 88 88 89 94 99 99 99 99 84 35 16 10 9 10 9 13 16
46 45 53 67 82 95 100 100 99 100 99 100 100 100 100 100 100 100 97 93 97 94 92 92 100 98 100 100 100 99 98 97 77 38 20 11 10 13 11 10 12 17 37
63 72 76 90 98 100 100 100 100 99 99 100 100 100 100 100 100 100 99 93 91 97 97 100 99 100 100 99 99 97 88 46 24 26 28 31 21 14 17 26 33 43 69
99 98 100 100 100 95 98 100 100 97 99 100 100 100 100 99 97 94 93 96 98 99 100 100 99 98 97 82 50 34 39 66 68 36 35 33 24 36 41 45 42 45 46
98 100 99 100 99 100 100 98 100 100 98 100 100 98 95 96 98 99 100 98 100 98 97 99 88 52 48 74 84 79 80 71 57 28 61 40 63 53 52 45 48 54 60
98 98 98 99 100 98 100 99 99 99 95 95 95 98 99 100 100 99 100 98 98 96 86 38 44 82 73 82 82 84 83 74 44 52 78 56 64 60 51 51 54 59 74
100 100 100 94 99 99 100 97 99 96 100 100 100 100 100 99 98 97 83 44 24 27 29 40 64 83 85 84 86 70 68 72 70 58 82 53 60 66 54 53 54 55 57
95 95 94 98 99 99 100 100 99 99 98 100 99 99 91 60 34 27 24 24 25 26 33 52 71 64 78 85 88 91 92 77 70 78 98 79 62 64 56 54 54 54 53
95 93 96 96 99 99 98 99 99 95 72 42 30 28 28 25 21 16 15 35 43 72 96 74 49 42 35 33 34 34 49 73 73 68 67 82 67 84 64 52 51 52 58
91 94 90 83 82 55 29 24 24 24 23 21 19 16 14 16 19 22 35 74 95 93 84 58 59 65 41 47 60 64 65 70 83 90 91 82 80 86 96 60 62 63 57

GFSMA_850_rhum_057.txt.gz
RH
54 72 71 59 43 38 33 40 49 63 64 52 50 54 54 53 53 50 51 49 51 52 31 14 12 13 14 13 11 11 11 11 11 11 11 12 12 12 12 12 12 12 12
66 76 75 65 64 63 59 50 65 78 78 67 65 56 54 54 54 53 52 52 49 47 42 19 14 13 13 14 12 12 12 12 12 13 13 13 13 13 12 12 12 12 11
76 76 79 70 70 82 80 74 81 92 92 88 82 60 55 57 57 54 54 55 52 47 38 27 17 16 13 14 13 13 13 13 14 15 16 16 16 15 14 13 12 12 11
84 76 76 77 72 82 89 88 79 83 90 90 86 73 56 55 57 58 58 58 57 51 41 34 24 19 15 14 14 14 14 15 17 17 18 19 19 19 17 15 14 12 12
87 83 75 71 74 77 82 90 90 84 79 81 85 83 68 56 54 58 60 60 61 58 49 36 29 25 18 16 15 15 16 17 20 21 23 25 24 24 22 20 19 16 15
90 74 75 72 78 77 78 81 84 91 88 80 84 84 78 63 57 57 60 64 64 62 58 44 34 31 24 18 16 16 17 18 20 23 26 29 30 29 28 27 24 24 24
76 91 82 79 75 84 82 79 79 90 92 89 91 91 86 70 63 59 59 64 66 66 64 57 41 34 31 23 20 18 17 19 20 23 26 29 32 33 33 34 31 31 35
75 71 73 91 84 88 91 84 86 87 86 90 94 93 81 72 69 62 59 60 66 68 68 65 55 38 34 31 24 21 19 20 20 21 24 26 30 34 35 35 35 34 34
68 62 76 82 82 86 85 88 89 90 75 72 77 90 77 72 65 60 59 58 63 69 69 68 63 50 39 36 29 24 22 22 22 22 24 26 28 31 33 33 35 34 36
77 73 66 72 80 80 85 82 86 87 80 80 85 98 92 74 65 63 59 58 62 68 67 65 62 57 47 41 36 30 30 29 27 25 26 27 29 30 30 31 34 39 48
80 83 84 73 67 70 76 82 89 86 88 98 92 94 97 93 82 73 67 63 62 62 66 66 63 60 55 48 43 40 40 40 43 41 40 60 45 34 34 36 53 63 51
52 63 78 80 83 83 84 83 85 87 97 100 100 100 99 98 94 85 77 71 68 66 65 62 66 70 67 66 55 53 53 55 63 61 58 82 67 48 46 42 55 46 40
49 68 76 82 87 86 83 84 91 89 88 90 97 98 100 100 97 94 94 81 71 70 69 71 70 73 79 78 76 66 63 86 72 68 67 59 62 66 47 45 37 39 61
50 52 70 78 73 83 85 86 82 93 96 93 93 95 92 92 97 98 92 98 89 78 73 80 80 75 84 80 77 77 86 93 98 86 87 85 84 88 64 56 49 62 81
48 49 54 63 72 74 80 92 94 81 92 94 95 95 96 98 98 99 100 100 100 99 95 94 89 85 76 72 81 89 98 93 97 95 97 96 92 86 93 79 83 98 94
50 47 46 49 57 70 82 84 91 95 97 97 96 88 90 90 96 99 99 100 100 100 100 100 92 84 81 88 97 97 99 100 99 100 99 96 99 100 99 99 100 90 65
56 57 54 50 48 52 62 86 80 87 99 98 98 99 96 100 100 100 100 100 99 94 100 99 100 99 99 95 100 100 97 100 100 100 97 100 100 100 100 96 67 52 52
66 64 63 58 56 55 59 80 96 98 97 98 97 100 98 100 99 98 100 99 99 100 100 100 98 96 100 97 100 100 100 98 100 99 99 99 98 93 68 54 67 47 46
81 85 89 79 95 100 98 98 98 98 99 99 98 98 100 100 100 99 100 100 99 98 97 100 100 100 100 100 100 100 98 98 99 99 98 89 62 61 44 29 27 38 65
86 89 91 93 96 98 98 98 98 98 100 99 100 99 99 100 100 99 100 100 99 99 99 100 100 100 100 99 100 100 100 98 80 52 51 41 41 32 21 27 36 46 46
82 84 92 88 85 89 89 92 98 99 99 99 100 100 99 99 100 100 100 100 100 100 100 99 98 98 99 99 91 71 59 53 45 52 41 28 24 25 39 47 48 49 49
91 88 87 86 84 84 87 84 92 97 98 98 99 99 99 98 99 100 100 99 99 100 99 99 92 76 66 66 63 62 62 70 63 55 31 22 38 44 49 50 50 51 52
89 83 83 81 83 87 89 92 94 93 95 96 96 97 98 98 100 99 97 90 66 40 32 30 36 42 48 51 55 66 77 72 60 36 39 36 48 46 52 51 54 55 56
84 86 86 88 86 89 89 86 86 86 90 89 83 78 68 56 40 30 28 24 21 22 23 24 29 40 46 56 60 60 51 38 29 27 54 52 48 49 53 53 51 51 52
80 80 77 60 35 23 20 19 19 19 19 18 17 16 15 15 14 12 12 16 24 36 42 50 63 56 47 46 47 38 31 34 45 56 59 64 62 56 51 49 53 56 53
26 27 25 20 16 13 9 9 9 10 11 11 13 15 17 17 19 24 26 33 42 52 58 61 52 39 40 39 39 47 60 65 72 70 72 72 70 67 58 49 52 54 51

GFSMA_850_rhum_060.txt.gz
RH
43 46 53 60 56 41 32 33 37 43 47 52 47 47 47 51 52 55 53 50 52 47 46 39 19 13 13 12 12 10 11 11 10 10 11 11 12 12 12 12 12 12 12
69 65 59 61 65 62 60 58 45 54 62 64 61 54 50 50 51 54 54 52 50 52 49 42 29 16 14 14 13 12 12 11 11 12 12 13 13 13 13 13 12 12 12
75 75 68 67 69 68 67 71 72 66 67 79 78 77 74 61 51 50 52 53 53 54 53 46 34 23 17 14 14 13 12 13 13 14 14 15 15 15 14 14 13 13 12
85 82 79 69 71 76 76 79 80 78 74 79 86 85 82 81 57 51 52 55 55 56 57 54 43 32 22 19 17 14 14 14 14 16 16 17 18 18 17 15 14 13 13
85 84 81 73 75 75 76 78 82 88 87 82 80 87 90 87 78 60 53 55 57 58 59 59 53 41 30 24 24 31 16 16 16 17 18 20 22 22 21 19 18 17 17
81 90 85 77 85 85 81 78 76 84 92 90 91 86 86 88 87 80 65 55 56 59 60 62 60 52 37 31 27 62 54 18 17 18 20 23 25 25 25 25 24 23 24
87 80 77 77 71 82 79 83 85 82 86 92 96 93 92 90 89 84 80 65 56 56 60 63 63 61 50 38 36 34 72 53 20 19 21 23 26 28 27 28 28 31 38
80 80 79 78 78 78 79 80 92 94 91 86 89 97 94 90 89 80 82 74 62 58 58 62 64 64 61 49 42 36 34 64 59 26 22 23 24 27 28 32 41 51 60
85 88 86 74 69 80 77 83 87 93 96 92 91 97 92 88 79 70 66 67 66 63 59 59 65 68 64 60 52 46 42 40 62 77 60 42 26 28 33 52 65 64 64
48 57 66 70 76 70 79 79 79 82 87 93 94 94 100 93 82 72 66 63 60 61 60 58 61 66 68 66 61 53 51 45 44 50 87 82 67 79 83 81 93 96 97
50 69 79 77 75 76 73 74 78 79 79 86 94 88 90 100 100 98 90 86 79 74 69 64 62 63 65 68 64 68 58 50 47 47 59 86 93 94 97 95 98 98 100
38 44 49 58 70 72 75 83 85 84 87 93 92 95 99 100 98 100 98 95 93 86 84 77 73 77 69 68 69 68 76 75 71 64 65 71 93 100 95 97 99 98 99
39 39 45 63 73 74 82 86 86 87 87 88 84 92 92 99 99 99 97 97 100 98 86 79 73 74 78 73 78 85 94 99 98 97 80 86 91 92 90 75 77 80 97
51 47 46 48 63 76 79 76 82 87 91 86 86 78 87 86 94 100 100 100 100 100 88 84 76 80 82 90 85 80 94 96 96 92 91 95 97 99 97 94 98 100 99
57 55 51 49 52 58 65 69 71 79 92 92 82 82 93 98 97 92 99 100 100 100 97 85 96 96 92 90 88 99 96 96 90 94 100 100 99 100 100 100 100 100 100
60 59 55 50 47 49 54 60 67 76 86 91 67 98 98 100 100 99 99 100 100 100 95 84 95 94 100 99 97 95 96 90 98 98 100 99 98 100 100 100 99 99 99
54 54 55 57 55 53 52 54 66 75 76 64 88 99 98 98 98 98 97 93 99 100 99 98 99 96 97 98 98 97 98 100 100 100 100 100 100 100 100 99 100 99 99
72 73 71 69 64 64 64 67 68 68 76 96 97 98 97 96 99 100 100 100 100 100 100 100 100 100 100 100 99 100 98 100 100 100 100 100 100 99 99 99 98 98 98
82 83 85 88 87 87 96 96 100 99 99 98 97 96 98 98 99 99 99 99 99 99 98 99 100 100 100 100 100 98 100 100 100 100 99 99 98 98 99 92 83 67 70
82 82 84 86 88 91 96 96 94 98 97 98 98 98 99 99 99 98 98 99 98 98 99 98 99 98 100 100 99 100 99 99 99 98 95 76 53 45 42 38 30 25 29
76 80 85 84 82 83 84 88 89 100 99 95 99 99 99 99 97 96 95 98 99 100 99 100 99 99 100 98 98 99 99 94 72 58 51 42 39 35 24 25 30 40 45
85 84 82 79 76 75 77 77 84 88 92 94 93 94 97 98 98 97 97 98 98 97 97 98 97 97 94 83 72 63 62 54 53 47 40 32 32 20 32 41 46 47 48
82 79 78 76 73 74 78 80 84 86 88 88 91 91 95 97 99 97 91 78 46 35 34 35 41 48 56 54 52 52 54 62 62 63 39 18 33 45 52 52 53 54 55
82 80 72 53 32 21 18 16 17 17 19 23 25 24 23 21 20 18 19 19 20 24 29 31 37 45 48 53 57 60 63 59 47 36 34 39 48 48 53 55 52 51 54
66 38 18 16 14 11 8 7 8 9 10 10 11 12 13 16 18 15 16 18 22 30 43 48 56 64 65 66 84 56 50 45 35 51 62 61 54 52 50 49 49 52 54
21 18 14 11 10 10 9 9 8 10 12 13 14 18 22 23 24 24 22 22 21 26 34 40 51 51 38 41 49 45 52 63 69 61 64 70 61 60 52 51 54 54 56

GFSMA_850_rhum_063.txt.gz
RH
30 33 45 49 55 54 41 33 32 36 42 46 49 47 47 46 47 50 53 55 54 55 56 54 47 36 17 13 13 12 11 12 11 10 11 12 12 12 13 14 13 13 13
64 60 56 56 58 60 61 60 59 46 50 56 64 62 56 51 49 52 54 56 56 54 56 58 54 45 29 17 14 14 13 13 12 12 13 13 14 14 14 14 13 14 14
74 75 74 69 66 69 72 72 71 72 69 70 71 75 78 75 74 70 57 55 57 55 54 58 58 54 42 26 20 14 14 14 14 13 14 14 15 15 14 14 14 14 14
80 80 80 74 77 77 76 78 78 77 78 80 80 77 77 80 81 81 81 63 54 55 55 56 58 59 53 42 31 28 15 14 14 14 16 15 16 17 16 16 15 14 14
77 82 77 75 82 87 84 81 82 85 81 81 85 87 89 88 85 85 83 81 71 57 54 56 58 60 61 53 41 56 40 16 15 15 16 17 18 19 19 17 16 16 17
85 88 88 86 89 94 92 90 87 86 86 84 87 89 91 93 93 91 89 86 80 76 63 55 57 60 62 62 54 65 97 77 30 17 18 19 20 22 22 21 21 20 21
92 93 94 94 94 94 90 84 90 92 91 91 92 91 89 90 91 89 89 91 88 83 81 67 57 58 61 64 62 53 74 99 97 59 26 21 23 25 24 25 28 29 42
93 91 89 87 84 84 80 78 83 93 93 92 98 97 98 93 86 81 78 79 76 79 81 85 68 60 62 65 65 62 52 78 98 96 64 42 29 30 32 41 46 67 92
78 84 84 86 85 86 85 68 76 88 90 92 96 99 96 86 84 83 78 73 70 67 66 72 73 64 62 65 68 67 63 56 78 97 98 89 70 56 54 79 95 96 99
44 45 47 55 67 70 65 73 72 80 85 86 90 92 100 100 100 98 94 85 76 70 70 70 72 70 68 65 65 69 69 68 67 91 95 96 96 95 95 94 99 98 97
39 40 41 49 59 74 74 74 74 77 82 89 85 93 98 100 99 100 100 91 96 93 90 86 84 79 73 70 79 80 81 88 85 93 93 90 92 95 99 98 96 99 96
36 35 35 37 46 60 72 71 73 89 88 87 88 90 96 97 100 100 99 98 97 86 81 89 96 89 94 86 80 87 100 100 90 88 98 96 88 89 86 85 87 90 89
50 53 53 52 57 68 72 84 86 90 86 86 87 90 95 94 84 95 96 98 100 94 94 91 89 85 74 86 82 86 96 100 99 98 95 86 96 93 90 95 96 99 100
59 56 57 60 61 61 70 83 86 88 89 91 92 98 98 87 86 86 84 99 99 98 89 92 92 88 91 79 90 88 92 96 98 100 99 96 100 98 98 100 100 99 98
64 61 58 56 53 52 53 57 67 80 91 100 100 100 92 82 80 91 87 98 99 99 98 80 94 79 78 79 86 100 98 93 99 99 100 98 100 100 100 100 100 98 99
58 57 56 56 56 53 51 51 57 67 74 81 81 81 79 70 91 99 98 100 91 99 100 99 96 94 92 96 96 99 97 100 100 100 100 100 100 100 100 99 100 100 99
59 62 62 61 58 58 59 58 57 58 62 63 68 66 74 92 95 96 94 91 95 97 100 98 99 100 99 100 100 99 100 100 99 100 99 100 100 100 100 99 100 100 100
72 74 73 70 71 70 67 70 69 70 74 80 88 98 96 96 93 96 94 93 93 99 99 100 100 98 98 98 98 99 100 99 100 100 99 100 99 98 98 98 100 100 100
82 78 79 84 82 81 80 84 86 83 98 98 98 98 96 92 95 94 94 96 91 88 90 95 97 99 100 100 100 98 100 98 99 100 100 100 99 98 99 100 99 100 100
83 80 84 86 85 84 91 93 90 95 98 98 98 96 99 99 96 98 96 93 92 94 93 93 97 99 99 99 100 100 100 99 99 99 100 98 96 93 88 83 71 48 40
84 83 82 82 79 82 84 85 88 100 99 94 97 98 98 98 97 97 96 97 97 96 96 98 100 98 98 99 100 100 99 100 99 89 76 61 51 43 38 33 25 21 23
84 82 78 74 72 73 77 78 81 82 85 87 90 91 93 94 94 95 96 95 93 93 92 93 93 96 95 94 87 80 72 63 54 48 38 32 32 25 22 17 16 20 32
79 76 74 72 60 53 50 40 32 30 30 34 44 52 56 58 61 56 46 29 26 24 23 23 26 30 34 37 39 37 44 49 52 46 37 19 19 14 22 30 40 44 45
79 73 46 20 13 10 9 7 7 7 8 8 9 10 10 10 11 10 11 13 16 20 24 28 32 33 32 30 32 33 33 34 35 33 32 21 25 44 51 50 50 50 53
53 19 13 10 8 6 6 6 6 7 8 9 10 11 12 15 19 16 17 19 22 29 45 50 54 56 54 56 60 50 49 46 34 32 49 58 50 49 51 51 51 51 52
19 13 9 8 7 7 7 8 8 9 9 10 12 14 17 19 21 22 20 21 22 23 30 41 50 51 50 42 47 56 53 54 67 62 63 68 64 61 52 48 49 58 59

GFSMA_850_rhum_066.txt.gz
RH
44 28 32 39 45 52 51 45 39 35 36 42 47 49 50 50 52 53 53 55 54 55 57 58 57 57 51 36 18 15 13 11 11 10 10 11 12 13 14 15 15 15 14
56 56 53 53 56 62 66 66 64 63 60 51 55 55 62 64 59 55 60 60 57 54 54 57 58 59 58 52 35 20 15 13 13 12 12 12 13 14 14 14 14 15 14
74 75 76 75 72 71 73 74 74 72 70 72 71 71 71 73 77 78 78 80 78 65 55 54 55 57 60 61 54 39 26 16 15 14 14 14 15 16 15 15 15 14 15
78 79 80 81 83 84 83 79 79 80 79 80 78 78 82 84 85 83 83 81 80 82 75 60 54 55 58 60 62 66 52 32 21 17 16 17 17 17 17 17 18 17 16
78 80 80 80 88 90 91 93 93 90 87 85 86 87 87 90 90 92 90 88 88 87 86 81 69 57 57 61 65 73 99 87 46 24 18 18 17 18 19 18 18 18 22
83 85 87 89 92 94 95 96 95 93 92 90 91 90 90 91 92 92 91 90 90 87 88 87 84 78 60 59 62 68 81 99 96 62 29 18 19 19 20 21 21 21 26
88 91 92 93 94 94 92 91 91 87 86 89 98 94 89 92 94 90 85 84 84 82 83 86 89 83 82 65 63 66 69 86 96 98 73 33 23 23 24 32 44 43 43
94 92 95 95 94 93 87 86 89 92 84 77 98 97 94 89 84 80 81 78 77 79 79 82 84 79 75 75 65 65 70 72 93 98 100 89 78 51 48 66 88 92 94
92 91 90 84 86 89 91 93 90 88 79 77 91 98 95 88 81 83 82 79 92 82 83 78 74 74 77 75 70 68 71 76 77 97 99 98 96 94 93 93 96 97 99
44 45 47 50 49 52 62 78 86 79 86 76 80 86 93 99 98 97 95 86 84 78 80 85 89 85 84 81 80 78 72 84 92 89 89 100 97 95 93 92 93 97 96
36 39 41 42 43 48 55 66 77 89 84 84 90 97 93 99 92 100 99 93 91 87 90 97 83 85 88 91 96 94 79 73 85 95 88 91 99 96 97 92 99 99 87
41 40 39 37 35 34 36 49 67 84 86 90 94 92 91 97 97 99 100 99 98 99 82 72 74 82 85 82 88 91 94 85 86 97 96 88 99 100 93 97 92 88 87
50 51 50 51 51 49 49 51 61 70 86 92 95 89 89 99 100 98 100 98 97 98 98 71 73 79 83 80 86 88 84 92 96 96 94 92 96 88 93 97 95 96 98
58 58 59 58 58 56 55 56 73 89 94 95 95 98 99 99 99 98 99 100 99 99 99 88 80 80 81 80 78 81 83 95 100 98 96 99 98 92 95 96 98 99 99
61 60 60 59 58 57 55 53 57 68 97 99 98 97 97 94 96 92 81 82 95 100 98 97 100 84 95 96 89 90 90 88 88 99 99 99 98 99 99 99 100 99 100
55 54 54 54 54 55 58 60 60 70 82 88 95 98 96 88 79 82 90 97 93 97 95 97 99 96 96 98 99 93 90 86 86 95 99 97 100 100 100 100 100 100 100
58 60 63 65 65 64 62 62 65 67 68 72 73 74 79 83 90 94 93 90 88 90 94 95 89 98 99 100 99 96 97 95 97 97 99 98 99 100 98 99 100 100 98
71 75 76 73 73 73 74 75 75 76 78 82 86 90 97 94 93 94 89 91 91 90 89 87 88 89 91 92 90 97 100 99 98 100 100 98 99 99 100 99 99 99 99
81 82 80 80 82 83 84 83 82 86 90 98 98 98 97 97 92 90 92 88 86 90 86 86 87 85 90 97 96 98 99 99 99 99 99 98 99 100 100 100 100 99 100
87 86 83 86 85 83 88 93 98 100 98 98 98 98 96 98 95 93 96 94 93 93 92 90 97 98 99 99 99 99 99 100 99 98 99 98 99 98 98 97 97 99 98
92 86 83 81 80 85 87 92 95 100 98 97 98 97 95 95 88 89 90 90 90 89 88 89 91 94 95 98 99 99 99 99 99 96 91 86 80 72 62 52 43 37 34
90 86 80 77 76 78 83 83 84 85 85 86 85 83 86 86 79 74 72 69 67 65 60 60 62 64 56 59 63 63 62 60 56 50 44 39 36 32 29 23 21 21 19
86 80 77 64 46 36 20 12 10 9 8 8 8 8 9 9 9 11 10 10 10 10 11 13 15 18 23 28 38 39 41 42 42 41 37 21 24 20 16 15 20 27 36
82 73 33 13 8 6 5 5 6 6 6 7 8 8 9 10 10 10 11 12 13 15 16 19 22 27 29 34 38 39 42 41 36 31 30 25 20 31 44 44 44 46 48
52 16 10 6 6 6 6 7 7 8 9 9 10 11 11 13 15 12 13 14 16 18 21 24 26 33 41 49 46 33 30 33 22 23 35 45 44 44 44 47 47 49 50
18 10 7 7 7 8 7 8 8 9 10 10 11 13 15 16 16 16 16 17 18 20 23 27 31 29 27 29 31 33 32 34 49 55 58 60 57 54 49 46 48 50 50

GFSMA_850_rhum_069.txt.gz
RH
41 45 28 33 35 43 55 55 50 43 39 41 43 46 50 54 56 55 55 54 56 56 55 57 55 53 54 56 52 35 18 14 12 13 12 13 14 14 15 15 15 16 15
51 56 47 49 53 59 66 69 68 67 67 67 65 65 66 67 70 71 71 71 76 77 68 58 57 58 58 58 60 57 39 21 15 14 13 13 16 20 21 19 18 17 17
76 76 77 78 78 78 75 74 75 75 74 78 75 77 79 80 80 79 78 79 82 84 84 78 65 58 59 61 63 67 64 49 26 16 15 15 15 16 17 19 19 18 19
74 80 82 82 87 88 88 87 87 85 84 84 81 80 84 85 85 84 86 87 88 89 88 87 84 73 62 61 62 70 97 84 61 32 19 16 16 17 18 17 17 19 22
79 79 79 83 88 90 92 93 93 94 93 90 89 85 84 85 87 88 87 88 89 90 89 89 90 86 76 65 65 84 100 100 98 80 55 29 18 18 18 19 19 20 22
89 86 83 84 88 91 93 95 95 95 93 89 86 82 79 80 85 86 83 85 86 85 86 88 94 91 86 79 75 67 79 90 92 99 88 68 41 30 21 24 23 22 26
90 89 87 90 92 92 93 90 88 87 83 82 91 78 69 68 81 85 79 76 74 76 79 84 90 92 87 81 77 77 71 79 85 89 95 90 91 52 43 46 52 46 46
83 84 84 86 87 91 89 88 92 93 92 90 98 89 98 82 79 81 79 81 80 77 79 83 83 81 81 80 77 74 75 72 82 91 99 99 90 85 60 91 95 97 97
78 79 79 84 84 85 77 77 88 97 100 98 88 88 95 80 81 85 84 78 77 79 82 81 76 81 84 83 80 79 76 74 77 91 96 100 100 100 90 88 91 98 98
53 52 50 48 48 50 52 52 61 81 99 96 90 82 81 99 99 91 93 87 85 77 80 79 79 82 88 87 85 83 78 75 80 85 94 86 94 99 99 99 86 95 97
38 38 38 38 39 40 41 41 46 59 80 98 98 89 95 100 100 100 98 91 85 94 81 78 77 76 79 83 86 88 88 97 95 82 93 100 98 99 97 94 88 76 85
42 41 41 41 41 40 40 39 39 43 58 94 100 94 91 99 98 99 94 90 90 86 92 83 78 78 78 77 82 84 88 88 87 89 91 97 99 96 92 94 99 91 89
49 51 51 51 51 50 50 49 47 49 58 71 88 97 99 98 99 100 98 94 94 91 98 90 85 81 82 79 82 75 73 74 72 74 87 98 99 99 90 97 96 97 97
54 55 55 56 57 57 56 55 54 56 78 100 98 99 99 97 95 97 100 100 100 96 88 85 88 87 91 88 87 87 86 89 86 77 73 83 97 99 98 99 97 99 96
56 56 55 54 54 54 55 56 54 54 65 96 96 100 95 95 94 94 94 94 88 99 96 99 90 98 88 86 90 93 94 92 86 80 75 90 95 100 100 100 98 92 97
55 54 53 52 51 51 51 51 55 59 61 86 90 86 90 98 98 96 83 84 91 94 99 96 86 84 89 99 99 91 92 94 91 88 80 89 94 96 92 98 100 100 100
54 54 56 57 60 60 60 62 62 65 69 73 78 79 81 79 79 87 90 90 87 87 93 91 85 85 92 93 92 87 90 96 96 97 89 91 83 79 97 98 97 98 98
60 64 68 71 71 72 73 74 76 76 76 78 81 86 92 92 92 91 91 87 87 87 89 85 83 86 86 87 90 86 88 92 98 98 100 100 100 99 98 99 99 99 100
72 74 79 78 77 80 82 84 85 88 89 97 97 98 96 98 96 89 87 88 87 86 89 83 80 80 83 90 93 93 88 91 95 98 99 100 99 99 99 93 93 98 98
79 83 83 81 84 83 88 93 98 100 99 98 98 99 98 98 95 92 95 93 89 89 88 87 87 89 89 90 94 94 94 94 95 97 98 98 98 97 98 99 100 100 99
87 89 84 82 82 87 89 87 96 99 97 97 98 98 96 89 84 82 83 84 84 85 86 86 86 86 86 86 85 85 87 88 87 88 90 90 88 89 91 94 93 92 91
97 90 84 77 81 83 84 82 78 76 67 64 54 34 19 14 12 9 9 8 8 10 13 16 18 20 22 26 29 32 34 34 34 30 29 30 30 27 25 23 23 23 22
96 84 79 78 69 42 16 8 6 6 6 6 6 6 7 8 8 9 9 9 10 10 10 11 14 17 20 22 24 26 29 28 28 28 26 19 19 18 15 14 13 13 14
89 75 29 13 8 6 6 6 6 6 7 8 8 9 10 9 10 9 10 12 12 13 16 16 20 22 25 27 29 31 31 27 25 24 24 23 22 31 37 35 36 38 43
75 27 14 8 7 6 6 6 8 9 9 9 10 10 11 12 11 9 10 13 15 15 16 17 18 22 28 37 31 32 29 31 29 35 44 56 52 49 49 48 48 50 51
24 14 9 9 9 8 7 7 9 10 10 10 11 11 12 12 13 14 14 16 16 18 20 22 22 21 20 21 23 27 31 34 49 60 63 64 60 58 55 56 56 55 54

GFSMA_850_rhum_072.txt.gz
RH
44 49 44 28 31 33 45 58 56 55 47 48 46 46 51 57 60 67 64 63 60 68 70 63 59 58 55 54 55 57 52 28 17 13 13 12 12 12 14 16 17 18 18
56 51 53 38 47 54 61 68 71 71 71 70 69 72 72 77 74 74 75 76 75 77 78 77 74 65 77 82 60 57 58 60 38 19 14 13 14 15 16 16 16 18 20
75 74 74 76 77 78 75 73 73 73 72 75 75 79 83 81 82 82 82 81 84 82 84 84 83 81 72 79 94 97 82 61 65 52 22 16 15 16 17 17 18 18 18
71 75 80 82 86 87 88 87 86 85 84 87 89 97 96 88 82 84 83 82 82 82 84 84 87 89 85 76 84 84 99 99 90 78 69 33 18 17 19 19 19 18 20
80 78 76 78 83 85 88 89 91 91 93 98 97 90 89 89 80 82 79 82 81 79 84 87 84 92 92 87 80 83 89 92 93 91 75 76 56 23 18 20 21 22 27
86 85 84 84 86 86 87 91 94 92 86 92 93 85 77 80 74 69 67 81 87 75 75 77 82 84 92 94 85 81 81 88 89 82 83 80 78 70 34 23 26 30 32
88 86 86 87 89 89 92 93 94 94 92 94 90 91 97 80 71 69 85 85 78 78 78 79 83 83 84 84 88 83 80 78 83 88 88 94 88 88 81 54 41 61 77
83 84 85 83 86 86 86 86 93 93 96 99 98 100 97 71 71 77 79 78 79 77 80 81 79 80 80 80 82 78 78 74 77 81 91 99 99 99 99 90 67 84 96
70 67 67 73 77 84 83 85 85 98 98 98 98 100 95 70 75 83 80 83 82 83 84 80 79 81 81 86 88 85 80 76 79 82 87 97 99 99 99 100 96 93 77
45 49 54 57 57 55 51 50 52 52 58 90 92 100 99 96 98 90 84 87 85 84 84 92 74 76 83 87 83 86 88 87 78 76 82 89 96 99 98 98 100 98 96
36 38 39 40 40 40 39 38 38 39 43 57 97 97 99 100 98 96 98 90 84 78 85 94 82 76 78 82 80 76 81 82 85 87 89 85 95 99 95 98 82 96 97
38 39 40 40 40 40 40 39 39 39 40 46 70 87 94 97 97 91 96 93 87 84 82 89 92 75 81 79 78 75 78 82 83 84 83 85 99 99 99 98 90 90 90
42 42 43 44 44 45 46 49 49 49 50 64 89 96 96 99 99 99 100 98 97 92 89 89 84 81 85 85 83 81 83 78 77 77 74 69 76 98 99 91 99 94 97
50 50 51 51 51 52 53 55 57 58 58 79 98 93 97 99 99 96 97 88 93 86 90 99 80 84 85 85 90 83 86 85 84 78 77 72 69 71 82 88 94 97 99
51 51 51 51 50 50 51 53 56 58 59 87 97 97 98 96 96 98 90 92 91 98 86 92 94 89 84 86 86 81 79 82 86 84 82 78 74 96 98 95 91 100 100
53 53 52 51 50 50 51 52 53 56 64 80 95 100 99 99 96 92 92 95 88 85 95 96 90 85 81 86 89 85 84 84 87 88 87 82 88 94 99 95 91 97 98
57 55 55 56 58 61 63 64 64 64 68 73 79 88 94 93 92 88 86 86 86 86 93 98 91 82 83 87 87 84 86 86 92 91 92 88 91 92 99 96 93 92 92
63 62 65 68 70 70 70 71 72 74 74 75 76 79 81 83 85 88 88 88 86 87 88 89 85 83 82 84 85 89 89 89 88 90 93 98 96 98 99 98 99 100 100
67 70 73 76 76 74 75 76 78 79 81 82 84 88 89 90 92 92 88 87 86 88 87 90 88 86 83 85 88 91 92 92 90 93 94 99 99 98 97 96 93 97 96
72 76 79 81 80 81 84 85 91 95 96 98 99 98 98 98 98 90 89 91 88 87 85 86 86 88 87 86 85 86 92 89 90 91 92 95 95 96 96 96 93 91 92
78 82 85 84 82 86 88 96 99 100 95 94 95 94 95 90 88 85 81 76 74 71 72 74 73 72 70 64 52 42 39 40 42 56 72 78 83 85 86 88 90 94 96
97 98 90 83 82 84 87 93 94 92 87 79 76 56 26 10 9 6 6 6 6 6 8 10 12 18 21 19 18 18 20 20 42 23 19 22 18 22 24 27 30 35 40
100 99 86 82 81 83 77 66 35 19 10 7 7 7 7 8 7 9 8 8 9 10 10 12 16 16 20 21 23 25 26 26 37 41 16 15 18 14 14 14 13 14 14
100 89 82 75 40 14 7 6 6 7 7 8 8 9 9 10 10 8 10 11 12 13 14 14 17 20 22 23 24 26 27 25 38 24 20 23 28 28 33 33 30 33 32
94 71 25 12 7 6 5 6 8 9 9 10 10 10 10 10 8 7 9 12 13 14 14 15 15 16 17 20 20 28 43 42 67 64 39 48 52 44 43 43 43 42 43
80 34 17 9 7 7 7 7 10 11 11 11 12 12 10 10 8 7 11 12 14 17 18 19 19 17 17 18 20 24 29 32 47 84 55 58 54 58 56 50 48 47 46

GFSMA_850_rhum_075.txt.gz
RH
80 77 74 68 67 62 71 81 84 79 77 74 76 78 78 77 75 75 71 63 65 65 68 70 70 68 63 57 53 52 52 56 49 25 16 13 12 12 12 14 16 16 15
77 61 74 54 53 52 76 86 88 89 88 87 87 86 85 84 86 84 78 75 71 73 74 76 76 77 76 85 95 83 61 54 58 58 33 18 14 14 15 16 17 20 19
70 68 71 88 73 80 81 86 86 86 87 87 89 92 90 88 88 89 91 90 85 71 76 81 83 84 83 82 80 91 88 82 66 60 64 47 22 16 16 18 19 20 23
64 67 74 79 89 92 88 92 95 95 94 94 92 90 90 90 92 92 94 95 96 83 80 75 81 87 89 88 86 84 92 90 85 81 70 69 68 39 17 18 19 20 21
90 75 80 84 90 97 98 96 98 98 97 95 94 93 93 92 94 94 94 92 94 98 95 91 88 82 87 93 95 85 83 88 89 83 81 75 73 72 64 24 20 20 22
99 96 94 94 98 98 97 98 99 99 99 96 97 97 91 91 96 96 86 89 86 89 98 88 82 82 81 85 95 89 85 83 84 88 90 88 84 81 80 77 41 26 27
99 100 96 99 99 96 98 98 96 98 98 98 98 96 87 95 91 87 87 85 83 90 92 80 77 81 82 87 83 84 88 87 86 90 94 93 99 97 92 90 88 79 78
88 87 86 90 96 99 99 95 98 100 100 100 98 93 88 77 70 69 80 80 84 84 84 80 80 80 80 84 88 83 85 81 80 85 90 98 99 98 96 92 96 93 92
67 74 76 76 76 93 98 99 100 99 98 97 98 95 87 76 72 73 78 83 82 85 86 86 84 83 76 81 88 88 87 86 80 74 75 85 93 97 100 100 100 98 97
42 42 43 46 50 55 57 57 54 55 86 88 78 78 87 83 94 85 80 76 80 79 88 88 92 93 81 77 87 80 79 82 84 85 82 78 78 91 94 92 99 99 99
34 34 34 36 38 40 42 42 41 40 40 44 64 91 84 83 84 92 99 78 75 81 83 83 90 90 86 77 81 87 78 70 71 72 77 84 84 94 97 92 97 98 85
34 34 36 38 40 41 42 42 42 43 45 47 50 83 99 99 99 99 92 96 84 84 77 81 84 85 85 78 83 84 81 75 73 72 77 78 79 82 95 95 93 95 95
41 40 40 42 43 43 44 46 49 52 52 56 64 98 90 91 92 98 99 100 98 93 82 81 84 88 89 80 85 87 85 82 78 77 72 70 69 67 65 66 86 95 94
48 47 49 49 49 50 50 51 52 57 58 59 63 82 90 92 85 95 99 100 97 97 88 85 95 91 87 90 88 86 83 76 75 77 72 73 71 71 71 66 71 89 90
50 51 52 52 50 49 48 48 50 55 60 64 74 98 98 100 98 99 96 92 92 94 83 91 94 86 90 89 83 86 82 74 77 78 78 79 79 77 75 89 80 80 90
51 51 52 52 51 51 50 50 52 54 61 64 76 98 97 98 95 93 96 94 93 92 96 93 85 89 86 82 84 86 82 78 80 82 87 83 79 81 79 97 98 100 100
58 56 55 54 54 55 58 63 64 65 67 66 72 83 99 100 98 92 91 92 88 84 89 96 90 85 81 81 85 84 80 84 83 86 90 89 86 84 82 82 88 92 93
65 64 61 60 61 65 70 72 72 74 78 79 81 84 86 88 88 88 89 87 85 87 85 88 82 85 84 81 80 80 86 87 88 88 87 84 91 97 95 93 96 98 98
70 69 68 68 71 74 76 79 81 82 84 86 86 87 89 90 90 90 87 89 86 86 87 90 90 89 86 82 82 80 80 83 86 89 91 87 96 100 93 97 95 91 90
74 74 73 76 79 82 83 86 90 94 93 92 93 94 93 95 96 93 89 90 90 90 90 91 89 85 83 79 80 79 84 82 73 78 84 87 92 94 91 92 97 97 95
75 76 78 82 85 84 84 91 99 100 97 95 95 94 95 92 92 90 84 79 74 72 66 70 70 55 56 45 28 29 24 24 37 23 24 35 44 67 78 82 86 89 91
81 86 90 90 85 84 85 86 95 93 89 86 82 71 40 20 12 8 6 6 6 5 6 7 10 19 41 26 22 17 17 16 32 44 22 16 17 16 15 14 18 28 40
100 100 99 88 83 86 93 98 92 72 52 30 14 8 7 8 8 9 8 7 7 8 7 8 12 17 22 19 21 22 23 22 25 27 15 13 25 18 18 14 9 10 10
100 100 97 88 84 85 62 27 13 8 7 7 8 10 10 11 11 9 8 8 9 9 10 10 11 14 16 16 20 24 23 22 29 54 23 20 37 29 31 36 27 31 29
100 100 91 86 42 13 6 5 6 9 10 10 11 12 11 11 10 8 8 11 12 11 12 13 13 13 13 13 16 20 25 30 36 71 41 45 44 37 38 40 40 40 40
100 99 60 21 9 7 6 6 8 11 12 12 13 13 12 10 7 7 9 12 14 16 15 15 14 14 14 14 16 18 20 24 31 65 71 58 46 46 42 50 45 46 46

GFSMA_850_rhum_081.txt.gz
RH
57 49 46 44 40 36 33 40 48 56 56 63 64 64 68 67 67 70 70 71 71 71 71 72 76 80 82 84 82 79 76 74 72 62 56 56 40 21 15 13 15 16 18
67 60 56 52 48 39 42 49 57 65 68 70 73 76 72 74 76 78 81 79 82 84 83 86 85 85 88 89 89 90 88 85 84 81 76 68 61 57 31 17 15 17 17
69 62 57 54 58 54 62 66 70 73 75 78 76 80 82 85 87 87 88 92 89 92 95 95 90 84 87 90 88 90 91 95 92 89 84 82 78 66 62 41 20 18 20
63 63 66 65 72 76 77 78 81 81 83 86 88 88 86 85 79 84 91 93 96 96 92 90 97 86 89 86 86 85 90 98 98 94 90 87 87 82 73 68 56 26 22
71 69 69 71 77 83 89 87 86 89 93 91 90 87 86 85 86 87 85 84 93 93 92 79 82 82 93 87 85 84 83 91 95 96 100 98 92 88 85 78 75 68 37
91 87 87 84 90 95 96 97 98 92 91 90 91 91 92 93 88 77 66 66 82 83 79 82 82 88 84 77 84 84 79 80 80 82 94 98 97 98 96 91 85 80 76
97 85 88 89 93 94 97 99 94 98 97 95 95 86 81 85 81 71 63 67 87 86 79 84 78 83 78 82 83 82 81 81 81 83 87 91 93 99 98 94 92 89 93
88 91 95 100 100 98 97 98 97 96 98 96 91 86 82 80 77 66 66 69 76 86 79 80 83 77 85 83 78 73 76 81 83 80 82 85 84 91 91 97 99 91 95
90 81 72 65 64 90 100 98 97 96 95 93 92 94 88 82 83 76 80 85 84 82 79 80 73 73 71 80 84 81 75 65 74 80 80 82 84 82 77 86 89 98 96
76 74 71 65 50 42 39 40 45 53 52 50 54 61 92 100 98 90 83 77 86 85 89 88 84 82 84 74 85 88 83 69 76 80 74 67 64 72 95 97 92 90 93
62 43 35 34 33 33 33 34 36 38 43 44 47 44 51 56 79 94 95 75 83 87 89 94 96 93 75 76 86 84 88 76 81 79 76 72 71 69 69 72 78 82 85
36 32 32 33 33 34 35 38 40 41 44 46 46 48 52 59 82 93 100 88 84 94 100 99 97 94 77 79 82 88 90 88 82 79 80 80 71 68 66 63 62 62 63
31 32 34 34 35 36 39 41 44 47 48 49 51 55 76 96 93 92 98 98 94 92 92 99 96 85 81 84 94 88 92 87 84 83 96 88 70 72 70 68 61 58 55
33 33 34 37 40 41 42 43 44 46 47 49 50 51 60 90 96 94 93 99 98 100 100 98 93 85 81 89 95 86 85 88 85 81 83 76 78 77 76 74 74 63 57
38 39 38 42 44 44 44 44 44 45 47 50 51 46 53 69 78 92 87 88 100 99 98 96 100 91 92 91 90 82 85 87 82 80 83 79 81 80 78 86 97 76 64
42 43 44 48 49 50 51 50 48 48 51 52 55 53 61 82 87 92 94 100 98 100 100 99 95 99 95 93 88 81 85 82 78 84 84 83 81 83 80 79 87 98 90
44 50 52 54 56 57 57 56 55 55 58 62 61 62 71 93 96 98 94 94 92 92 95 100 99 100 96 91 84 85 83 77 85 87 87 84 80 76 78 77 81 90 99
51 57 58 60 60 61 63 63 63 65 66 71 74 73 75 94 96 99 98 96 94 93 92 96 100 100 94 88 90 88 82 80 77 79 82 89 87 82 81 77 85 83 81
54 57 60 63 64 67 68 70 70 71 74 79 82 80 80 86 94 95 93 90 91 88 88 90 96 95 91 91 88 82 77 76 75 69 67 73 77 81 88 89 81 82 85
60 59 64 66 70 71 71 74 80 82 86 87 89 92 92 93 95 93 90 90 88 88 89 87 90 92 83 77 65 54 50 39 30 20 18 17 19 34 54 73 85 83 84
62 69 71 69 70 72 74 84 88 89 98 99 94 92 99 100 100 99 98 91 89 87 80 77 73 48 29 24 22 17 14 15 11 11 20 21 18 15 12 14 26 57 78
67 70 72 76 74 73 82 93 95 100 100 100 97 94 91 93 88 79 81 66 31 10 7 7 7 12 12 18 20 16 13 13 14 18 20 12 11 12 14 13 11 9 10
71 72 74 83 87 86 90 98 100 100 100 100 95 79 36 12 9 9 9 8 7 7 6 7 8 12 15 16 16 13 13 12 12 14 18 12 13 16 16 16 17 19 16
74 76 93 100 100 93 96 100 100 100 98 78 38 13 10 12 15 14 10 9 9 9 8 8 8 10 11 10 11 11 13 16 16 20 23 17 20 25 28 28 29 30 31
79 92 99 99 100 93 96 99 76 32 14 10 10 12 14 16 15 9 8 10 11 11 10 8 8 8 8 8 8 10 10 13 15 20 24 33 31 32 32 32 34 34 36
86 98 99 99 100 92 70 26 8 8 11 13 14 14 14 13 11 7 8 12 13 13 12 11 11 12 10 10 11 12 13 14 16 23 36 36 34 36 36 36 39 38 39

GFSMA_850_rhum_087.txt.gz
RH
63 55 44 46 46 39 39 46 47 53 57 63 67 69 70 68 69 72 75 80 84 89 92 95 97 94 85 66 70 78 78 87 90 88 83 80 76 68 59 47 26 17 17
65 60 59 54 51 49 43 43 50 59 67 71 74 75 75 77 81 83 84 85 88 91 95 92 85 86 82 83 81 77 88 90 93 92 93 88 83 79 74 66 53 28 19
66 67 64 58 58 55 49 53 61 70 74 76 78 82 85 86 83 85 80 82 83 80 88 80 75 74 80 81 78 77 76 82 86 93 94 94 91 86 85 80 71 61 33
78 74 71 64 62 67 65 71 76 79 81 84 85 85 83 86 81 85 84 83 80 84 90 75 82 81 79 75 77 72 80 75 77 82 92 98 98 97 94 87 82 74 68
84 80 70 68 66 75 80 82 85 87 88 90 82 86 78 86 88 90 86 86 90 84 76 83 86 79 75 68 76 71 74 79 80 79 85 90 96 92 96 97 92 86 80
83 72 72 73 75 79 83 88 93 96 95 88 80 82 84 87 79 78 83 80 79 80 79 81 78 74 76 78 69 69 81 75 74 75 74 82 86 88 98 93 87 90 89
79 78 80 83 81 85 89 94 86 92 84 87 91 83 81 76 73 67 70 66 58 58 70 82 83 80 79 71 63 68 73 77 74 66 63 69 76 80 84 89 99 99 90
82 81 81 81 84 88 96 96 94 91 93 85 88 88 90 77 60 68 73 72 67 69 80 80 89 78 78 73 74 71 72 73 70 70 63 68 77 76 78 85 86 92 99
80 75 76 77 77 86 98 98 96 78 80 76 83 97 91 87 87 79 77 78 82 82 77 77 78 76 81 83 84 77 72 72 74 72 64 67 74 86 95 87 91 87 87
70 69 60 64 66 76 96 79 61 57 56 50 55 57 67 78 99 81 81 82 86 83 79 78 81 77 87 89 87 89 79 77 78 71 66 65 92 99 92 68 64 86 91
74 72 67 68 75 77 70 40 35 35 36 36 38 43 48 52 58 86 96 87 78 86 92 90 85 94 94 85 94 94 82 75 76 78 74 95 96 93 79 69 67 68 66
76 64 56 60 68 51 34 32 33 32 35 39 42 44 48 55 61 66 78 80 80 92 88 91 98 96 95 99 97 87 80 80 78 76 86 98 98 92 98 94 87 67 58
55 55 57 68 45 36 33 32 32 34 36 41 47 49 52 58 65 72 94 96 94 95 92 94 96 100 100 100 94 86 85 88 85 79 87 99 85 76 91 99 95 84 60
65 65 71 44 35 34 34 36 38 41 43 42 45 49 52 58 66 65 85 94 98 100 98 98 98 100 99 99 95 92 90 91 86 80 79 77 75 75 76 74 70 63 55
66 68 41 36 34 36 36 40 45 47 47 46 48 50 53 59 64 62 76 99 100 99 91 98 100 97 100 99 98 94 96 95 85 76 73 76 76 71 73 72 74 76 80
51 42 42 51 66 64 51 45 46 48 50 52 54 56 56 58 62 65 79 99 97 100 98 96 99 100 100 100 95 96 98 90 81 75 77 80 84 78 71 75 80 88 100
45 54 63 59 61 59 51 48 50 51 55 57 59 63 66 68 72 73 100 98 100 100 100 100 100 100 100 99 98 99 96 86 80 73 72 82 81 75 67 70 77 90 97
52 48 60 58 61 52 52 54 57 60 61 64 66 71 73 74 74 88 100 98 99 96 97 98 100 100 100 99 98 100 94 88 84 74 68 68 62 54 60 66 82 81 93
49 56 54 53 53 55 57 58 61 62 65 70 76 83 85 82 86 96 100 98 98 98 100 98 99 100 99 99 100 99 94 87 78 69 62 44 37 28 39 60 72 81 81
55 54 58 58 57 58 59 61 63 67 71 74 80 87 92 95 95 99 100 98 100 100 100 100 98 98 98 100 91 91 83 73 48 29 19 17 14 12 13 20 38 59 80
61 62 62 62 61 62 63 64 67 71 77 81 90 98 97 99 100 99 99 98 100 100 100 99 100 98 90 75 66 56 36 23 17 14 12 14 18 16 14 12 11 12 32
66 65 64 65 66 67 69 68 72 81 94 99 98 98 99 98 98 99 99 97 98 95 99 97 92 81 59 40 30 22 22 17 14 13 14 17 14 12 12 12 10 8 8
69 69 70 70 72 72 70 82 94 99 99 99 99 99 100 96 65 38 23 41 44 32 18 13 17 20 23 19 21 19 16 14 12 12 13 15 15 14 14 13 12 14 11
74 72 72 74 72 76 94 100 100 99 99 99 98 99 96 39 15 15 16 16 12 11 10 9 11 12 15 15 17 14 13 12 13 14 16 19 15 17 19 21 20 21 24
77 76 76 75 78 90 98 100 99 99 99 98 100 97 33 15 20 21 16 12 13 13 12 9 9 9 9 9 8 9 9 10 10 13 19 21 23 26 27 28 27 26 26
78 78 79 79 84 96 98 97 98 99 100 85 39 14 14 18 21 18 10 13 18 16 16 16 14 13 12 12 9 10 10 11 11 12 15 24 31 32 30 30 32 33 32

GFSMA_850_rhum_090.txt.gz
RH
50 52 46 40 40 39 40 47 53 55 59 62 67 69 72 72 73 74 78 83 88 90 92 94 89 82 81 79 86 81 81 84 83 86 89 86 82 78 72 65 54 32 19
71 61 52 49 48 47 46 48 53 59 69 72 74 74 76 78 81 81 83 81 83 86 81 88 76 74 79 80 79 82 82 72 78 78 84 95 92 85 79 76 70 61 39
69 67 63 60 56 54 52 49 53 65 72 75 78 81 85 86 84 82 82 84 77 81 75 79 82 76 76 81 76 81 78 71 73 72 80 88 94 95 92 85 80 73 64
76 76 74 71 68 65 61 58 70 77 82 84 86 87 83 83 83 82 85 85 82 80 83 89 84 74 74 72 76 69 69 65 69 72 72 86 91 98 98 97 90 86 78
83 86 79 79 75 68 76 78 82 87 92 94 92 81 83 82 85 87 80 79 82 83 84 82 78 83 72 79 77 69 63 69 73 71 74 77 90 91 91 93 96 91 88
81 87 80 78 77 74 78 84 92 97 93 90 89 83 84 78 76 73 77 74 78 72 73 80 79 84 83 81 79 65 67 67 67 70 62 60 67 81 86 90 96 94 89
82 83 80 84 86 88 88 87 88 87 87 89 82 76 79 68 64 55 56 64 67 61 60 66 80 86 71 79 67 68 68 70 70 63 55 57 55 62 77 82 85 93 99
89 87 85 80 83 82 86 91 92 91 85 88 94 88 85 73 64 65 63 69 74 72 71 78 82 82 87 77 76 77 75 72 71 72 72 63 80 58 66 78 86 84 89
84 75 77 82 78 77 84 94 89 84 97 87 84 96 88 85 87 76 83 72 70 69 80 78 81 76 77 81 85 86 83 80 74 71 67 65 86 94 96 87 84 94 94
73 76 86 72 81 79 76 73 78 95 85 56 46 44 50 65 87 84 81 80 80 80 85 87 86 73 76 72 89 89 88 88 74 67 70 70 99 96 98 99 92 68 86
76 80 83 84 79 78 75 67 68 58 38 36 36 39 44 48 54 73 82 67 72 88 81 87 84 84 83 94 94 93 93 84 74 73 83 90 95 97 95 94 95 100 87
78 73 80 79 72 72 68 67 39 36 35 34 36 40 45 52 59 68 78 70 68 83 89 88 80 82 96 97 94 100 93 86 80 79 78 88 99 100 94 97 98 99 99
88 82 68 62 62 75 51 37 34 33 34 36 37 40 45 48 56 64 82 97 95 86 92 95 87 84 89 94 100 98 92 86 85 86 84 84 82 84 94 99 100 95 86
87 80 70 64 75 49 37 40 48 40 39 40 43 44 45 48 53 63 72 78 98 92 96 99 92 94 93 99 100 99 98 91 92 87 82 75 74 76 78 85 79 70 69
68 65 76 76 47 40 58 66 60 51 47 49 52 52 52 54 59 64 72 74 87 99 90 92 90 96 98 100 100 99 97 92 97 91 77 72 75 79 73 72 74 86 85
66 80 74 48 41 57 62 60 63 57 49 54 55 58 61 60 61 66 75 81 91 99 100 96 89 88 98 96 99 100 99 98 99 87 77 77 80 78 76 74 73 86 98
75 61 46 42 57 59 52 58 59 50 53 58 61 62 65 67 71 76 80 91 99 99 100 100 96 96 99 100 100 100 96 100 95 84 73 72 75 78 70 64 69 74 90
61 52 54 59 60 54 58 52 53 52 54 58 64 67 70 71 71 72 79 98 99 99 100 100 94 100 100 100 100 97 98 100 92 88 75 70 62 57 56 57 65 70 88
58 54 53 54 52 51 51 54 54 54 56 63 68 72 77 82 79 83 90 98 99 98 99 99 98 100 100 100 99 99 100 100 92 81 73 62 36 20 22 42 54 72 80
53 51 53 54 53 53 55 56 55 55 60 67 73 79 82 86 91 94 98 100 97 98 100 99 99 100 100 100 99 100 98 94 86 71 41 24 18 13 13 14 16 38 71
57 58 58 59 57 58 60 60 59 61 64 71 78 90 99 100 100 99 98 98 99 99 99 100 100 100 98 99 98 82 84 70 44 27 17 16 16 20 18 14 10 10 19
62 63 63 62 61 63 64 64 61 61 66 84 99 99 98 99 98 98 98 96 95 99 100 100 100 100 98 89 59 51 37 26 22 14 12 16 20 16 14 13 11 8 8
68 68 68 66 65 67 67 66 64 69 86 99 99 99 99 99 98 76 45 40 78 90 91 85 80 50 44 39 28 24 20 18 16 15 13 13 16 18 17 16 12 14 13
72 71 70 68 69 71 71 73 83 97 100 98 99 99 98 99 56 16 15 18 16 12 11 9 12 13 14 14 15 16 15 13 13 14 15 16 17 16 19 20 20 22 24
76 76 75 73 74 74 76 83 96 99 99 99 99 99 100 78 19 21 22 17 15 14 13 11 11 12 10 10 9 9 11 10 10 10 14 18 18 22 26 28 28 28 26
82 82 80 78 78 76 79 90 93 98 99 99 100 94 60 17 21 23 20 13 16 18 19 18 14 11 10 11 9 9 10 10 9 9 10 15 22 30 30 30 32 33 30

GFSMA_850_rhum_093.txt.gz
RH
44 44 44 42 41 40 39 39 45 50 52 57 64 67 70 71 72 75 80 84 86 88 88 87 81 79 76 81 82 80 80 80 63 70 76 88 86 82 77 72 66 52 29
57 58 56 47 45 45 43 48 55 54 59 66 72 73 75 76 80 81 82 82 81 78 78 74 75 75 71 80 83 77 75 75 70 68 67 76 90 91 86 79 78 72 60
72 74 66 59 57 56 52 49 50 57 66 72 76 78 81 83 81 81 82 81 83 79 75 76 77 82 74 76 80 76 66 62 60 63 65 66 84 97 95 90 88 84 75
66 70 72 67 66 62 60 54 58 65 74 78 82 86 83 82 80 78 86 81 82 78 78 80 72 80 76 75 80 75 66 59 61 67 67 70 78 88 90 96 95 91 85
80 82 80 77 79 71 68 68 70 79 86 92 94 89 81 78 81 80 77 83 82 81 81 82 81 81 84 79 80 78 65 60 60 64 67 64 71 81 84 89 93 95 87
88 87 84 85 84 78 72 80 84 92 94 87 88 85 78 70 77 64 68 57 54 62 67 62 72 83 85 84 77 74 66 67 64 64 61 57 58 62 74 84 87 97 97
86 90 88 90 86 81 77 89 89 84 89 78 91 74 80 72 55 49 52 45 51 61 62 59 63 82 91 81 72 71 65 74 71 70 69 66 64 62 62 76 84 85 88
74 87 90 89 85 88 91 89 89 87 88 89 89 96 90 75 58 58 62 69 68 62 65 72 77 87 92 92 88 71 79 82 79 76 73 63 71 88 86 83 84 82 82
86 81 78 83 99 100 88 92 92 96 96 96 98 96 88 87 75 58 70 74 67 59 54 73 82 85 91 89 84 85 82 83 85 85 70 61 75 90 90 89 90 94 99
83 84 83 92 99 98 89 86 84 85 80 77 75 48 47 58 94 82 69 77 75 73 75 79 87 92 83 76 83 78 92 86 87 79 75 87 92 91 89 90 95 97 96
92 91 93 98 94 87 84 84 81 75 77 40 36 35 38 40 44 60 83 59 74 77 76 75 82 91 79 81 86 91 94 94 88 79 76 74 90 88 91 98 94 92 94
93 88 97 93 94 92 76 68 74 74 48 33 33 35 39 45 52 59 68 58 66 62 74 86 88 86 77 79 85 99 94 99 91 80 82 93 84 79 97 97 100 94 96
85 91 89 90 89 77 72 70 67 39 41 51 46 40 41 44 50 64 68 89 97 93 81 78 86 89 82 84 95 99 99 96 91 87 87 85 79 73 79 97 88 96 99
80 87 88 76 81 80 71 57 48 62 57 54 50 45 44 47 50 59 79 90 91 92 87 88 91 98 98 88 94 100 100 100 96 91 93 90 78 71 77 91 88 81 84
81 81 81 79 82 73 47 52 61 57 55 58 54 49 47 49 55 58 72 79 89 97 95 85 95 89 92 88 95 100 99 98 94 95 94 87 72 79 78 73 74 81 75
78 78 76 84 77 51 50 57 56 56 57 57 50 46 51 54 56 60 67 75 81 94 96 99 92 90 85 88 97 100 100 96 100 99 96 81 68 81 77 77 76 80 83
80 87 93 83 57 48 57 63 60 60 55 50 46 48 54 59 63 71 76 81 85 94 97 99 99 97 90 95 98 100 100 100 99 99 94 80 66 66 66 60 63 75 86
89 92 81 61 49 58 64 60 57 52 48 48 49 52 58 64 69 69 71 72 89 99 100 98 100 100 97 97 100 100 100 99 100 99 94 82 68 59 59 49 50 61 82
76 72 62 53 59 59 56 54 51 50 50 51 54 58 62 70 72 73 74 83 99 99 99 98 97 95 94 100 100 100 99 99 99 99 93 81 64 33 19 18 29 51 78
71 66 59 56 55 55 55 54 54 54 54 54 56 60 67 73 77 83 95 100 100 99 100 100 98 97 99 100 100 100 100 99 100 98 88 66 30 16 13 12 12 21 57
67 62 60 59 60 60 57 57 58 56 56 56 58 60 72 89 98 97 99 98 99 99 99 98 98 100 100 99 99 100 100 94 91 81 42 25 19 17 18 15 12 11 13
64 63 64 64 65 62 60 58 58 58 57 57 61 79 95 98 98 98 98 97 93 94 95 96 98 99 99 99 100 92 58 58 36 20 18 17 18 20 16 14 12 10 9
66 66 66 67 66 64 60 60 59 58 59 63 81 98 98 99 99 99 77 49 62 89 90 94 97 99 96 84 61 52 30 22 20 18 15 14 14 15 18 18 13 13 12
71 72 72 71 69 67 66 66 62 62 68 92 99 99 99 98 100 67 17 15 15 14 16 19 19 20 22 27 21 20 21 14 13 13 13 15 15 15 17 20 21 21 22
76 76 76 74 74 72 72 68 69 77 86 100 99 98 98 99 94 31 18 20 18 15 14 13 12 11 12 15 14 14 12 11 10 10 13 17 18 19 20 24 26 26 26
82 82 81 81 79 77 74 70 71 78 88 99 98 97 100 97 42 15 21 19 15 16 18 17 13 10 9 10 9 9 10 10 9 10 11 16 16 24 27 28 29 29 31

GFSMA_850_rhum_096.txt.gz
RH
33 33 35 36 36 38 39 41 42 46 45 51 59 67 78 83 82 82 83 78 82 84 84 84 81 77 76 75 82 81 75 76 70 62 62 70 79 85 85 79 74 66 51
42 42 45 48 46 46 43 44 47 54 61 66 86 80 84 85 87 90 90 89 82 80 76 77 75 76 79 79 77 80 71 63 58 58 59 58 64 87 92 90 83 79 71
59 54 66 56 52 52 49 49 52 56 58 64 72 74 87 89 90 85 85 86 80 80 78 77 75 76 81 81 73 78 75 61 57 56 60 63 72 88 96 99 93 90 83
68 78 81 73 68 63 57 54 51 53 73 79 88 89 92 91 87 82 83 79 84 88 88 79 80 78 80 81 76 80 76 63 60 60 57 60 66 76 85 91 94 93 89
67 70 71 78 75 70 64 62 56 69 85 92 95 94 93 84 82 84 83 87 90 74 78 91 75 81 81 83 80 78 78 67 66 65 60 59 57 59 69 79 89 94 93
64 77 82 87 85 80 75 69 73 79 93 95 95 91 86 85 80 79 79 70 55 46 58 64 65 88 84 88 86 84 78 65 67 71 70 70 63 54 57 68 84 86 90
80 83 88 94 94 89 83 77 86 97 90 96 90 80 82 80 83 54 54 46 53 60 62 60 65 94 78 92 90 82 78 72 74 76 74 77 66 56 54 64 74 83 84
84 87 93 99 98 96 92 89 94 95 91 87 89 94 75 66 79 49 53 46 51 63 50 48 70 84 93 100 97 91 89 78 83 80 80 75 63 59 75 83 83 88 88
88 88 90 93 99 99 95 94 91 87 91 90 93 91 72 59 82 71 62 49 55 59 53 51 64 87 97 100 99 93 86 80 88 87 84 76 78 89 84 86 88 91 90
80 92 87 96 93 100 100 100 97 94 87 80 79 62 43 50 66 61 82 76 60 64 58 63 73 76 94 97 89 90 87 85 97 92 82 76 80 89 94 85 85 88 85
93 90 91 90 90 100 99 97 86 87 82 70 48 37 35 38 40 79 65 69 92 71 67 64 73 75 81 92 90 85 87 92 96 93 90 85 74 77 79 83 96 97 95
85 90 98 90 98 100 77 76 74 75 79 75 70 58 53 47 61 59 78 82 87 81 65 60 66 76 84 89 83 84 89 100 95 99 90 86 74 78 72 75 90 98 98
88 82 86 79 76 78 80 93 88 78 73 70 67 60 54 47 43 43 54 79 86 89 94 55 66 66 83 93 88 93 95 97 99 97 96 90 83 77 70 68 82 99 95
83 87 88 95 84 93 83 86 77 72 44 52 52 52 52 49 47 49 58 73 98 92 94 96 64 75 86 99 96 100 95 98 99 98 98 94 85 80 64 68 75 85 80
78 92 100 94 92 90 81 81 72 51 60 57 55 55 54 47 45 48 50 60 86 94 79 90 89 78 90 98 99 89 100 99 100 98 94 95 88 82 71 76 73 74 70
74 88 99 100 94 91 87 68 50 63 56 56 58 56 51 47 48 50 55 63 72 95 99 96 94 90 87 89 98 98 100 99 100 95 94 95 88 76 67 80 78 78 83
76 92 99 90 91 84 69 49 64 62 59 59 55 54 51 50 50 53 60 69 80 93 98 100 99 91 93 93 97 97 100 100 100 100 96 97 90 73 65 63 57 64 77
78 94 97 94 92 74 53 64 67 61 57 53 52 52 52 51 53 60 70 77 83 96 98 98 100 99 99 100 99 96 99 100 100 99 99 97 90 73 61 53 48 52 66
78 97 100 100 84 60 62 64 62 55 54 55 53 53 53 53 59 66 69 72 78 91 100 99 99 96 96 95 96 99 100 100 99 99 99 97 88 65 29 17 16 23 64
71 86 91 80 65 58 60 57 53 53 55 56 55 56 58 58 66 73 73 77 97 99 99 99 100 98 97 98 100 100 100 99 99 99 98 96 78 30 14 12 11 12 32
75 79 76 67 62 60 56 55 56 58 59 56 56 58 61 65 72 82 83 89 99 98 98 100 99 99 99 100 99 99 100 100 99 95 90 64 27 17 15 14 12 11 11
76 74 70 65 61 60 61 61 61 61 60 58 56 59 68 79 88 99 97 97 95 94 93 95 95 96 99 99 99 99 99 92 82 53 29 19 18 16 16 15 12 10 8
72 69 66 64 65 66 64 64 62 63 62 58 57 61 74 95 99 99 99 89 81 87 90 92 94 97 100 99 99 97 75 54 44 25 18 15 12 14 16 15 13 12 10
76 72 70 72 72 71 68 66 65 64 62 68 70 76 90 98 98 99 91 34 14 14 32 64 83 93 86 69 59 52 39 27 23 16 15 15 15 16 15 16 19 18 17
81 78 78 78 77 76 74 72 71 68 72 73 72 83 98 99 99 100 60 17 20 20 16 14 13 12 14 16 20 21 19 19 18 15 14 16 16 17 18 20 23 23 25
82 81 82 82 83 82 79 78 73 72 73 73 77 88 98 98 99 95 29 23 23 18 16 16 13 13 13 12 12 12 13 14 14 12 12 16 16 20 24 26 27 28 30

GFSMA_850_rhum_099.txt.gz
RH
82 84 82 81 78 71 76 71 68 70 61 75 74 65 81 79 76 77 82 82 79 82 81 81 77 74 75 84 78 72 73 68 59 55 56 56 59 73 87 90 80 76 68
81 80 81 80 77 62 68 72 76 81 81 82 79 80 78 79 80 82 82 82 84 83 78 76 74 75 82 86 84 74 72 68 57 53 53 53 58 71 80 94 93 87 81
78 54 86 63 57 50 59 64 81 83 80 81 84 82 84 81 80 77 75 76 79 82 82 74 76 69 76 76 85 77 81 69 62 60 60 49 51 65 84 94 99 93 89
47 43 49 53 51 49 51 75 82 82 77 79 82 81 83 84 80 75 73 77 76 82 85 86 87 79 77 78 82 83 83 76 66 66 64 63 61 55 61 76 87 95 91
56 59 65 73 66 64 63 84 82 76 73 82 83 78 81 80 76 74 75 78 80 85 81 73 80 66 66 72 81 86 79 79 67 64 68 66 64 64 54 52 66 82 95
81 74 77 91 98 89 82 90 86 76 79 79 86 83 80 78 78 75 76 76 77 49 49 55 62 82 71 78 87 94 83 83 69 69 71 66 65 64 59 47 56 72 85
85 91 80 89 97 96 96 88 84 81 90 88 85 78 78 75 76 77 68 77 72 54 61 52 47 96 81 77 89 93 90 82 76 76 77 72 66 64 56 51 86 80 78
69 86 87 96 100 99 94 94 90 90 91 90 83 80 77 66 71 67 58 61 56 52 60 44 43 76 98 91 91 93 90 91 84 81 81 80 73 68 69 84 84 88 86
93 88 90 92 94 97 97 99 96 90 93 90 84 88 70 58 63 60 80 59 52 70 56 48 45 64 86 98 97 97 98 95 90 88 95 91 78 76 83 80 82 80 78
83 85 82 82 87 85 100 98 89 98 90 90 79 72 66 76 68 54 64 70 61 62 66 58 61 59 70 82 99 98 98 94 90 97 97 93 91 79 82 76 74 77 90
82 82 80 79 87 91 90 96 90 91 95 82 62 56 42 49 52 69 69 62 78 78 58 60 72 74 67 74 83 94 96 92 94 97 98 99 94 76 80 83 88 82 96
74 70 75 64 67 96 98 88 72 77 89 90 81 78 77 68 77 72 72 70 76 75 85 66 61 77 82 82 86 93 92 91 99 98 99 99 89 86 80 76 91 95 92
79 84 80 66 71 87 96 77 81 82 95 90 77 79 79 73 58 53 46 55 80 70 78 81 74 71 74 81 84 96 94 97 93 95 95 91 93 87 81 73 62 84 98
85 80 86 79 88 92 90 85 92 97 91 77 76 59 55 52 52 50 50 60 72 71 83 89 90 78 70 79 98 100 99 99 92 94 96 91 88 83 79 72 61 74 93
74 77 85 98 98 97 98 99 100 97 80 72 46 50 53 53 54 50 50 54 67 90 81 79 99 82 79 79 99 99 100 99 98 99 98 97 92 88 83 67 70 76 71
62 66 73 99 100 100 99 100 95 86 82 50 58 53 55 57 54 53 54 62 79 85 92 80 83 88 87 87 88 96 100 98 97 86 95 95 93 89 84 59 60 71 72
53 65 69 88 98 100 100 99 87 90 54 60 55 58 58 53 51 52 54 62 72 84 91 94 98 98 98 89 90 93 99 99 100 95 93 97 89 91 85 63 54 49 54
50 63 84 100 100 100 97 95 89 61 57 60 61 58 53 52 52 55 58 63 67 77 96 99 99 99 98 96 92 94 97 95 99 99 100 97 90 94 83 58 32 24 37
60 73 100 100 100 99 96 84 66 54 65 62 56 52 53 56 57 60 63 68 71 72 86 100 100 99 97 91 93 91 92 99 99 100 99 96 95 95 73 25 13 11 11
68 84 99 99 99 98 87 72 59 66 64 57 55 55 57 58 60 66 70 73 76 76 90 99 99 98 94 95 95 95 98 99 100 100 98 99 96 83 32 15 12 13 9
71 82 99 99 99 95 78 65 66 63 58 58 59 59 61 62 62 66 67 74 78 84 96 98 96 95 94 93 95 99 100 100 100 98 96 90 80 32 18 15 15 11 10
79 81 85 88 85 76 66 64 62 61 62 62 61 61 61 63 63 68 75 90 91 91 94 96 93 94 96 95 97 99 100 97 99 64 62 46 24 17 17 15 13 12 9
77 79 81 80 76 72 66 64 65 65 65 63 62 60 60 66 72 75 88 96 94 89 88 87 90 91 97 95 98 97 98 99 85 50 31 19 17 14 17 16 15 14 11
80 79 78 76 74 70 67 67 68 68 66 65 64 65 66 70 80 90 98 93 78 36 26 71 90 94 97 98 100 90 86 66 41 28 21 15 15 14 16 16 15 16 17
83 82 80 76 74 72 70 72 71 69 68 67 68 69 70 75 86 97 99 95 36 16 16 16 17 24 40 47 38 36 32 30 23 16 14 14 14 16 17 17 19 21 21
89 87 84 79 75 74 73 74 74 75 74 69 71 72 76 85 94 98 100 85 22 22 20 16 14 13 13 15 18 18 18 18 15 13 12 16 16 16 21 23 24 24 25

GFSMA_850_rhum_102.txt.gz
RH
78 75 51 49 49 48 54 69 73 74 56 50 66 60 71 77 78 77 81 84 83 82 78 77 76 73 76 79 82 83 72 70 58 52 50 51 47 52 63 79 89 86 76
68 88 74 62 66 65 74 64 54 68 76 73 71 78 79 79 78 78 80 80 83 81 77 75 75 74 74 78 72 86 77 72 62 61 59 54 50 50 75 82 87 92 89
82 81 76 55 48 43 43 47 59 76 78 80 81 83 82 78 78 78 76 76 77 79 81 86 84 82 69 75 75 83 80 75 69 65 63 60 62 59 56 64 82 93 94
66 53 54 44 39 41 44 41 47 69 73 75 75 82 80 80 72 73 74 74 76 79 82 80 75 82 68 73 78 80 84 79 73 66 65 65 63 59 60 56 53 67 87
56 41 44 52 54 52 52 57 67 78 65 73 82 79 77 78 79 76 76 77 79 79 76 66 56 66 56 58 76 84 88 82 79 68 68 67 64 62 62 60 52 56 72
54 53 56 71 79 72 71 74 80 80 72 77 77 75 76 75 78 77 76 74 68 56 44 52 57 53 67 71 70 83 96 88 84 73 73 72 71 64 62 58 59 76 76
86 72 78 82 89 85 82 83 84 81 74 84 79 73 75 79 75 78 78 64 61 46 41 50 39 49 77 61 79 95 100 96 89 80 80 74 77 69 63 62 77 82 84
92 96 92 88 88 93 97 97 88 85 82 81 84 76 78 70 74 71 58 49 42 36 35 40 44 44 49 88 99 95 87 97 90 92 85 84 81 75 69 72 71 74 76
86 86 90 85 92 96 92 94 95 89 87 88 81 83 74 65 71 64 58 53 55 47 48 45 46 51 62 97 98 92 92 94 90 92 88 86 92 88 88 88 70 73 77
83 81 73 90 90 90 86 86 89 92 88 86 95 83 78 75 56 56 72 64 59 62 61 58 55 54 50 60 80 92 90 85 97 96 96 99 98 85 81 70 85 79 81
85 76 88 88 82 76 71 70 76 80 85 87 84 88 70 41 39 50 53 66 74 71 68 61 64 71 61 60 67 85 95 93 97 98 96 98 99 94 85 79 72 74 75
86 83 85 82 75 71 66 75 90 94 84 71 90 95 81 77 63 61 72 70 71 74 64 62 66 70 68 68 67 82 98 100 100 99 96 98 90 86 86 81 74 71 66
74 88 90 88 82 73 69 66 53 78 90 72 74 91 90 83 79 77 70 65 54 66 76 67 67 71 72 68 66 77 96 100 100 99 95 90 89 88 87 78 76 70 61
86 84 85 90 90 92 86 86 55 92 96 94 83 97 84 84 78 67 54 51 54 58 61 80 81 84 80 75 78 87 99 99 100 100 100 99 98 92 84 79 74 64 63
90 87 79 82 83 84 85 85 77 89 95 93 94 84 78 58 52 53 54 53 53 60 67 79 86 86 89 84 81 89 98 98 99 98 82 94 92 95 87 80 74 55 69
75 74 72 70 70 94 90 89 89 94 100 100 86 79 50 51 53 55 56 52 53 64 79 78 89 92 87 90 91 84 96 100 100 97 90 91 94 90 85 82 74 54 56
68 64 64 68 71 93 99 100 100 99 100 99 86 66 55 57 56 59 54 52 54 63 94 94 88 87 96 99 91 89 94 98 100 88 88 89 96 92 86 86 71 50 43
49 50 53 60 82 97 99 100 100 99 100 93 89 56 62 60 60 53 52 56 61 73 84 97 100 100 98 97 96 91 90 87 86 97 98 99 95 90 93 89 55 20 13
51 50 51 57 80 99 99 100 100 100 100 97 63 66 64 60 53 51 55 58 65 71 80 84 100 100 100 98 96 89 87 86 91 96 99 100 88 87 94 78 22 11 9
58 57 58 69 97 100 100 100 100 99 96 70 62 68 61 54 51 54 57 64 68 77 83 82 90 96 99 97 93 89 89 91 92 98 98 92 90 92 83 28 13 11 11
62 63 65 72 99 99 100 99 99 86 75 64 70 64 56 53 54 54 57 63 67 70 75 78 92 98 98 94 89 92 93 89 98 98 93 96 83 78 34 19 14 12 10
70 73 73 78 95 91 93 98 95 83 74 71 64 58 56 56 55 55 58 68 72 75 96 96 100 98 92 92 92 90 90 96 97 97 78 50 51 24 17 16 14 12 10
82 83 83 82 82 88 93 90 80 74 71 64 60 60 59 58 57 59 68 78 82 91 96 96 96 89 90 90 91 95 91 96 98 91 57 31 21 16 13 15 15 14 13
78 86 86 87 87 86 83 79 75 71 68 66 65 64 62 62 65 70 80 86 90 93 85 78 76 90 89 91 97 98 99 98 82 68 39 23 16 14 15 16 14 17 19
76 86 89 89 86 83 80 76 74 72 70 70 70 68 65 63 67 72 82 93 97 89 48 18 22 68 82 89 95 92 69 60 56 34 21 15 13 14 15 16 18 20 20
85 92 99 98 94 89 84 79 77 77 76 74 72 70 68 67 74 86 91 98 99 75 24 18 17 16 15 16 23 26 27 28 22 16 14 14 12 14 18 23 23 22 23

GFSMA_850_rhum_105.txt.gz
RH
81 98 92 63 44 45 46 45 43 45 47 44 60 66 66 76 78 78 80 77 80 85 77 69 73 75 72 73 78 78 84 70 60 58 60 56 54 47 57 72 72 79 86
63 79 64 46 45 45 47 44 44 45 48 46 51 62 73 80 79 80 80 78 80 81 81 82 80 71 70 70 76 74 83 76 64 65 63 61 56 56 55 58 79 89 82
76 70 50 46 44 45 49 50 57 57 59 68 70 78 78 80 77 74 74 71 74 74 78 84 85 80 75 78 77 76 83 81 71 67 66 65 63 60 58 57 54 57 79
86 60 56 44 46 51 58 53 52 59 72 81 80 80 78 78 74 74 74 72 73 74 78 83 81 61 64 63 69 72 82 86 78 71 67 67 66 60 58 60 59 54 56
77 82 72 66 55 52 51 49 54 61 71 75 75 78 82 76 75 75 75 75 76 76 80 76 50 43 50 50 59 72 83 88 84 78 70 71 69 62 60 58 58 66 57
77 76 67 58 54 57 53 54 59 70 68 64 76 79 78 77 75 78 78 76 75 72 54 34 37 36 34 47 62 76 89 95 92 84 76 78 72 69 65 60 64 80 79
68 71 66 74 70 65 62 64 65 71 73 72 79 78 75 71 75 78 79 73 74 46 32 32 34 35 37 37 64 95 99 94 88 80 81 85 80 73 73 67 80 79 73
82 76 73 83 81 80 83 80 76 74 73 74 87 84 77 73 76 78 77 74 51 39 38 39 34 36 40 43 91 95 89 98 83 95 82 90 85 78 80 78 69 65 74
94 82 84 88 88 84 82 83 84 84 81 80 82 85 80 74 74 78 75 62 54 52 51 50 47 43 45 53 70 96 87 85 100 94 98 92 92 93 88 86 72 70 71
80 91 92 90 83 83 84 83 80 74 81 80 83 85 80 74 72 69 68 71 71 59 60 59 58 51 50 65 64 86 89 87 85 88 99 99 97 94 92 91 83 78 68
78 84 84 84 85 84 74 77 66 76 77 75 80 76 85 79 79 57 65 63 65 66 71 68 72 66 67 61 57 68 87 93 88 85 84 99 99 97 96 86 80 76 68
81 84 84 77 78 66 70 80 74 70 71 74 88 86 81 80 76 50 49 62 66 75 74 73 77 73 72 66 60 66 70 91 98 95 93 97 86 88 89 89 87 77 72
84 89 86 87 92 90 82 78 74 76 80 76 84 97 100 97 68 60 67 72 79 71 75 77 75 74 71 66 66 64 70 93 99 96 96 98 84 87 86 85 83 75 73
71 79 77 87 85 80 78 89 86 97 84 91 62 74 84 100 99 90 84 85 71 64 69 74 64 65 77 77 75 68 69 86 96 92 96 97 94 96 91 88 80 72 71
76 73 87 91 79 77 88 90 92 89 86 88 70 76 84 98 97 88 83 71 55 62 61 64 74 77 83 87 86 83 84 90 96 92 98 98 85 80 91 88 79 75 72
84 81 82 88 84 82 88 97 99 97 96 88 84 82 92 92 85 64 58 55 57 60 63 64 68 77 88 97 90 86 86 90 98 93 99 94 89 82 83 86 79 78 65
68 69 76 79 79 83 99 100 100 100 98 97 94 96 95 86 67 52 55 56 59 56 54 66 72 79 87 89 94 93 89 94 93 96 90 90 91 97 94 86 82 80 49
59 59 62 66 79 99 100 100 100 100 100 100 97 98 99 90 56 57 57 60 56 53 57 59 80 92 98 99 100 99 96 92 92 91 87 87 90 95 88 83 90 65 21
60 61 62 63 65 75 96 100 98 100 100 100 94 100 99 85 60 62 62 56 52 52 57 68 82 86 99 98 98 98 95 89 89 91 92 96 94 89 82 91 80 18 11
56 58 59 61 62 65 98 98 100 100 100 99 100 100 97 74 67 66 60 54 53 58 65 70 86 87 98 99 99 99 93 91 89 85 92 95 95 87 94 81 27 14 10
58 60 63 65 68 73 87 96 97 99 100 100 100 97 77 76 72 63 58 57 59 59 67 73 88 92 92 92 98 95 91 88 89 88 89 89 93 94 74 33 15 13 10
53 63 67 69 72 77 89 98 96 96 99 98 90 81 78 80 75 66 61 61 56 58 66 69 71 84 94 95 96 90 90 88 94 90 93 94 75 57 22 15 12 10 9
52 58 71 79 78 79 81 88 97 98 100 96 89 85 79 70 66 65 60 60 56 58 60 68 78 96 100 89 91 95 89 88 90 97 90 53 26 18 14 14 12 11 11
57 60 63 78 88 86 87 86 86 86 85 81 79 75 70 66 65 65 65 62 61 63 66 74 80 75 72 87 91 92 96 96 99 97 77 51 20 16 14 15 12 12 16
71 69 69 73 84 89 91 89 88 86 82 79 75 72 70 69 67 65 63 64 67 66 75 82 82 69 66 86 97 99 100 99 97 81 53 32 15 15 16 16 14 14 18
93 98 97 98 97 96 100 98 94 90 86 80 77 75 73 71 73 70 65 66 68 72 80 84 59 20 20 63 91 96 100 92 71 52 25 21 14 15 14 16 18 18 20

GFSMA_850_rhum_108.txt.gz
RH
96 85 98 99 90 51 44 42 42 40 40 45 49 50 55 60 70 75 78 80 82 83 82 75 70 74 72 71 72 74 71 83 68 60 62 61 57 52 50 55 78 84 81
99 83 92 98 96 45 44 44 41 38 44 45 41 49 56 78 80 79 78 78 79 79 83 80 80 76 68 70 68 73 74 81 74 66 65 65 62 59 55 56 55 53 67
83 81 66 80 71 50 48 45 45 52 53 54 55 62 73 78 78 77 74 74 70 75 77 77 80 84 78 69 74 72 78 80 80 69 68 67 64 63 59 55 57 58 55
56 65 63 54 50 54 52 49 53 48 51 64 68 71 77 77 76 80 76 74 71 72 76 76 80 77 59 52 60 63 79 84 86 77 72 69 70 68 63 61 58 58 67
71 76 49 69 52 56 52 48 52 53 60 64 71 76 78 78 76 74 71 73 75 75 77 78 77 42 37 42 47 62 84 90 93 86 79 74 76 74 69 65 63 62 76
73 66 69 63 64 65 58 53 55 57 56 66 75 77 79 81 80 77 73 74 76 77 77 72 38 36 34 35 40 64 98 93 97 93 84 80 81 81 74 70 68 64 64
95 86 77 82 75 61 58 55 58 56 65 72 71 76 83 84 81 76 73 75 78 75 67 40 32 34 32 34 35 83 98 95 89 85 88 77 88 86 78 76 75 71 71
86 85 88 83 76 66 63 57 56 65 72 74 74 79 83 86 80 78 78 78 74 75 45 37 44 42 40 40 43 91 94 87 84 82 83 96 90 87 83 84 85 78 70
86 78 76 71 68 70 68 72 72 72 76 76 73 73 83 81 78 75 76 80 77 58 49 47 58 53 49 47 52 62 88 92 87 86 91 77 89 94 81 86 87 85 92
86 68 65 67 72 77 80 80 82 85 85 78 72 74 76 75 75 80 82 81 75 64 65 56 65 63 59 54 51 59 80 97 89 87 84 85 98 100 96 92 92 91 95
85 83 83 77 85 94 86 80 80 81 82 78 81 82 81 81 82 79 73 80 83 73 68 65 74 71 66 63 57 56 63 92 90 90 92 90 91 87 88 86 84 86 85
89 93 90 91 85 86 89 85 82 81 81 83 79 72 66 76 87 88 62 65 65 60 69 77 78 71 70 70 60 60 65 70 82 92 94 89 95 86 83 87 88 84 83
86 87 88 78 76 80 74 71 67 79 77 77 79 80 81 78 98 89 87 58 61 65 78 80 75 74 69 71 63 66 70 68 70 96 96 92 94 89 90 92 92 86 82
87 86 84 87 91 89 83 84 86 80 78 78 76 84 100 100 98 95 85 73 70 77 83 76 66 65 71 70 70 75 75 71 75 93 97 90 89 89 90 78 77 84 78
94 94 89 78 78 92 94 88 79 83 89 88 80 86 86 90 92 89 88 95 82 88 77 62 62 64 74 79 86 84 79 72 76 81 93 92 94 100 88 80 75 78 74
97 95 92 88 84 96 96 88 82 90 96 93 85 86 90 97 94 99 96 99 91 79 61 60 61 63 68 80 88 92 82 79 79 82 92 91 96 91 85 78 80 80 76
98 99 99 90 88 85 88 96 89 89 89 95 99 95 95 98 98 98 94 88 69 57 58 63 64 64 72 75 82 90 96 90 81 93 92 95 92 87 80 89 84 81 80
62 62 63 69 80 85 97 99 99 98 99 100 100 100 99 100 100 100 93 66 55 59 65 63 62 67 78 89 90 95 99 98 94 91 90 90 88 83 92 86 82 83 83
62 63 63 63 63 62 65 74 97 99 98 99 100 100 100 100 100 100 95 60 60 63 64 59 64 70 77 81 87 97 98 98 96 90 88 87 89 86 88 83 86 86 38
48 50 52 54 57 62 67 75 99 100 100 100 100 100 98 99 100 100 89 69 76 70 63 63 67 70 74 76 84 94 98 98 93 92 95 87 88 89 88 90 88 56 14
42 43 52 62 64 65 71 81 89 99 98 98 100 100 100 99 100 89 85 82 90 74 67 69 70 75 72 73 72 83 91 94 92 92 88 86 87 90 93 90 59 15 13
41 44 46 51 62 70 74 78 85 97 98 90 90 98 99 100 100 93 84 86 84 76 72 73 65 76 71 67 74 85 94 94 93 89 87 87 93 93 81 54 15 12 11
46 48 50 54 56 65 79 84 86 90 94 100 99 97 92 89 88 87 89 88 84 84 82 75 63 68 72 66 93 98 88 88 87 88 91 95 83 35 20 15 13 13 13
52 52 53 58 61 68 83 94 95 95 92 92 93 95 98 95 90 86 78 73 73 72 70 69 74 77 78 78 87 88 84 95 96 93 98 96 70 35 17 14 14 13 14
58 56 58 58 66 67 76 90 98 99 97 95 92 90 89 88 85 86 88 81 78 78 78 77 79 81 80 72 71 85 92 99 99 97 96 85 52 20 15 15 14 14 16
80 90 86 91 99 99 100 100 100 100 100 99 96 95 93 90 88 94 91 88 83 75 75 80 81 84 87 77 71 90 92 100 100 98 81 76 35 18 15 16 16 17 18

GFSMA_850_rhum_111.txt.gz
RH
98 96 94 66 56 43 41 44 42 40 38 41 46 46 52 59 55 64 74 80 81 84 81 78 70 69 68 70 69 68 74 74 80 65 64 64 62 59 54 55 55 53 57
94 96 93 69 71 56 47 49 44 42 39 44 50 51 55 65 68 74 76 78 80 78 81 82 74 77 76 74 70 70 74 78 80 73 67 67 66 63 62 59 58 55 55
99 95 94 72 68 61 50 58 51 46 40 45 45 44 53 66 78 77 76 75 76 76 77 78 76 76 81 79 65 71 68 80 80 82 72 70 69 68 68 63 60 57 54
93 100 98 85 63 85 58 54 54 46 44 50 49 52 60 73 76 77 79 78 73 73 72 72 76 78 82 67 53 58 69 80 83 86 79 74 73 74 77 71 65 64 62
99 100 100 86 81 78 63 53 54 56 54 51 54 66 73 77 75 78 77 74 75 74 74 76 75 76 54 40 44 52 79 94 92 92 88 83 79 78 78 76 69 70 67
91 100 95 90 84 70 62 65 55 66 61 56 66 74 79 77 79 82 80 80 76 74 76 78 77 61 34 35 32 36 80 87 92 94 89 84 77 76 79 79 74 71 71
77 92 90 77 77 91 51 60 58 67 68 66 76 79 80 79 82 82 83 82 76 75 80 79 70 36 36 34 35 36 82 98 95 87 85 91 86 87 75 80 82 91 96
67 88 75 59 60 55 54 67 66 63 67 72 78 79 75 75 82 84 84 80 79 80 79 75 50 41 42 42 42 42 72 87 92 90 85 84 90 87 85 83 80 85 95
85 78 80 75 74 73 72 70 68 69 70 68 79 75 81 81 74 79 81 81 81 82 80 69 48 55 59 53 52 51 54 73 86 92 89 88 88 81 96 83 85 89 88
83 82 88 86 72 82 79 66 74 74 71 77 82 82 78 81 80 77 79 80 82 81 80 62 55 57 66 64 63 55 51 68 74 86 89 94 85 95 99 87 84 90 86
99 93 88 92 86 83 77 78 81 85 86 85 85 83 79 81 88 90 77 74 82 83 81 69 61 59 71 74 68 59 55 62 65 86 87 85 90 91 94 88 87 84 84
94 96 92 88 74 68 63 62 72 83 88 89 84 81 76 76 83 82 83 85 80 86 88 78 61 71 80 76 76 65 57 63 63 66 86 90 96 94 96 87 87 87 91
93 93 87 87 81 78 78 79 76 85 82 77 72 73 79 79 69 73 92 98 92 88 89 77 70 78 85 73 73 64 64 69 67 70 78 86 90 93 92 88 86 88 78
84 86 89 93 94 94 90 87 87 79 72 78 67 72 69 85 88 89 98 100 87 87 87 77 73 84 79 72 66 64 66 68 68 70 79 78 94 94 90 89 92 82 79
81 77 74 78 92 87 88 84 86 89 88 94 85 85 92 93 93 100 94 100 100 98 89 86 84 80 71 68 71 71 75 76 76 74 78 90 93 94 92 91 92 81 77
96 97 97 95 94 90 90 93 92 98 99 96 96 98 99 99 99 97 88 96 98 98 86 88 77 67 62 63 65 72 78 83 80 75 71 75 86 90 93 88 84 82 87
99 98 100 99 99 91 88 95 96 98 91 86 98 97 97 100 99 97 92 94 100 100 99 95 74 61 62 63 66 72 80 82 78 79 76 85 88 92 90 84 82 83 84
80 76 81 90 98 100 100 100 100 100 100 98 100 100 99 100 100 99 98 100 100 100 99 74 65 64 64 61 69 77 82 78 78 83 82 84 88 86 84 82 84 82 82
57 60 61 61 61 63 66 68 77 88 98 99 99 100 100 100 100 100 99 99 99 100 92 78 75 70 66 70 71 78 78 79 92 96 90 88 88 86 85 84 82 86 85
41 47 52 57 59 58 61 64 72 80 91 99 99 98 98 98 99 98 100 100 100 100 96 92 86 75 78 80 74 84 83 85 88 91 91 88 89 85 85 86 88 89 67
39 40 39 42 47 53 63 68 73 75 81 83 94 96 95 99 99 98 99 99 100 100 85 86 98 93 79 79 80 78 83 91 94 91 90 88 91 88 87 91 89 74 28
40 42 44 42 40 40 44 53 64 69 76 82 90 97 95 98 100 100 100 99 100 99 99 100 94 94 81 85 91 86 91 87 94 86 86 87 89 88 90 90 74 33 12
41 44 48 48 45 51 60 63 70 85 90 90 90 90 93 98 98 98 99 100 100 97 100 94 90 95 88 91 94 88 85 97 88 86 86 90 92 93 88 45 20 13 12
29 28 33 41 45 50 63 71 76 81 89 95 96 95 94 91 92 98 97 98 98 97 100 90 100 87 94 79 90 85 94 100 98 95 100 97 90 81 60 27 17 14 12
41 39 38 43 52 51 51 69 95 98 99 99 99 99 98 97 95 96 100 97 100 94 94 97 95 100 99 90 88 99 100 100 100 98 98 98 90 70 45 22 15 14 12
31 36 49 64 67 56 50 61 96 100 97 97 95 89 92 100 99 100 98 97 98 91 100 96 100 96 96 87 95 93 88 97 100 100 99 99 84 62 24 16 15 16 15

GFSMA_850_rhum_114.txt.gz
RH
96 98 99 90 81 58 40 39 41 42 40 38 37 36 38 44 52 55 67 76 76 78 75 79 74 69 67 68 66 67 69 74 75 78 66 67 67 65 62 59 59 56 52
85 97 98 95 94 73 51 48 47 44 42 38 39 44 46 50 56 56 68 75 80 81 76 74 76 73 71 74 73 67 68 75 80 76 75 70 70 69 68 69 64 60 57
74 75 95 92 96 87 67 65 56 52 48 43 41 47 50 53 58 66 73 78 78 81 80 79 76 77 76 78 75 53 56 71 72 79 80 74 74 74 74 77 70 63 61
64 86 74 81 88 94 81 74 64 56 47 48 46 50 49 48 56 72 77 78 78 77 77 77 75 76 78 79 61 41 48 79 79 83 82 82 79 80 78 77 74 69 68
62 89 81 77 84 98 96 85 73 60 55 49 58 58 56 56 61 74 77 78 79 78 76 74 75 77 80 71 38 39 44 84 94 92 90 92 86 80 78 82 79 77 73
63 87 95 92 89 100 99 95 71 64 61 52 66 60 64 69 73 78 79 80 78 77 77 75 77 80 76 42 34 34 38 69 92 98 94 85 89 87 85 89 91 83 79
77 89 96 99 100 100 84 93 93 79 66 62 73 64 71 73 75 74 77 81 82 82 79 78 80 80 65 34 35 37 43 95 99 88 94 88 88 90 91 94 92 90 90
89 87 98 99 91 89 84 79 78 82 70 76 74 79 81 72 64 70 77 82 82 82 79 80 82 77 59 40 41 45 50 75 84 82 89 94 88 81 87 88 94 87 86
89 90 91 85 85 90 73 77 83 83 69 74 78 85 82 76 66 64 70 80 81 83 81 83 83 79 52 53 58 56 52 53 62 78 92 85 87 87 84 98 92 86 88
96 100 89 86 81 70 72 62 61 68 75 80 82 81 86 82 83 80 75 77 80 82 82 85 85 78 55 56 63 66 61 54 56 60 68 85 90 82 96 98 90 87 84
95 96 99 96 85 82 57 55 64 59 64 74 81 80 85 85 85 86 84 80 78 77 70 74 82 83 72 62 66 72 72 58 53 50 66 84 86 85 95 99 86 89 83
96 98 100 91 98 99 84 82 69 68 76 76 84 87 82 82 88 84 83 78 72 65 70 83 80 86 78 72 76 79 74 61 55 58 55 66 85 93 100 96 90 86 86
99 100 100 100 100 88 88 86 79 76 80 84 83 80 78 81 78 80 79 77 79 68 74 92 92 91 86 88 92 87 76 68 62 60 55 62 70 75 92 85 89 87 84
99 98 97 97 93 90 89 87 86 82 81 79 70 95 86 79 79 85 93 99 100 98 98 98 98 96 94 94 96 92 73 69 63 60 61 60 64 65 68 86 88 88 89
99 98 98 97 92 90 84 83 75 75 80 84 88 90 89 89 93 95 94 92 97 100 98 88 97 96 85 92 96 87 75 73 64 65 65 65 65 72 80 86 89 90 85
97 95 93 89 85 87 92 87 94 91 90 89 90 93 90 94 93 94 98 98 100 100 100 89 89 88 94 96 99 79 82 76 74 74 76 73 72 76 83 89 87 90 82
99 100 100 100 100 100 100 97 99 98 98 96 100 100 100 100 100 100 100 100 94 100 100 99 100 98 97 97 87 85 88 94 85 88 85 85 81 87 88 88 90 83 80
87 78 86 97 99 100 100 99 98 100 100 100 100 100 100 98 99 100 100 100 100 100 100 99 100 100 98 94 92 90 85 98 98 95 88 89 87 88 92 89 85 81 81
56 58 60 63 65 67 69 71 71 75 79 89 97 99 99 99 100 99 96 98 98 100 100 100 94 99 92 92 92 99 100 100 99 91 89 90 95 91 88 86 86 86 82
40 40 41 42 44 50 54 57 60 62 67 74 84 93 99 98 100 100 100 100 100 100 100 100 100 100 96 90 94 99 93 97 100 91 92 92 95 95 91 89 90 86 86
34 34 35 37 39 40 41 42 46 50 57 63 68 74 81 90 96 99 100 98 99 100 100 100 100 97 95 95 92 83 90 97 95 88 94 98 97 93 95 90 89 89 78
32 31 31 33 32 36 37 40 47 49 51 53 57 64 77 83 87 96 98 98 100 99 100 100 100 99 96 92 91 92 100 93 88 87 90 90 89 91 92 91 92 88 60
26 26 28 29 30 37 43 44 46 49 59 66 72 75 76 86 92 94 94 99 100 100 100 98 100 100 98 100 92 95 100 92 85 87 92 83 90 91 95 93 92 55 15
18 21 22 22 22 29 34 38 41 46 55 63 74 83 96 98 97 93 97 96 98 99 99 100 100 96 100 99 99 100 100 99 99 100 99 98 90 92 93 89 54 20 14
24 26 28 31 32 29 34 37 38 40 39 44 60 85 90 89 88 90 96 95 94 92 98 100 100 99 100 99 97 100 98 96 100 99 100 100 100 94 91 82 52 22 14
26 27 29 30 31 32 33 37 44 61 64 69 78 88 99 99 87 89 100 100 99 97 95 100 99 99 100 100 100 100 93 91 99 100 98 100 100 98 90 58 31 20 15

GFSMA_850_rhum_117.txt.gz
RH
73 84 92 88 97 89 59 46 39 44 46 45 47 44 40 42 48 54 60 68 70 72 78 74 76 70 65 67 69 72 64 72 77 75 73 68 68 68 68 68 68 61 58
68 73 85 92 99 92 80 66 44 46 48 50 47 45 42 42 48 54 58 66 74 79 76 74 72 71 73 72 70 70 64 64 70 68 74 73 70 72 72 75 74 66 59
76 76 79 77 80 90 89 90 72 57 54 54 45 43 48 52 53 56 60 68 75 78 82 79 78 78 74 76 77 78 59 55 72 71 73 77 76 75 77 76 76 75 72
73 71 80 82 84 92 83 92 83 82 68 58 54 46 49 54 55 54 59 71 76 77 78 78 80 78 74 76 78 66 41 48 52 80 81 85 83 82 82 78 79 78 78
61 63 67 82 91 91 92 93 85 93 79 68 59 55 48 57 53 52 59 72 77 78 79 78 76 75 76 79 76 43 37 36 60 88 95 94 92 86 87 84 84 82 78
56 56 56 66 94 96 90 97 92 58 72 75 70 66 56 60 63 62 69 77 78 79 79 78 77 76 78 81 72 33 33 35 47 88 98 92 91 86 86 88 90 88 87
59 59 58 65 69 96 99 100 100 86 78 78 81 71 64 64 60 60 73 76 80 80 77 80 81 78 80 81 65 34 35 38 71 87 82 83 93 89 85 78 92 86 86
60 66 67 66 81 100 100 100 100 87 85 80 82 82 86 66 57 56 65 74 73 80 81 80 83 79 82 82 70 41 42 47 55 52 57 71 82 86 83 85 83 87 84
64 73 94 88 90 92 95 99 98 82 84 71 77 80 86 81 65 58 54 60 65 72 78 71 77 83 86 86 71 49 56 60 54 51 54 64 76 70 78 89 91 93 87
89 99 97 90 89 96 96 100 88 78 75 59 88 88 83 83 82 74 72 71 66 73 78 78 74 70 76 82 78 61 64 66 63 56 67 85 80 80 85 92 94 100 90
89 89 99 92 95 93 84 97 98 77 77 76 60 68 80 72 90 84 84 77 72 68 73 72 69 66 73 77 83 68 69 76 74 66 57 58 57 76 88 95 94 96 89
95 98 100 100 98 99 77 75 80 75 67 62 58 58 76 76 78 76 76 75 74 77 74 72 71 78 71 83 88 85 77 77 86 72 59 53 59 94 97 96 90 98 89
90 90 100 94 94 99 95 84 66 68 70 67 68 75 75 78 82 89 85 88 92 79 76 66 68 72 80 93 96 94 88 83 90 81 64 56 70 97 89 99 94 98 90
93 100 100 100 100 99 93 98 85 80 91 91 89 80 79 74 78 86 89 94 99 98 88 85 78 83 86 91 99 100 99 96 97 85 70 68 89 88 83 82 83 89 91
100 100 99 100 96 93 94 97 99 93 88 88 88 82 76 83 83 78 96 100 100 100 100 98 97 93 85 82 97 100 96 98 98 89 76 74 77 76 75 77 82 90 89
98 100 97 99 100 99 99 97 90 86 89 93 92 90 90 84 86 98 99 100 99 100 100 97 97 91 85 92 99 100 99 100 100 98 86 82 86 81 78 77 88 90 87
100 100 99 100 100 99 99 97 95 94 95 100 98 97 91 96 99 99 100 100 99 100 100 98 99 98 95 99 97 99 98 98 92 89 92 91 93 92 83 80 87 84 88
97 94 92 96 99 100 100 100 100 100 100 97 100 99 98 99 99 100 100 98 99 98 100 100 100 100 100 100 99 100 100 87 88 88 86 97 91 92 88 84 90 89 85
64 59 58 59 60 63 67 72 76 80 82 84 85 83 83 86 86 94 97 95 95 96 99 100 100 100 100 100 100 99 99 95 96 89 85 96 86 85 91 87 90 87 86
35 34 34 35 35 36 36 39 44 47 52 58 62 66 71 77 84 92 98 96 96 97 98 99 100 99 100 100 100 100 99 89 94 91 88 89 89 96 99 89 90 88 88
30 31 33 36 38 38 36 34 39 41 40 42 47 54 61 71 83 90 94 98 98 99 100 100 100 99 100 100 98 96 97 97 100 92 85 92 97 99 99 96 88 92 90
25 26 25 24 25 28 28 31 30 32 35 38 40 44 50 55 62 70 84 96 97 96 98 100 100 100 99 98 100 99 100 100 99 94 94 86 93 97 93 90 92 97 87
17 17 18 18 18 19 19 21 21 24 25 28 30 31 35 45 57 64 69 86 94 94 89 90 96 98 100 99 100 100 100 98 93 88 90 94 97 93 85 97 89 95 89
12 13 15 18 21 23 24 24 24 29 31 34 36 38 40 40 37 71 86 87 88 93 100 100 100 99 96 98 100 100 100 100 100 100 100 100 97 89 89 96 94 98 90
19 18 18 19 22 26 31 35 34 33 33 35 38 41 55 78 88 84 90 97 96 85 82 98 100 100 100 100 97 100 100 100 100 100 100 100 100 100 94 95 96 92 56
21 25 31 30 31 32 35 38 40 42 42 40 42 44 41 38 86 97 99 97 83 97 99 92 91 98 100 100 100 96 100 100 100 100 100 100 100 100 100 98 94 82 41

GFSMA_850_rhum_120.txt.gz
RH
98 93 82 88 88 92 91 76 83 85 53 42 46 47 61 67 74 75 66 56 61 67 70 73 74 74 65 64 68 73 72 63 65 74 72 73 68 68 69 71 73 68 63
88 84 89 92 94 83 93 91 64 79 46 52 53 55 51 59 57 58 64 68 60 68 72 72 70 72 70 70 71 70 73 68 53 66 69 77 75 71 72 73 74 69 70
87 93 84 90 94 95 90 88 83 64 58 78 56 61 55 47 57 64 69 76 74 68 76 78 76 77 77 74 75 76 76 57 48 59 76 78 81 76 76 78 74 75 74
78 83 80 86 87 89 92 90 87 89 74 54 76 68 54 60 65 72 68 78 80 72 76 76 78 79 79 78 77 79 76 43 39 46 76 83 85 82 84 80 76 79 80
72 72 72 71 83 80 90 94 92 85 82 62 44 71 54 55 56 70 68 72 66 70 77 76 78 78 75 73 77 80 76 36 34 38 69 85 88 86 81 82 82 84 83
73 63 59 62 61 76 88 93 96 92 93 70 59 60 64 53 58 57 76 68 72 66 73 75 75 75 76 75 78 80 66 34 35 42 60 69 74 76 86 81 82 82 85
73 62 60 60 61 72 84 95 96 99 98 90 85 74 68 62 58 56 67 66 71 68 73 75 76 77 78 76 77 79 71 38 36 40 59 76 79 76 80 84 83 79 83
66 61 60 64 74 90 99 99 99 99 100 96 67 62 70 72 72 64 65 65 53 66 69 66 74 76 71 78 79 79 76 51 41 52 78 67 65 78 81 89 87 90 90
57 60 61 65 77 88 98 99 97 99 97 96 92 78 89 78 72 66 66 66 59 64 68 70 72 72 69 73 70 67 68 70 63 75 73 65 59 70 88 81 85 92 92
60 60 60 70 87 98 99 99 99 100 98 99 96 75 81 80 82 76 54 62 68 74 63 66 68 71 72 69 68 68 67 64 64 78 76 81 92 94 88 86 86 88 94
66 67 73 92 99 97 100 100 100 98 100 100 98 100 84 85 89 83 66 67 75 76 60 70 73 74 71 74 73 71 77 70 69 67 71 76 78 96 100 99 90 94 99
78 76 82 96 98 99 99 100 99 98 99 100 98 96 82 78 70 66 75 71 72 69 74 74 75 72 81 81 81 79 74 86 83 78 84 90 77 98 96 91 92 100 100
82 82 86 84 83 97 100 100 100 89 98 99 90 84 80 72 63 67 73 87 89 77 70 73 71 80 80 78 76 77 84 94 96 93 94 94 94 94 89 86 98 99 100
88 89 85 87 85 89 100 100 94 81 88 96 83 86 83 79 83 80 88 93 83 98 88 76 84 79 80 84 87 95 99 100 100 100 97 98 82 91 80 98 100 99 92
89 90 87 89 91 87 99 100 100 100 94 85 88 82 91 88 93 97 94 94 86 100 96 98 100 94 86 86 89 89 89 92 100 100 98 99 84 70 68 92 96 76 79
96 99 100 99 100 98 94 93 96 99 100 89 89 97 94 97 99 94 89 91 90 100 100 100 98 93 89 95 92 91 85 92 99 99 99 99 82 83 74 77 67 66 72
100 96 99 99 99 99 100 100 100 100 98 95 96 92 95 90 89 94 98 96 100 100 100 99 100 99 97 99 95 98 98 96 100 98 100 100 87 82 79 76 73 69 75
100 100 100 100 100 100 100 100 100 100 100 100 100 99 100 100 99 100 100 100 100 100 100 100 99 99 99 98 99 99 100 100 100 100 100 100 100 88 85 80 75 68 74
80 76 76 77 70 72 78 89 93 90 91 94 93 92 89 85 85 86 89 90 96 100 100 100 100 100 100 98 99 99 99 100 100 100 100 100 100 97 90 83 72 80 82
45 43 42 41 41 41 42 44 46 47 49 50 51 52 55 59 64 67 72 74 77 81 84 90 94 95 97 97 99 99 98 99 99 100 100 100 99 97 93 83 74 76 85
34 34 34 35 34 35 33 33 33 32 31 32 33 34 34 36 41 48 60 64 80 94 98 95 89 84 84 82 80 82 99 100 98 100 98 98 98 100 92 88 76 73 81
23 24 23 21 20 17 17 15 15 16 16 16 16 16 17 17 20 25 34 61 78 86 98 100 100 100 98 100 96 92 98 100 100 96 100 100 100 92 94 93 93 81 84
14 15 16 18 18 16 14 14 17 17 19 19 20 22 22 23 26 39 44 37 52 70 84 90 98 98 100 99 100 99 100 100 99 100 100 100 98 99 100 100 100 97 91
16 16 15 16 18 20 23 24 25 25 27 27 27 28 31 33 41 36 47 76 76 85 61 86 94 90 91 98 100 99 100 100 100 100 100 100 99 100 100 100 100 99 100
16 17 18 20 22 25 26 29 30 32 35 37 42 45 43 61 68 55 65 61 55 47 63 73 96 85 91 100 100 100 99 100 100 99 100 100 100 100 100 100 100 100 98
19 21 22 24 26 29 31 31 32 42 45 38 39 36 36 38 43 48 78 83 81 56 82 70 78 81 89 99 100 100 100 100 100 100 98 100 100 100 100 100 100 100 100

GFSMA_850_rhum_123.txt.gz
RH
86 91 89 88 92 98 99 89 76 69 72 79 84 74 76 74 75 74 73 70 58 60 63 66 68 74 76 66 60 66 74 68 69 56 68 69 72 68 66 68 70 72 63
88 95 94 90 87 88 99 97 88 75 73 86 79 72 72 70 69 68 71 73 70 56 61 66 70 66 71 73 72 70 70 72 67 50 51 60 72 72 70 70 73 74 70
96 95 94 99 87 86 98 98 92 89 82 81 80 75 72 68 65 64 66 73 77 74 57 63 68 69 69 73 75 74 74 76 71 42 50 51 72 73 77 73 74 72 73
100 98 94 95 96 98 92 96 98 93 87 83 79 72 52 55 64 67 69 72 75 81 76 63 66 68 70 73 74 74 77 79 74 37 41 51 76 82 82 81 78 76 77
97 98 97 100 90 94 98 96 92 99 100 92 88 81 70 52 45 53 57 58 70 75 66 73 67 69 72 74 74 73 77 79 69 34 36 41 67 87 88 82 83 82 83
97 95 92 96 96 90 93 99 99 99 98 99 99 96 79 77 78 64 57 51 46 54 68 51 66 64 68 73 74 75 77 79 72 40 35 38 44 70 80 77 80 87 85
83 86 89 77 92 89 92 92 88 90 100 97 100 98 95 90 94 74 60 57 50 43 66 62 72 69 73 72 74 75 75 77 73 62 47 40 46 62 66 79 84 88 84
87 87 82 77 80 90 87 99 98 93 93 97 97 99 99 90 79 65 56 56 52 50 82 86 85 78 78 79 70 69 71 65 62 60 61 61 69 62 66 75 85 88 85
75 80 79 77 63 63 93 94 89 88 95 93 99 99 90 81 64 67 72 70 71 59 70 73 74 76 74 78 76 75 70 68 69 71 69 67 73 68 63 66 86 89 88
84 70 65 64 56 58 90 90 89 94 90 96 93 95 100 89 77 77 79 73 68 55 59 67 68 68 68 69 66 58 67 72 76 79 78 88 88 85 77 82 89 86 85
69 66 64 62 61 72 90 85 91 98 99 97 99 100 99 100 90 99 97 84 70 55 55 52 56 60 53 68 75 70 72 74 78 78 79 82 100 99 96 94 92 86 90
87 59 63 63 73 85 88 96 96 99 100 100 100 100 99 99 99 100 98 84 74 61 58 52 55 67 69 70 66 64 67 73 76 87 89 93 99 96 94 94 97 87 87
54 52 64 73 93 96 97 94 98 98 97 100 97 99 100 100 99 92 85 84 73 68 66 61 62 68 68 68 67 73 75 76 85 92 98 99 99 93 87 87 87 90 94
57 61 76 83 81 83 85 95 92 97 100 100 100 99 100 98 94 89 87 79 91 90 79 78 68 63 58 63 86 86 87 87 84 91 98 98 98 99 90 93 86 88 78
81 76 87 83 85 84 91 90 98 100 100 100 91 100 98 95 92 94 97 98 97 100 97 81 96 83 84 95 92 98 95 92 90 94 100 100 100 100 94 94 82 88 87
100 96 96 86 84 93 99 97 99 99 100 100 100 96 93 90 90 96 97 95 99 100 100 98 97 96 98 99 99 99 92 95 98 98 98 100 100 100 98 97 88 81 80
100 99 98 99 99 100 100 98 97 99 100 100 100 98 94 88 99 100 99 100 100 100 100 100 100 99 95 87 87 91 90 86 93 91 100 100 100 99 100 100 97 86 81
100 99 97 100 100 99 99 100 100 100 100 100 100 100 100 100 100 100 100 100 100 99 100 100 100 100 99 98 95 99 98 95 94 95 98 98 100 100 100 100 100 93 86
100 98 99 95 96 98 100 100 100 100 100 100 100 100 100 98 96 89 81 75 71 68 70 80 84 87 86 79 74 78 78 83 83 86 97 93 100 100 99 100 100 99 91
79 75 73 76 80 58 58 60 59 57 55 54 52 51 49 48 46 45 45 46 50 49 51 80 99 99 99 98 98 96 84 75 78 78 86 93 99 100 100 100 100 100 100
44 40 39 37 35 34 32 30 28 27 26 25 23 22 21 20 19 20 22 23 29 39 52 66 96 93 88 90 96 94 99 98 98 98 92 87 97 100 100 100 100 98 92
25 24 22 19 16 14 12 12 13 14 14 15 16 19 19 23 26 38 48 38 29 47 67 96 99 100 99 96 88 94 93 96 100 98 94 97 100 99 100 99 100 100 100
16 16 17 17 14 14 14 15 14 14 16 17 19 19 20 25 29 27 29 27 25 25 47 100 100 99 99 98 99 99 99 100 100 93 100 98 98 99 100 100 100 100 100
17 17 18 18 17 19 20 16 14 16 17 17 18 20 20 25 31 29 30 30 32 31 41 40 50 73 98 98 99 99 98 98 98 98 100 99 98 98 99 99 100 100 100
18 19 20 20 18 16 18 22 21 20 20 21 25 29 26 35 33 33 88 99 83 56 56 57 48 47 49 73 86 92 93 98 98 98 99 100 99 100 100 100 100 100 100
21 21 20 20 23 24 24 22 22 33 32 26 31 44 72 42 28 31 51 56 63 59 52 40 38 43 78 94 99 98 99 100 100 98 98 99 100 100 100 98 100 100 100

GFSMA_850_rhum_126.txt.gz
RH
88 84 84 83 84 88 88 92 79 47 33 34 56 78 75 76 73 65 71 66 63 53 51 55 56 62 68 74 60 60 64 70 65 63 48 45 57 67 69 66 65 67 70
88 87 83 81 85 90 93 98 90 73 68 65 73 77 66 64 62 68 72 68 54 47 45 50 57 63 60 62 64 67 69 70 71 71 51 45 50 67 72 72 71 72 72
87 87 88 85 87 85 93 100 97 90 74 72 74 70 52 52 52 49 51 52 48 46 46 43 48 60 66 66 68 72 73 72 75 75 66 42 49 50 72 76 78 75 70
92 91 85 90 91 91 89 96 93 92 88 83 80 80 74 71 65 60 56 58 53 56 43 40 38 48 60 68 72 73 71 72 75 71 54 33 33 39 58 76 77 77 72
98 97 96 89 91 93 91 91 93 94 93 90 84 83 82 76 67 64 62 67 68 69 65 47 42 40 53 65 72 75 74 75 76 74 66 38 34 36 42 58 71 77 70
100 98 93 93 92 96 94 89 89 92 96 99 97 94 92 89 82 72 68 66 65 67 55 52 52 46 49 64 71 75 76 75 76 76 71 64 54 43 44 49 64 72 72
74 88 78 75 85 87 80 80 89 89 92 98 100 97 93 95 91 82 77 64 62 55 52 54 61 67 54 68 76 76 75 80 78 79 68 68 70 58 56 66 67 70 73
86 93 84 79 79 85 81 81 88 95 92 92 95 92 96 88 88 86 82 79 68 57 54 60 78 66 47 63 76 71 71 66 70 66 67 71 72 73 73 82 86 75 65
98 100 98 89 87 86 80 70 78 87 93 87 88 92 93 93 82 79 73 66 66 72 75 72 76 60 64 70 62 63 62 67 63 62 71 75 77 74 74 80 88 86 75
95 96 93 96 93 90 80 69 81 92 93 92 87 83 91 93 94 81 77 69 76 84 84 80 75 78 70 64 61 59 56 57 53 54 70 66 72 79 89 85 90 95 95
98 99 87 84 80 77 67 73 72 87 89 90 89 97 90 89 97 100 90 85 80 78 73 73 78 74 60 58 54 54 57 55 58 64 63 70 73 78 93 89 100 99 92
88 99 89 81 70 65 68 68 77 88 88 90 96 98 98 99 99 98 100 98 91 86 82 80 69 66 63 58 57 59 62 67 70 69 78 81 81 88 94 92 99 90 97
86 84 80 74 80 77 74 70 82 86 88 89 92 100 100 99 98 98 100 98 95 88 81 76 76 70 65 66 70 66 67 75 83 90 86 84 83 89 93 93 91 93 96
82 77 69 61 64 76 82 83 85 86 93 97 93 99 99 98 100 100 100 99 94 88 83 74 72 74 74 71 70 74 84 99 92 92 88 90 87 87 92 93 93 98 98
98 90 84 77 70 67 78 82 85 84 98 99 97 99 100 100 99 100 98 94 93 100 98 82 92 76 86 85 94 100 100 99 97 93 85 85 91 92 94 99 98 100 98
94 96 99 90 75 97 98 85 95 100 99 99 100 100 99 99 100 99 95 94 100 100 100 99 97 98 100 99 99 99 98 90 84 81 82 80 87 86 99 100 99 100 100
98 98 97 98 98 81 79 98 98 99 100 100 99 100 100 100 100 100 100 100 100 100 100 99 100 100 99 100 97 82 69 64 61 66 79 84 85 83 89 96 100 100 100
97 98 98 99 100 94 100 100 99 100 100 100 100 100 100 100 100 100 100 100 100 100 100 99 95 84 72 63 59 55 46 48 53 49 58 62 76 92 100 100 100 100 100
100 99 98 99 100 98 86 100 99 100 100 100 100 100 100 100 100 99 96 86 72 62 58 60 52 45 49 40 34 30 28 32 40 55 64 73 80 83 95 100 99 100 100
100 86 94 100 97 87 93 85 76 72 67 66 60 54 48 43 39 36 31 27 23 20 19 19 22 28 44 56 87 92 82 73 75 67 69 71 79 82 87 91 98 100 99
77 75 74 63 64 74 63 34 30 26 23 21 19 17 16 14 16 14 15 15 15 15 16 23 37 81 91 95 95 98 99 98 98 99 88 74 67 73 73 82 93 99 100
34 34 31 27 24 19 15 12 11 12 13 14 15 16 17 15 16 16 15 15 21 27 29 39 49 66 80 97 99 95 92 94 98 93 93 91 95 85 79 75 82 95 97
24 23 19 17 16 15 16 15 12 13 13 15 16 15 17 19 16 17 18 16 16 21 26 34 49 45 62 59 80 87 80 89 89 85 86 89 89 90 88 99 98 98 98
18 19 18 17 17 17 18 14 13 12 13 16 19 17 16 17 15 17 16 14 13 14 18 22 36 46 51 56 68 88 99 99 97 94 77 91 95 77 87 82 96 97 100
18 18 19 18 16 16 16 15 15 17 19 16 14 16 18 20 20 18 22 26 21 19 19 23 38 56 73 96 100 100 96 98 98 98 98 99 98 96 99 91 98 99 98
20 19 20 20 18 17 19 16 14 14 15 19 24 28 29 24 33 35 34 34 38 47 41 30 30 42 60 79 98 97 100 100 100 100 97 100 98 100 99 99 98 92 98

GFSMA_850_rhum_129.txt.gz
RH
88 87 87 84 79 80 83 86 85 76 43 30 34 36 54 66 62 63 64 61 57 49 42 41 43 45 50 54 71 60 62 65 66 66 63 65 44 44 58 65 67 66 67
91 91 88 82 86 84 81 83 83 87 72 43 39 49 66 76 71 70 62 62 58 53 43 39 44 45 50 52 52 60 67 67 70 71 73 60 36 42 42 61 69 72 71
86 90 86 78 80 85 84 92 92 92 87 73 70 70 71 71 72 69 65 69 68 63 52 53 45 49 51 54 56 55 60 70 74 73 76 68 39 34 40 50 65 72 78
80 82 84 86 85 86 84 90 95 98 95 83 74 76 77 77 70 63 62 64 62 59 60 62 54 48 50 56 64 67 69 70 72 73 75 74 57 40 40 44 54 68 76
80 84 89 88 93 88 86 88 92 97 94 92 82 79 81 82 81 77 71 68 66 67 69 66 60 50 55 57 65 68 70 77 76 75 76 76 77 64 56 48 52 61 76
82 81 90 96 90 92 93 92 90 90 88 87 91 91 90 85 86 87 84 79 67 65 63 61 59 53 53 59 60 66 67 67 76 76 74 76 68 67 66 63 61 64 71
80 81 97 100 96 90 86 86 86 84 80 80 91 82 86 87 82 81 78 83 80 67 62 62 60 53 56 67 67 63 60 66 69 73 76 74 66 68 70 67 67 71 78
86 81 86 84 81 80 83 81 77 75 77 77 94 98 98 86 74 76 78 76 74 76 82 75 64 61 70 71 69 73 71 62 65 65 70 64 62 68 73 75 76 72 80
92 82 83 82 81 74 77 70 67 69 72 71 78 93 91 90 82 78 77 78 77 76 69 69 69 67 80 77 80 70 73 67 67 67 65 58 54 62 71 80 83 85 84
77 90 84 98 88 83 82 78 77 80 76 68 83 90 93 98 96 85 81 78 80 74 68 73 78 81 80 80 78 64 59 56 58 62 72 68 68 66 69 81 93 96 87
58 59 83 93 97 80 75 75 78 77 70 76 83 87 89 92 93 100 98 97 94 85 84 92 91 87 92 84 77 74 72 68 64 71 71 72 70 67 70 81 94 95 91
67 74 76 83 85 84 83 78 79 75 72 87 92 89 87 99 98 98 100 100 98 92 90 89 85 80 82 77 69 70 76 77 75 72 74 76 66 78 95 90 89 91 91
65 78 81 78 78 79 76 78 86 83 88 94 89 95 98 95 100 100 100 100 99 98 92 90 82 79 77 81 79 85 87 80 81 94 100 95 90 88 89 89 85 87 90
63 75 77 76 79 80 84 92 82 64 66 86 87 86 94 98 94 94 99 99 100 96 91 83 80 80 81 92 98 100 97 98 98 99 96 92 90 88 86 87 87 83 97
81 84 82 82 79 81 85 86 100 100 94 95 94 96 100 94 86 97 100 100 100 100 97 79 89 98 98 100 100 99 100 100 98 95 96 87 79 81 80 79 86 89 97
93 93 90 99 99 100 98 98 98 99 99 100 99 100 100 99 100 100 100 98 100 100 100 98 100 100 100 99 99 99 100 99 93 90 78 66 57 63 67 74 82 92 100
88 96 91 89 93 98 99 99 95 90 87 99 98 98 100 100 100 100 100 99 100 100 100 100 98 100 100 99 99 98 90 66 48 40 41 41 39 39 41 58 81 85 94
90 89 88 89 86 92 89 92 98 99 99 99 100 100 100 99 100 100 100 100 100 100 100 99 98 94 79 58 39 27 18 15 16 15 14 14 23 42 62 63 73 79 98
99 96 92 95 95 99 96 95 87 88 98 100 100 99 100 100 100 100 100 100 96 82 62 53 35 23 16 14 15 17 20 18 22 29 25 19 23 32 46 64 80 84 87
99 100 100 100 94 94 98 98 89 85 94 96 93 88 76 70 57 42 34 28 21 17 16 16 16 13 13 10 15 21 19 25 38 26 17 22 32 61 78 74 70 78 82
99 97 93 78 77 80 95 79 65 39 41 34 28 23 19 16 14 13 13 14 13 12 12 12 14 17 18 19 34 35 47 37 33 33 34 44 36 50 48 60 66 75 79
45 44 44 46 37 45 36 21 19 22 21 17 18 16 16 16 15 13 12 12 12 12 12 15 15 20 18 30 37 44 50 59 97 64 94 92 90 68 47 67 66 86 85
22 19 18 19 20 19 20 20 17 17 18 18 19 20 16 14 13 14 14 14 13 15 15 18 20 32 31 34 55 63 76 92 98 88 92 97 98 80 78 78 76 82 86
21 20 18 19 19 17 17 15 14 15 18 19 18 18 18 16 14 14 12 12 14 17 19 22 29 28 41 66 93 100 99 98 97 98 98 100 85 82 96 96 84 95 86
18 18 17 16 15 15 15 14 14 16 19 19 18 17 16 17 18 17 17 19 21 24 26 29 34 41 50 57 83 96 92 98 98 98 83 96 98 99 87 94 92 99 98
17 16 17 16 15 17 18 17 15 17 17 18 19 22 23 21 22 25 29 32 34 43 38 35 44 48 50 64 97 100 100 100 100 99 95 100 100 100 98 98 87 96 99

GFSMA_850_rhum_132.txt.gz
RH
72 78 73 73 76 79 80 81 83 86 77 44 38 40 40 57 58 67 72 70 69 67 61 56 53 51 51 51 56 65 60 57 63 66 70 70 67 48 51 54 70 73 73
88 85 88 87 86 83 84 84 82 83 87 85 54 36 37 52 67 74 76 75 71 70 68 64 55 53 54 56 58 59 64 67 68 67 70 74 71 60 42 48 51 66 71
85 80 82 88 89 84 82 87 82 85 90 90 75 52 46 52 61 70 74 72 73 71 67 69 61 54 55 56 59 64 62 64 68 72 72 74 73 61 37 36 40 46 52
84 84 86 88 84 80 85 87 84 82 87 89 87 74 72 73 74 78 81 74 67 68 66 63 61 62 60 56 55 60 66 68 70 72 71 73 76 73 61 51 48 50 55
88 86 89 82 82 83 86 90 89 85 89 92 95 91 78 76 79 82 81 75 69 68 66 62 63 64 58 59 59 55 61 69 73 74 72 71 75 74 67 62 59 59 61
98 87 84 83 82 90 89 90 94 88 92 88 89 94 88 82 83 81 80 85 86 83 84 69 63 62 58 61 59 62 60 71 75 72 72 74 75 77 67 63 62 66 67
97 93 86 83 85 85 92 91 92 86 89 85 89 88 86 87 84 79 77 79 78 72 77 78 66 63 61 61 62 66 69 69 72 76 78 76 77 80 68 66 68 71 70
64 98 87 82 81 91 98 88 83 86 86 83 80 81 84 82 81 76 74 70 66 61 67 74 78 80 79 70 65 68 77 73 73 78 75 75 77 82 80 77 77 73 75
25 52 88 86 84 89 91 86 81 81 80 75 72 86 91 84 74 71 66 66 66 63 63 74 75 73 77 81 73 73 77 76 76 71 70 67 74 75 74 76 80 85 85
58 50 40 87 82 82 84 81 80 78 74 68 69 73 76 79 91 88 81 82 82 80 78 75 73 72 69 70 75 80 78 77 70 71 60 65 75 72 72 86 100 93 97
56 63 64 66 90 81 77 76 80 79 77 74 74 72 70 83 90 97 99 97 94 98 94 85 82 82 73 80 88 87 92 75 72 73 76 78 72 74 89 90 98 98 89
54 57 59 79 70 86 80 82 78 78 78 77 75 76 82 81 86 97 100 100 92 87 91 91 86 88 92 88 97 95 90 86 80 84 84 84 85 91 94 90 89 87 85
52 51 54 68 80 76 80 83 84 86 82 80 70 71 84 88 94 97 99 97 99 98 92 85 79 96 93 91 93 90 88 88 86 92 90 90 93 97 96 93 91 86 82
69 76 78 62 75 81 87 87 89 93 83 84 90 99 96 95 100 99 99 100 100 99 99 88 90 96 87 87 89 90 87 92 96 92 91 93 100 94 92 85 80 80 79
70 71 70 76 89 81 74 81 84 94 99 99 97 99 99 98 98 98 100 100 99 100 98 97 97 90 89 93 92 97 99 98 100 100 100 100 96 90 89 77 64 56 58
83 84 73 85 84 96 99 95 98 94 94 94 95 94 94 92 98 95 99 99 98 100 100 98 97 100 100 100 100 100 99 100 100 100 96 91 79 63 44 36 33 33 38
88 78 88 90 91 86 88 89 91 92 95 96 98 97 89 97 98 100 100 100 96 100 100 100 100 100 100 99 100 100 100 98 87 61 42 25 16 12 12 13 19 31 43
81 83 86 86 83 81 83 84 88 78 95 97 98 100 99 98 99 100 100 99 98 100 99 100 100 100 99 87 63 29 18 14 13 13 12 11 12 17 21 29 30 42 54
99 99 98 85 88 89 91 93 98 100 99 100 100 99 100 100 98 100 100 100 100 100 99 93 72 38 17 13 11 10 8 7 9 9 9 11 11 12 16 21 40 56 65
100 100 100 100 98 98 100 99 100 99 100 100 99 87 96 95 94 84 60 42 26 20 18 18 15 12 12 12 14 16 10 11 10 10 14 16 17 16 17 27 44 49 56
100 100 99 93 91 80 95 96 80 49 48 56 81 50 36 36 22 22 19 17 16 16 16 16 17 17 19 17 21 23 30 24 19 18 22 22 22 22 21 39 46 53 72
43 45 48 42 36 45 82 24 23 30 30 18 16 22 25 27 26 20 16 15 14 14 12 12 14 15 18 23 22 27 32 48 92 22 57 63 57 43 49 67 80 85 84
26 27 25 23 21 19 19 22 23 21 20 20 19 19 20 19 18 20 20 17 15 15 17 19 22 27 20 25 31 38 74 100 98 66 95 96 66 71 73 66 75 84 83
25 25 24 23 21 19 20 20 19 18 20 22 22 22 21 22 21 16 16 19 22 23 23 24 25 31 37 35 58 95 100 100 100 83 96 100 81 98 74 71 78 98 98
18 18 18 18 17 17 18 16 16 20 22 22 20 21 22 23 23 20 20 19 20 23 26 27 29 32 36 40 59 99 100 100 99 98 95 98 98 99 74 68 83 89 88
18 18 17 16 15 15 15 15 15 16 19 22 22 25 25 22 20 20 20 20 21 25 24 27 30 34 41 44 63 97 100 100 100 100 100 100 88 99 100 84 85 92 90

GFSMA_850_rhum_138.txt.gz
RH
89 91 92 87 70 66 69 69 74 79 88 92 87 66 36 38 40 41 44 45 54 62 67 68 70 69 64 59 55 53 54 70 66 70 62 66 67 71 73 73 46 43 44
91 97 94 95 92 70 73 75 73 79 81 84 87 88 84 50 38 41 43 54 55 57 65 66 65 67 66 64 60 57 58 56 62 62 62 64 68 72 74 73 54 38 41
82 87 99 96 94 94 95 92 82 84 86 86 86 84 89 88 84 48 40 43 56 61 64 63 64 65 61 61 58 56 58 61 55 58 64 64 68 75 74 73 71 57 45
22 78 83 96 94 90 93 98 94 90 89 89 86 84 80 81 83 86 54 38 51 63 66 74 73 66 61 60 59 60 62 62 62 58 58 63 68 71 75 76 75 76 70
30 26 68 80 88 91 92 93 93 94 88 85 82 82 82 83 85 84 63 52 53 67 77 81 77 73 64 62 62 60 60 63 65 64 62 62 64 71 74 76 77 80 82
34 34 29 57 77 81 91 95 92 93 91 87 86 85 82 83 87 87 82 75 74 79 86 83 79 76 80 81 82 83 68 64 64 66 66 69 68 66 68 70 75 81 84
44 39 40 34 46 69 87 96 97 94 94 90 94 92 87 85 82 86 86 88 86 83 85 85 81 78 74 76 77 81 79 70 67 68 68 70 72 70 69 71 74 77 82
53 44 46 47 38 39 64 99 98 92 90 92 92 98 99 95 75 74 79 85 89 79 64 64 74 77 74 72 72 76 83 85 84 79 76 77 73 73 76 77 74 76 83
59 53 51 52 51 45 41 54 88 96 88 86 87 90 100 95 82 74 69 73 74 74 77 79 76 66 61 64 69 74 79 83 86 83 80 86 79 79 78 80 76 80 80
58 57 56 54 55 64 65 55 48 78 89 90 90 87 98 92 80 71 66 60 61 69 70 66 67 62 63 73 77 76 76 75 76 78 79 76 82 84 85 82 78 74 71
62 61 59 56 61 64 71 71 51 52 81 85 87 88 87 91 91 92 81 74 70 69 71 69 65 63 74 79 83 80 84 85 84 83 85 89 92 89 85 82 81 76 75
64 64 58 61 69 78 68 59 64 50 54 76 83 87 88 93 89 89 92 84 76 72 81 79 75 77 81 79 88 86 88 96 99 99 99 96 98 89 82 83 86 86 83
60 68 65 60 62 61 62 55 55 70 68 56 74 80 86 89 90 96 100 95 94 90 85 74 75 82 86 82 95 96 99 99 97 97 94 99 97 95 93 90 88 88 89
66 67 65 66 71 69 61 57 64 68 76 76 72 73 79 82 87 97 91 88 92 88 88 80 76 78 78 85 97 96 99 100 100 99 99 100 100 100 100 100 96 95 90
84 83 81 78 79 79 70 88 91 88 87 84 78 82 84 90 94 95 100 96 100 100 98 97 99 97 81 83 100 100 100 98 99 100 100 100 100 100 94 96 100 97 92
88 92 98 94 88 74 81 93 92 84 82 84 87 90 90 90 92 94 90 96 98 95 99 97 99 99 95 93 100 100 100 100 100 100 100 99 100 99 99 98 82 46 18
95 94 99 94 79 86 97 93 92 80 82 83 84 83 83 85 86 88 94 92 99 84 99 100 99 100 100 98 100 100 100 99 99 99 96 95 55 20 12 9 6 6 6
86 88 83 76 77 79 76 78 85 78 78 78 82 88 89 93 96 98 95 98 90 95 99 100 100 100 100 99 100 99 92 87 76 49 29 9 8 8 8 6 7 11 13
100 95 77 77 78 78 74 73 81 86 90 96 98 98 99 98 96 95 98 99 99 100 100 99 96 94 86 61 42 37 38 33 11 10 10 9 9 12 12 14 16 20 23
100 100 100 100 100 93 92 85 80 92 91 93 97 98 96 98 98 99 98 93 84 72 61 58 55 22 15 13 14 11 8 7 8 12 11 11 15 18 16 18 21 31 38
99 100 100 99 98 91 72 68 88 81 83 86 94 94 86 78 68 52 34 21 18 15 13 12 12 11 11 11 12 14 13 11 10 12 14 18 16 14 18 24 40 52 58
37 50 53 48 37 30 24 86 62 38 35 33 40 33 29 25 23 21 18 14 13 11 11 12 13 16 20 22 20 20 18 15 13 23 24 12 21 20 23 29 49 54 55
26 26 23 20 19 19 18 19 19 22 23 24 26 25 26 24 20 18 15 14 14 13 14 16 18 20 22 23 20 20 24 30 29 22 41 21 24 25 27 31 53 55 70
22 23 23 23 21 19 21 23 22 22 25 26 26 25 22 20 18 17 17 18 18 18 20 22 24 24 24 27 31 38 46 45 42 32 55 64 44 44 27 35 58 67 93
19 19 19 20 20 20 19 17 20 25 25 24 24 24 24 24 22 20 24 24 23 24 26 24 24 25 27 31 36 37 42 41 40 31 58 100 96 76 52 40 65 74 81
18 18 18 18 18 17 16 16 17 20 22 24 24 24 25 25 22 20 24 24 24 28 28 29 32 31 30 32 35 41 48 56 73 79 65 90 90 99 100 61 67 69 76

GFSMA_850_rhum_141.txt.gz
RH
74 77 82 86 92 97 92 80 76 74 70 76 85 89 82 45 41 42 40 41 41 41 48 54 58 59 57 57 54 51 53 65 62 66 62 65 64 65 67 70 75 69 44
69 77 68 74 82 91 95 87 77 74 79 77 78 82 88 90 74 41 41 42 42 43 47 53 58 59 59 61 60 58 62 54 58 57 60 60 61 62 65 68 70 73 67
21 24 61 74 73 78 87 93 88 90 93 89 80 87 88 86 87 87 60 41 41 46 53 55 61 64 65 63 63 64 62 57 56 58 57 58 65 66 68 72 71 71 74
35 30 25 26 67 82 88 96 91 91 95 97 84 83 85 84 83 82 84 87 66 41 43 56 64 66 74 73 70 65 62 60 60 63 62 61 61 63 66 69 72 74 74
43 43 37 34 27 48 75 79 91 95 92 91 88 88 88 85 86 88 85 83 86 66 43 53 70 79 83 76 72 66 66 66 64 64 65 65 64 63 64 66 70 71 73
44 46 44 40 35 31 41 66 86 85 95 98 97 92 89 86 87 88 84 83 84 70 52 54 72 83 87 84 85 86 84 83 85 74 67 66 68 66 64 65 66 69 69
50 53 50 48 40 40 35 39 63 90 98 99 100 98 91 83 83 79 77 78 78 83 78 77 83 79 68 76 80 85 86 86 86 82 73 69 74 72 69 69 69 64 67
58 63 60 54 48 46 44 39 41 61 90 98 100 99 100 99 90 71 70 67 72 80 83 87 86 86 66 52 46 80 78 78 81 83 82 81 81 81 78 73 67 70 71
69 67 62 59 56 55 52 46 40 43 64 89 99 99 100 97 84 78 73 68 67 77 79 89 76 73 85 84 76 64 62 71 78 82 83 84 82 79 80 81 74 75 79
62 60 60 61 60 59 60 69 68 61 48 51 88 93 96 99 98 92 76 71 70 73 74 79 84 89 84 69 66 67 70 78 79 78 76 74 76 76 76 84 84 84 88
66 61 61 60 59 59 65 69 75 77 72 59 58 90 86 88 95 99 99 84 76 68 66 79 89 80 72 76 81 79 83 84 84 88 87 86 85 81 92 96 98 93 90
52 59 63 62 56 58 67 73 74 64 65 68 78 80 71 76 90 90 99 100 96 90 87 92 87 85 80 78 82 80 83 87 92 100 99 99 98 99 96 96 96 94 90
66 61 62 62 63 63 64 64 61 57 59 67 74 88 82 70 76 86 93 98 96 100 91 90 82 86 82 76 79 77 77 98 99 99 98 98 98 96 98 100 100 99 99
82 80 76 70 65 70 73 68 66 66 73 75 74 82 84 72 69 87 90 92 100 99 92 81 77 71 83 78 84 75 79 99 100 100 100 100 100 100 100 100 99 100 99
85 89 92 91 83 85 80 71 84 91 93 90 91 89 82 75 75 89 91 99 96 92 92 90 93 93 94 86 84 92 87 100 100 100 100 100 99 100 100 100 100 99 100
90 90 83 92 92 80 76 81 90 90 88 88 87 89 93 98 94 86 86 100 100 100 99 100 97 94 93 88 89 100 100 100 96 100 100 100 100 100 100 99 92 67 47
97 96 97 95 85 76 81 93 91 92 80 80 82 85 93 99 98 99 100 100 98 95 99 100 98 100 100 100 100 100 100 100 98 99 99 99 97 89 62 26 21 9 6
96 87 84 78 81 73 73 73 72 78 78 77 74 79 81 90 92 95 96 98 94 97 100 100 100 100 98 100 100 100 99 95 76 68 78 56 26 11 13 12 8 7 8
100 100 100 99 99 96 90 82 76 77 81 85 90 95 92 89 92 94 93 93 92 95 99 100 100 99 91 80 44 25 12 9 9 9 9 9 9 8 9 10 10 13 12
99 100 99 100 100 100 94 79 69 83 99 93 87 86 97 94 91 92 95 96 88 72 56 48 61 60 57 28 17 15 11 11 11 12 12 12 14 16 17 15 17 17 20
84 98 98 99 96 82 59 48 82 80 74 85 96 96 88 78 75 61 49 31 19 14 11 13 17 17 16 18 16 14 11 10 11 13 13 15 16 14 17 18 24 31 38
21 25 28 28 24 19 19 47 49 32 30 31 30 28 29 23 20 17 14 12 11 10 12 11 16 15 16 16 16 15 14 11 16 19 14 11 14 14 18 24 31 30 36
18 21 22 21 19 18 16 16 18 20 22 22 23 26 25 21 18 16 14 13 13 14 14 16 17 18 19 19 19 19 18 17 18 23 22 11 18 19 23 28 36 42 56
16 16 16 18 19 18 18 18 17 15 17 19 21 22 21 19 18 16 16 17 17 17 19 20 20 20 21 21 22 24 26 23 20 26 37 27 26 27 25 32 36 52 71
17 17 16 16 18 17 16 15 15 18 21 22 23 23 22 20 19 20 21 22 23 24 25 22 22 23 24 26 25 27 31 31 25 26 45 62 42 38 29 32 56 70 66
17 18 17 17 17 17 16 14 13 15 16 19 20 20 19 18 17 19 22 24 25 28 27 29 30 30 30 31 31 34 37 42 50 42 54 69 67 88 98 42 45 50 66